[[[{"header":{"parameterUnit":"kt","parameterCategory":2,"dx":1,"dy":1,"la1":29.587661999999998,"la2":31.0,"lo1":-88.76705300000003,"lo2":-86.6583820000003,"nx":115,"ny":88,"refTime":"2022-10-07T12:00:00:Z","depth":0,"parameterNumber":1,"parameterNumberName":"U-component_of_WINDS"},"data":[13.7842,13.8909,14.0027,14.0535,14.0535,14.0535,14.0535,14.0535,14.0535,14.0535,14.0535,14.0535,14.0535,14.0535,14.0535,14.0535,14.0535,14.0535,14.0535,14.0705,14.2294,14.3542,14.5211,14.7945,15.3967,15.5334,15.4815,15.4793,15.4463,15.1488,14.9473,14.9962,14.9782,14.9797,15.0034,15.1165,15.3153,15.3153,15.3153,15.3153,15.3153,15.3153,15.3153,15.3153,15.3153,15.3153,15.3153,15.3153,15.3153,15.3153,15.3153,15.3153,15.3153,15.3153,15.3153,15.3153,15.3153,15.2978,15.2571,15.2455,15.1757,15.0908,14.9779,14.864,14.7918,14.6638,14.609,14.5799,14.5799,14.5741,14.609,14.6755,14.7826,14.9512,15.0966,15.2106,15.3037,15.3153,15.3153,15.3153,15.3153,15.3153,15.3153,15.3153,15.3153,15.3153,15.3153,15.3153,15.3153,15.3153,15.3153,15.3153,15.3153,15.3153,15.3153,15.3153,15.3153,15.3153,15.3153,15.3153,15.3153,15.3153,15.3153,15.3153,15.3153,15.3153,15.3153,15.3153,15.3153,15.3153,15.3153,15.3153,15.3153,15.3153,15.3153,13.774,13.8909,14.0027,14.0535,14.0535,14.0535,14.0535,14.0535,14.0535,14.0535,14.0535,14.0535,14.0535,14.0535,14.0535,14.0535,14.0535,14.0535,14.0781,14.1036,14.1967,14.3603,14.5364,14.7256,15.0096,15.2074,15.3829,15.4757,15.4862,15.3215,15.1933,15.2462,15.2568,15.2462,15.2638,15.3083,15.3153,15.3153,15.3153,15.3153,15.3153,15.3153,15.3153,15.3153,15.3153,15.3153,15.3153,15.3153,15.3153,15.3153,15.3153,15.3153,15.3153,15.3153,15.3153,15.3153,15.3153,15.2606,15.1931,15.1699,15.0792,14.9687,14.8407,14.7685,14.7394,14.6638,14.5915,14.5625,14.5625,14.5741,14.609,14.673,14.7942,14.9338,15.0617,15.1873,15.2571,15.3153,15.3153,15.3153,15.3153,15.3153,15.3153,15.3153,15.3153,15.3153,15.3153,15.3153,15.3153,15.3153,15.3153,15.3153,15.3153,15.3153,15.3153,15.3153,15.3153,15.3153,15.3153,15.3153,15.3153,15.3153,15.3153,15.3153,15.3153,15.3153,15.3153,15.3153,15.3153,15.3153,15.3153,15.3153,15.3153,15.3153,15.3153,13.5921,13.7131,13.8807,13.9925,14.0484,14.0535,14.0535,14.0535,14.0535,14.0535,14.0535,14.0535,14.0535,14.0535,14.0535,14.0535,14.0535,14.0577,14.1704,14.3781,14.5474,14.5563,14.8914,15.2816,15.1848,15.2026,15.4341,15.463,15.3932,15.3327,15.3153,15.3048,15.3048,15.3013,15.3048,15.3118,15.3153,15.3153,15.3153,15.3153,15.3153,15.3153,15.3153,15.3153,15.3153,15.3153,15.3153,15.3153,15.3153,15.3153,15.3153,15.3153,15.3153,15.3153,15.3153,15.3153,15.3072,15.2606,15.1699,15.1024,15.0385,14.8989,14.7685,14.6929,14.6638,14.6381,14.5625,14.5566,14.5566,14.5799,14.6148,14.7394,14.864,14.9745,15.1024,15.2048,15.2746,15.3153,15.3153,15.3153,15.3153,15.3153,15.3153,15.3153,15.3153,15.3153,15.3153,15.3153,15.3153,15.3153,15.3153,15.3153,15.3153,15.3153,15.3153,15.3153,15.3153,15.3153,15.3153,15.3153,15.3153,15.3153,15.3153,15.3153,15.3153,15.3153,15.3153,15.3153,15.3153,15.3153,15.3153,15.3153,15.3153,15.3153,15.3153,13.4407,13.5657,13.7283,13.8858,14.0077,14.0433,14.0535,14.0535,14.0535,14.0535,14.0535,14.0535,14.0535,14.0917,14.1544,14.1333,14.1798,14.2873,14.4031,14.5621,14.7973,14.8701,15.1909,15.2713,15.4059,15.4284,15.423,15.4048,15.3502,15.3269,15.3153,15.3153,15.3153,15.3153,15.3153,15.3153,15.3153,15.3153,15.3153,15.3153,15.3153,15.3153,15.3153,15.3153,15.3153,15.3153,15.3153,15.3153,15.3153,15.3153,15.3153,15.3153,15.3153,15.3153,15.3153,15.3153,15.3153,15.2106,15.1141,15.0385,14.928,14.7918,14.6871,14.6381,14.5974,14.5741,14.5566,14.5566,14.5683,14.5915,14.6464,14.8059,14.9478,15.0617,15.1699,15.2397,15.3095,15.3153,15.3153,15.3153,15.3153,15.3153,15.3153,15.3153,15.3153,15.3153,15.3153,15.3153,15.3153,15.3153,15.3153,15.3153,15.3153,15.3153,15.3153,15.3153,15.3153,15.3153,15.3153,15.3153,15.3153,15.3153,15.3153,15.3153,15.3153,15.3153,15.3153,15.3153,15.3153,15.3153,15.3153,15.3153,15.3153,15.3153,15.3153,13.4397,13.5454,13.5698,13.7131,13.896,14.0128,14.0484,14.0535,14.0484,14.0535,14.0484,14.0535,14.0535,14.0909,14.2289,14.2214,14.1944,14.4212,14.5286,14.5515,14.7394,14.8794,14.939,14.9883,15.1775,15.1179,15.1466,15.356,15.3211,15.3153,15.3153,15.3153,15.3153,15.3153,15.3153,15.3153,15.3153,15.3153,15.3153,15.3153,15.3153,15.3153,15.3153,15.3153,15.3153,15.3153,15.3153,15.3153,15.3153,15.3153,15.3153,15.3153,15.3153,15.3153,15.313,15.3072,15.2897,15.1641,15.0152,14.9454,14.8,14.6755,14.5741,14.5741,14.5741,14.5625,14.5566,14.5566,14.5625,14.5799,14.6464,14.7826,14.8931,14.9919,15.1175,15.2222,15.2804,15.3037,15.3037,15.3153,15.3153,15.3153,15.3153,15.3153,15.3153,15.3153,15.3153,15.3153,15.3153,15.3153,15.3153,15.3153,15.3153,15.3153,15.3153,15.3153,15.3153,15.3153,15.3153,15.3153,15.3153,15.3153,15.3153,15.3153,15.3153,15.3153,15.3153,15.3153,15.3153,15.3153,15.3153,15.3153,15.3153,15.3153,15.3153,13.4001,13.46,13.5911,13.7029,13.8096,13.9773,13.9671,13.8909,13.9976,14.0077,13.962,14.0179,14.0535,14.0629,14.1187,14.1046,13.9797,14.2929,14.4139,14.3518,14.4322,14.6316,14.86,15.0011,15.0262,15.1495,15.2591,15.3153,15.3153,15.3153,15.3153,15.3153,15.3153,15.3153,15.3153,15.3153,15.3153,15.3153,15.3153,15.3153,15.3153,15.3153,15.3153,15.3153,15.3153,15.3153,15.3153,15.3153,15.3153,15.3153,15.3153,15.3153,15.313,15.3037,15.2978,15.2106,15.2048,15.0768,14.8907,14.8349,14.722,14.6148,14.5625,14.5566,14.5566,14.5566,14.5566,14.5566,14.5625,14.5857,14.6638,14.7453,14.8267,14.9139,15.0535,15.1931,15.2397,15.2804,15.2978,15.3095,15.3153,15.3153,15.3153,15.3153,15.3153,15.3153,15.3153,15.3153,15.3153,15.3153,15.3153,15.3153,15.3153,15.3153,15.3153,15.3153,15.3153,15.3153,15.3153,15.3153,15.3153,15.3153,15.3153,15.3153,15.3153,15.3153,15.3153,15.3153,15.3153,15.3153,15.3153,15.3153,15.3153,15.3153,15.3153,13.3706,13.3899,13.5514,13.6419,13.6978,13.8756,13.8756,13.7486,13.8756,13.9214,13.8401,13.9214,13.9315,13.9688,13.9743,13.932,13.9202,13.9648,14.1059,14.2073,14.3759,14.5917,14.7733,14.9224,15.0378,15.143,15.2498,15.3153,15.3153,15.3153,15.3153,15.3153,15.3153,15.3153,15.3153,15.3153,15.3153,15.3153,15.3153,15.3153,15.3153,15.3153,15.3153,15.3153,15.3153,15.3153,15.292,15.2746,15.2862,15.2629,15.2455,15.2397,15.2397,15.2164,15.2222,15.1199,15.0966,15.0152,14.8092,14.7569,14.6987,14.5974,14.5566,14.5566,14.5566,14.5566,14.5566,14.5566,14.5625,14.6206,14.6929,14.7627,14.8325,14.9372,15.0652,15.1815,15.2571,15.292,15.3037,15.3153,15.3153,15.3153,15.3153,15.3153,15.3153,15.3153,15.3153,15.3153,15.3153,15.3153,15.3153,15.3153,15.3153,15.3153,15.3153,15.3153,15.3153,15.3153,15.3153,15.3153,15.3153,15.3153,15.3153,15.3153,15.3153,15.3153,15.3153,15.3153,15.3153,15.3153,15.3153,15.3153,15.3153,15.3153,15.3153,13.3706,13.3747,13.3798,13.46,13.5657,13.6775,13.7283,13.7232,13.7385,13.7426,13.7283,13.7435,13.774,13.8151,14.0513,13.989,13.8156,14.274,14.2939,14.2845,14.2897,14.4901,14.6391,14.796,14.9379,15.0127,15.1378,15.3153,15.3153,15.3153,15.3153,15.3153,15.3153,15.3153,15.3153,15.3153,15.3153,15.3153,15.3153,15.3153,15.3153,15.3153,15.3153,15.3153,15.3095,15.3095,15.2571,15.2106,15.2164,15.1664,15.0966,15.0734,15.0501,15.0001,15.0443,15.0734,15.0966,14.9547,14.7802,14.7278,14.658,14.5799,14.5566,14.5566,14.5566,14.5566,14.5566,14.5566,14.5625,14.6381,14.6871,14.7453,14.8034,14.9081,15.0303,15.135,15.2222,15.292,15.3095,15.3153,15.3153,15.3153,15.3153,15.3153,15.3153,15.3153,15.3153,15.3153,15.3153,15.3153,15.3153,15.3153,15.3153,15.3153,15.3153,15.3153,15.3153,15.3153,15.3153,15.3153,15.3153,15.3153,15.3153,15.3153,15.3153,15.3153,15.3153,15.3153,15.3153,15.3153,15.3153,15.3153,15.3153,15.3153,15.3153,13.3706,13.3849,13.4509,13.5149,13.5403,13.5108,13.5413,13.6165,13.6877,13.6775,13.6368,13.6877,13.7131,13.7208,13.7654,13.6671,13.6414,13.8294,13.769,14.0251,14.0883,14.3605,14.6197,14.8153,14.9112,15.1449,15.2802,15.3153,15.3153,15.3153,15.3153,15.3153,15.3153,15.3153,15.3153,15.3153,15.3153,15.3153,15.3153,15.3153,15.3153,15.3153,15.3153,15.3095,15.2978,15.2688,15.2048,15.1524,15.1083,15.0443,14.9919,14.9653,14.9711,14.9536,14.9629,14.9454,14.928,14.7976,14.6871,14.6406,14.6265,14.5625,14.5625,14.5566,14.5566,14.5566,14.5566,14.5566,14.5566,14.5857,14.6032,14.6032,14.6555,14.7045,14.8325,14.9687,15.0792,15.2571,15.3037,15.3153,15.3153,15.3153,15.3153,15.3153,15.3153,15.3153,15.3153,15.3153,15.3153,15.3153,15.3153,15.3153,15.3153,15.3153,15.3153,15.3153,15.3153,15.3153,15.3153,15.3153,15.3153,15.3153,15.3153,15.3153,15.3153,15.3153,15.3153,15.3153,15.3153,15.3153,15.3153,15.3153,15.3153,15.3153,15.3153,13.3706,13.3757,13.46,13.5108,13.5352,13.46,13.4753,13.5556,13.6165,13.5962,13.5302,13.5657,13.6022,13.5911,13.5414,13.574,13.6286,13.5653,13.7108,14.0112,14.0823,14.3525,14.5587,14.7545,14.9292,15.1271,15.2942,15.3153,15.3153,15.3153,15.3153,15.3153,15.3153,15.3153,15.3153,15.3153,15.3153,15.3153,15.3153,15.3153,15.3153,15.313,15.292,15.2455,15.2397,15.1815,15.0675,14.9954,14.9745,14.9571,14.8151,14.8175,14.8582,14.7884,14.8209,14.8407,14.7569,14.658,14.6464,14.5741,14.5625,14.5566,14.5566,14.5566,14.5566,14.5566,14.5566,14.5566,14.5566,14.5566,14.5566,14.5625,14.6032,14.6439,14.722,14.8582,15.0036,15.1757,15.2978,15.3095,15.3153,15.3153,15.3153,15.3153,15.3153,15.3153,15.3153,15.3153,15.3153,15.3153,15.3153,15.3153,15.3153,15.3153,15.3153,15.3153,15.3153,15.3153,15.3153,15.3153,15.3153,15.3153,15.3153,15.3153,15.3153,15.3153,15.3153,15.3153,15.3153,15.3153,15.3153,15.3153,15.3153,15.3153,15.3153,13.3706,13.3706,13.3798,13.4448,13.5302,13.5403,13.5302,13.5302,13.5505,13.5098,13.4295,13.4001,13.4092,13.4609,13.5075,13.6557,13.8291,13.8893,14.0446,14.2882,14.3563,14.3827,14.5699,14.7599,14.989,14.9545,15.1378,15.3153,15.3153,15.3153,15.3153,15.3153,15.3153,15.3153,15.3153,15.3153,15.3153,15.3153,15.3153,15.3153,15.3095,15.292,15.2339,15.1757,15.135,15.0594,14.9454,14.8674,14.8441,14.8291,14.6929,14.6755,14.7336,14.6555,14.6614,14.7336,14.6323,14.6381,14.7137,14.6206,14.5683,14.5566,14.5566,14.5566,14.5566,14.5566,14.5566,14.5566,14.5566,14.5566,14.5566,14.5625,14.6265,14.6813,14.7453,14.8582,15.0036,15.1641,15.2571,15.3072,15.313,15.3153,15.3153,15.3095,15.313,15.3153,15.3153,15.3153,15.3153,15.3153,15.3153,15.3153,15.3153,15.3153,15.3153,15.3153,15.3153,15.3153,15.3153,15.3153,15.3153,15.3153,15.3153,15.3153,15.3153,15.3153,15.3153,15.3153,15.3153,15.3153,15.3153,15.3153,15.3153,15.3153,15.3153,13.3706,13.3706,13.3706,13.395,13.4245,13.4204,13.4245,13.4397,13.5149,13.5251,13.4946,13.4174,13.4908,13.6724,13.716,13.8815,14.12,14.2222,14.4163,14.5939,14.7419,14.8329,14.9926,15.1115,15.148,15.1968,15.2978,15.3153,15.3153,15.3153,15.3153,15.3153,15.3153,15.3153,15.3153,15.3153,15.3153,15.3153,15.3153,15.3153,15.2978,15.2397,15.1582,15.1315,15.0385,14.9454,14.8407,14.7743,14.7336,14.6696,14.6265,14.5915,14.5915,14.5915,14.5799,14.5915,14.5857,14.5741,14.6032,14.5741,14.5625,14.5566,14.5566,14.5566,14.5566,14.5566,14.5566,14.5566,14.5566,14.5566,14.5566,14.5566,14.6032,14.6406,14.7162,14.8151,14.9663,15.0617,15.1699,15.2606,15.292,15.2862,15.2862,15.2897,15.2955,15.313,15.3188,15.3153,15.3153,15.3153,15.3153,15.3153,15.3153,15.3153,15.3153,15.3153,15.3153,15.3153,15.3153,15.3153,15.3153,15.3153,15.3153,15.3153,15.3153,15.3153,15.3153,15.3153,15.3153,15.3153,15.3153,15.3153,15.3153,15.3153,15.3153,13.3706,13.3706,13.3706,13.4001,13.4397,13.4356,13.4651,13.5159,13.586,13.6003,13.5403,13.4885,13.5819,13.742,13.8263,14.0423,14.4487,14.4908,14.8,15.0257,15.1735,15.2838,15.343,15.4127,15.3851,15.3745,15.3257,15.3153,15.3153,15.3153,15.3153,15.3153,15.3153,15.3153,15.3153,15.3153,15.3153,15.3153,15.3153,15.3153,15.2978,15.228,15.1757,15.1199,14.9978,14.8756,14.7651,14.7104,14.6381,14.5857,14.5683,14.5625,14.5683,14.5625,14.5625,14.5625,14.5683,14.5625,14.5683,14.6148,14.6032,14.5857,14.5566,14.5566,14.5566,14.5566,14.5566,14.5566,14.5566,14.5566,14.5566,14.5566,14.5625,14.5974,14.6638,14.7627,14.8616,14.9372,15.0245,15.0826,15.1466,15.2164,15.2339,15.249,15.2781,15.313,15.3188,15.3153,15.3153,15.3153,15.3153,15.3153,15.3153,15.3153,15.3153,15.3153,15.3153,15.3153,15.3153,15.3153,15.3153,15.3153,15.3153,15.3153,15.3153,15.3153,15.3153,15.3153,15.3153,15.3153,15.3153,15.3095,15.3153,15.3153,15.3153,13.3706,13.3706,13.3706,13.4346,13.52,13.5352,13.5911,13.6368,13.6826,13.6308,13.5342,13.5935,13.7161,13.8687,14.0343,14.2964,14.8025,14.7827,15.1362,15.4924,15.6898,15.6043,15.5592,15.5037,15.463,15.4455,15.3676,15.3246,15.3153,15.3153,15.3153,15.3153,15.3153,15.3153,15.3153,15.3153,15.3153,15.3153,15.3153,15.3153,15.2839,15.2397,15.1815,15.0675,14.9571,14.8524,14.7419,14.6347,14.5625,14.5625,14.5566,14.5566,14.6032,14.6032,14.6289,14.6439,14.6497,14.6323,14.609,14.6497,14.658,14.5974,14.5566,14.5566,14.5566,14.5566,14.5566,14.5566,14.5566,14.5566,14.5566,14.5566,14.5566,14.5915,14.6439,14.7336,14.7976,14.8616,14.9105,14.9222,14.9861,15.0792,15.1175,15.1699,15.2048,15.2978,15.3153,15.3153,15.3153,15.3153,15.3153,15.3153,15.3153,15.3153,15.3153,15.3153,15.3153,15.3153,15.3153,15.3153,15.3153,15.3153,15.3153,15.3153,15.3153,15.3153,15.3153,15.2804,15.2629,15.292,15.3095,15.3013,15.2955,15.3095,15.3153,13.3706,13.3706,13.3706,13.3899,13.4194,13.4194,13.4407,13.4803,13.5688,13.5342,13.5211,13.7713,14.2134,14.5842,14.6351,14.8293,15.3946,15.4612,15.5909,15.6068,15.6236,15.5829,15.556,15.4607,15.3909,15.356,15.3537,15.3269,15.3211,15.3153,15.3153,15.3153,15.3153,15.3153,15.3153,15.3153,15.3037,15.3037,15.2978,15.2571,15.1757,15.085,14.9803,14.8616,14.737,14.6381,14.609,14.5683,14.5625,14.5625,14.5625,14.609,14.673,14.6755,14.6987,14.7743,14.7976,14.7743,14.7045,14.6522,14.5915,14.5683,14.5566,14.5566,14.5566,14.5566,14.5566,14.5566,14.5566,14.5566,14.5566,14.5566,14.5566,14.5857,14.6265,14.6929,14.7627,14.85,14.8989,14.9163,14.9512,15.0094,15.0675,15.1083,15.1815,15.2862,15.3153,15.3153,15.3153,15.3153,15.3153,15.3153,15.3153,15.3153,15.3153,15.3153,15.3153,15.3153,15.3153,15.3153,15.3153,15.3153,15.3153,15.3153,15.3153,15.3037,15.2688,15.228,15.199,15.2222,15.2455,15.2513,15.2839,15.3037,15.3153,13.333,13.3696,13.3239,13.333,13.3747,13.3706,13.4001,13.4875,13.6605,13.6473,13.5608,13.9157,14.177,14.3049,14.6121,14.9807,15.3942,15.4444,15.5452,15.6458,15.6468,15.6061,15.5712,15.5189,15.4433,15.4433,15.4025,15.3676,15.3211,15.3153,15.3153,15.3153,15.3153,15.313,15.3153,15.3153,15.2862,15.2455,15.2222,15.1641,15.0559,14.9653,14.8989,14.8349,14.7162,14.6696,14.6439,14.6032,14.5799,14.6347,14.5741,14.6265,14.7104,14.7162,14.7278,14.8407,14.8931,14.864,14.7651,14.6929,14.6265,14.5857,14.5566,14.5625,14.5566,14.5566,14.5566,14.5625,14.5625,14.5566,14.5566,14.5566,14.5566,14.5683,14.5974,14.6672,14.7453,14.8267,14.8931,14.9163,14.9396,15.021,15.085,15.1233,15.1815,15.2746,15.3153,15.3153,15.3153,15.3153,15.3153,15.3153,15.3153,15.3153,15.3153,15.3153,15.3153,15.3153,15.3153,15.3153,15.3153,15.3153,15.3153,15.3153,15.2978,15.2629,15.2222,15.1873,15.1582,15.1641,15.1757,15.2339,15.2955,15.313,15.3153,13.3026,13.4092,13.3066,13.3076,13.3899,13.4001,13.4499,13.5517,13.7834,13.7938,13.6259,14.0057,14.0619,14.0516,14.3025,14.7569,15.1456,15.3615,15.5014,15.674,15.6643,15.641,15.6607,15.6759,15.5189,15.4491,15.4514,15.4165,15.3444,15.3153,15.3153,15.3037,15.3013,15.2897,15.2629,15.228,15.2071,15.1199,15.0966,15.0501,14.9571,14.9129,14.8815,14.8349,14.7627,14.6929,14.6696,14.609,14.5974,14.6813,14.609,14.6289,14.7104,14.6439,14.6638,14.7453,14.8117,14.8466,14.7685,14.7045,14.6497,14.5741,14.5915,14.5857,14.6148,14.6206,14.6406,14.6032,14.6148,14.6381,14.6497,14.6265,14.6148,14.6381,14.6755,14.722,14.7627,14.8756,14.8873,14.9105,15.0477,15.1059,15.1408,15.1582,15.1815,15.2571,15.3153,15.3153,15.3153,15.3153,15.3153,15.3153,15.3153,15.3153,15.3153,15.3153,15.3153,15.3153,15.3153,15.3153,15.3153,15.3153,15.3153,15.292,15.2746,15.2397,15.1431,15.0966,15.1083,15.1199,15.1431,15.2106,15.2955,15.313,15.3153,13.4651,13.6419,13.5302,13.4946,13.5098,13.5149,13.4834,13.4275,13.5226,13.6661,13.8225,14.1552,14.4122,14.6325,14.9857,15.3252,15.5764,15.5793,15.5931,15.6607,15.5967,15.5502,15.5153,15.4607,15.4025,15.3851,15.356,15.3444,15.2862,15.2804,15.3037,15.2688,15.1931,15.1641,15.1466,15.0908,15.0094,14.9653,14.9687,14.9594,14.9071,14.8349,14.7453,14.6381,14.609,14.6032,14.6148,14.5741,14.5857,14.6032,14.5974,14.6206,14.722,14.7278,14.7278,14.7336,14.673,14.7021,14.6871,14.6696,14.6032,14.5716,14.6522,14.6987,14.722,14.7569,14.8233,14.8524,14.8407,14.8325,14.8209,14.8466,14.8441,14.8349,14.8349,14.864,14.8815,14.9047,14.928,15.0245,15.1524,15.2164,15.2397,15.2571,15.2455,15.3153,15.3153,15.3153,15.3153,15.3153,15.3153,15.3153,15.3153,15.3153,15.3153,15.3153,15.3153,15.3153,15.3153,15.3153,15.3153,15.3153,15.2862,15.2629,15.228,15.1257,15.0385,14.9653,15.021,15.0675,15.1024,15.1722,15.2688,15.3188,15.3013,13.4803,13.6267,13.58,13.581,13.6454,13.7322,13.7472,13.7303,13.9624,14.0894,14.1891,14.4204,14.6032,14.6921,15.016,15.3131,15.453,15.5189,15.5189,15.5131,15.4549,15.42,15.4025,15.4374,15.3793,15.2978,15.1873,15.1199,15.135,15.1408,15.1175,15.1141,15.0675,15.0327,15.0094,14.9571,14.9105,14.8524,14.8407,14.8117,14.7394,14.6987,14.6381,14.5741,14.5625,14.5566,14.5566,14.5566,14.5857,14.6265,14.5915,14.6439,14.6871,14.6987,14.6555,14.6439,14.6032,14.5974,14.6265,14.609,14.5566,14.5683,14.609,14.6846,14.7511,14.8117,14.8524,14.9047,14.928,14.9338,14.9396,14.9222,14.9338,14.9338,14.9222,14.9512,15.0036,15.021,15.0768,15.1466,15.228,15.2746,15.3153,15.3153,15.3153,15.3153,15.3153,15.3153,15.3153,15.3153,15.3153,15.3153,15.3153,15.3153,15.3153,15.3153,15.3153,15.3153,15.3153,15.3153,15.3153,15.3188,15.2862,15.1873,15.085,14.9861,14.9163,14.8931,14.9571,15.0094,15.0792,15.1641,15.2571,15.3013,15.2664,13.461,13.6313,13.6262,13.7193,13.872,13.9977,14.033,14.1239,14.4525,14.5767,14.4211,14.707,14.7254,14.679,14.8313,15.0593,15.3092,15.3653,15.3537,15.3479,15.3421,15.3327,15.3386,15.3618,15.3327,15.2222,15.0734,14.9687,14.9571,14.9338,14.9745,14.9396,14.9163,14.9047,14.8955,14.8698,14.7884,14.7278,14.7162,14.6788,14.6148,14.5857,14.5683,14.5625,14.5566,14.5566,14.5566,14.5625,14.609,14.6987,14.6148,14.6265,14.6672,14.6206,14.5799,14.5741,14.5625,14.5625,14.5799,14.5625,14.5566,14.5625,14.6032,14.6672,14.7278,14.7826,14.8582,14.9163,14.9512,14.9861,14.9919,15.0327,15.0094,15.0036,15.0268,15.0559,15.1315,15.1641,15.1931,15.2455,15.2746,15.3153,15.3153,15.3153,15.3153,15.3153,15.3153,15.3153,15.3153,15.3153,15.3153,15.3153,15.3153,15.3153,15.3095,15.3037,15.2978,15.2978,15.3013,15.3013,15.2629,15.2804,15.1931,15.0303,14.9047,14.8466,14.8407,14.8407,14.8756,14.9105,15.0327,15.1524,15.199,15.228,15.199,13.5253,13.9615,13.9615,14.1347,14.3537,14.2382,14.1441,14.0899,14.2433,14.5189,14.5465,14.8503,15.0864,15.1395,15.219,15.2498,15.306,15.313,15.2688,15.2746,15.2688,15.2688,15.2571,15.2106,15.1315,14.9943,14.9222,14.9071,14.9047,14.928,14.8815,14.8989,14.8349,14.7826,14.7511,14.6813,14.6265,14.6148,14.609,14.5799,14.5625,14.5566,14.5566,14.5566,14.5566,14.5566,14.5566,14.5625,14.5716,14.5857,14.5716,14.5716,14.5891,14.5658,14.5566,14.5566,14.5566,14.5566,14.5566,14.5566,14.5566,14.5625,14.6497,14.722,14.7685,14.8233,14.8815,14.942,15.0176,15.1083,15.2397,15.2048,15.2164,15.2339,15.2455,15.2688,15.2862,15.2862,15.2804,15.3153,15.3153,15.3153,15.3153,15.3153,15.3153,15.3153,15.3153,15.3153,15.3153,15.3153,15.3153,15.3153,15.3153,15.3153,15.2839,15.2723,15.2664,15.2664,15.2781,15.228,15.1548,15.1292,15.0477,14.8698,14.7685,14.722,14.7045,14.7627,14.8,14.8117,14.9105,15.0501,15.1083,15.1466,15.1292,13.5171,13.6183,13.8422,14.0618,14.2468,14.2819,14.423,14.6565,14.83,15.0033,15.1709,15.3017,15.435,15.5095,15.3886,15.3153,15.292,15.1873,15.1141,15.1257,15.1233,15.1141,15.0908,15.0385,14.9571,14.8407,14.7802,14.7336,14.7336,14.7278,14.7511,14.722,14.6813,14.6614,14.6323,14.5974,14.5625,14.5566,14.5566,14.5566,14.5566,14.5566,14.5566,14.5566,14.5566,14.5566,14.5625,14.5625,14.5625,14.5915,14.6813,14.7336,14.6813,14.6638,14.6265,14.5799,14.5566,14.5566,14.5566,14.5566,14.5566,14.5625,14.609,14.6755,14.7569,14.7942,14.8582,14.9396,15.0385,15.1408,15.2048,15.2164,15.2106,15.2222,15.2688,15.3095,15.3153,15.3153,15.3153,15.3153,15.3153,15.3153,15.3153,15.3153,15.3153,15.3153,15.3153,15.3153,15.3153,15.3153,15.3153,15.292,15.2978,15.2804,15.2397,15.2106,15.199,15.1873,15.1757,15.1117,15.0152,14.9512,14.8965,14.7976,14.6929,14.6323,14.6497,14.7104,14.7685,14.786,14.8407,14.9512,15.021,15.021,15.0152,13.5098,13.3759,13.7263,13.9729,14.1439,14.3282,14.6531,15.044,15.2742,15.3318,15.4963,15.6074,15.6187,15.5945,15.3967,15.3327,15.3386,15.1606,15.0327,15.0385,15.0327,14.9978,14.9396,14.9454,14.8815,14.8117,14.6905,14.6381,14.6206,14.6439,14.5974,14.5799,14.5857,14.5625,14.5683,14.5625,14.5566,14.5566,14.5566,14.5566,14.5566,14.5566,14.5566,14.5566,14.5566,14.5683,14.5915,14.6032,14.6148,14.6755,14.8034,14.864,14.8059,14.7884,14.7511,14.6813,14.6347,14.609,14.5974,14.5799,14.5566,14.5566,14.5741,14.6032,14.7045,14.7104,14.7569,14.8407,14.9629,15.0152,15.0419,15.0792,15.1257,15.1606,15.2397,15.3072,15.2862,15.292,15.3153,15.3153,15.3153,15.3153,15.3153,15.3153,15.3153,15.3153,15.3153,15.3153,15.3153,15.3153,15.2804,15.2339,15.2222,15.1873,15.1408,15.0792,15.0559,15.0385,15.0245,14.9687,14.8558,14.7743,14.7453,14.6846,14.6148,14.6323,14.6381,14.6871,14.6871,14.7453,14.7942,14.8582,14.8931,14.8897,14.8873,13.523,13.7674,13.9146,14.1552,14.4122,14.5376,14.6303,14.745,14.9926,15.0619,15.0901,15.3736,15.5001,15.3595,15.3618,15.3793,15.463,15.2688,15.3037,15.2943,15.2478,15.1199,14.9629,14.9571,14.928,14.8931,14.8989,14.8175,14.7511,14.7336,14.6788,14.6206,14.5857,14.5683,14.6032,14.5857,14.5625,14.5857,14.6032,14.6032,14.6032,14.6032,14.609,14.609,14.6032,14.6497,14.7104,14.7394,14.7918,14.8873,14.9071,14.9362,14.928,14.9105,14.8931,14.8582,14.7802,14.7303,14.7186,14.6406,14.5741,14.5741,14.5741,14.5683,14.5857,14.6032,14.609,14.6439,14.722,14.8092,14.8383,14.9954,15.0675,15.0966,15.2164,15.2455,15.199,15.2455,15.3153,15.3153,15.3153,15.3153,15.3153,15.3153,15.3153,15.3153,15.2862,15.2804,15.2688,15.2339,15.1873,15.1524,15.1199,15.0908,15.021,14.9512,14.928,14.8849,14.8558,14.8151,14.6987,14.658,14.6148,14.5915,14.5915,14.5974,14.6265,14.6148,14.5915,14.6289,14.6987,14.7394,14.771,14.7651,14.7651,13.7439,13.7278,13.955,14.1747,14.3644,14.4081,14.6148,14.8881,15.0333,15.1173,15.2457,15.4365,15.5247,15.5247,15.3851,15.3502,15.3676,15.1839,15.1408,15.1722,15.1373,15.0908,15.0617,15.0385,14.9978,14.9396,14.928,14.9013,14.8606,14.8524,14.8291,14.7743,14.7743,14.771,14.7627,14.7743,14.771,14.771,14.7743,14.7743,14.771,14.7743,14.771,14.7743,14.7802,14.7918,14.8407,14.8582,14.9512,15.1083,15.1524,15.1175,15.0559,15.0385,15.0094,14.9246,14.8873,14.8582,14.8466,14.8059,14.7453,14.6905,14.673,14.6381,14.5799,14.5566,14.5566,14.5741,14.6813,14.7045,14.6929,14.8034,14.8965,14.9372,15.0152,15.1001,15.1292,15.1722,15.2339,15.292,15.3153,15.3153,15.3153,15.3153,15.3153,15.3013,15.2594,15.2269,15.2094,15.1199,15.0559,15.0268,14.9978,14.943,14.879,14.8451,14.8194,14.7229,14.6788,14.6638,14.609,14.5915,14.6123,14.6531,14.5915,14.5741,14.6206,14.6381,14.5915,14.5683,14.5974,14.6347,14.6347,14.6347,14.6347,13.9578,13.7776,13.9963,14.1465,14.236,14.3285,14.604,14.9526,15.0316,15.1514,15.3315,15.4281,15.5014,15.5712,15.3909,15.3386,15.3327,15.1548,15.0443,15.0699,15.0501,15.0908,15.1582,15.1699,15.1292,15.0559,15.0559,15.0118,14.9803,14.9769,14.9571,14.9338,14.9105,14.9222,14.9338,14.9163,14.9338,14.9338,14.928,14.9222,14.9163,14.9163,14.9338,14.9338,14.9222,14.9222,14.928,14.9629,15.0908,15.2955,15.3153,15.2688,15.1873,15.1722,15.1373,15.0559,15.0094,14.9803,14.9745,14.9362,14.8873,14.8117,14.8034,14.7535,14.6614,14.658,14.6406,14.6265,14.6846,14.7045,14.609,14.6555,14.722,14.7569,14.8466,14.9571,15.0734,15.1257,15.1582,15.2339,15.2222,15.2129,15.2151,15.2313,15.2382,15.2439,15.1982,15.1456,15.1476,15.0881,15.0287,14.9733,14.897,14.8296,14.7704,14.7422,14.6965,14.6032,14.599,14.6173,14.6189,14.6131,14.6765,14.7056,14.629,14.5832,14.6199,14.6448,14.609,14.5566,14.5799,14.5857,14.5683,14.5625,14.5741,14.0853,14.0714,14.0922,14.1221,14.1679,14.4173,14.5697,14.6497,14.8407,14.9629,15.035,15.2339,15.3421,15.3479,15.3421,15.3735,15.4514,15.3176,15.306,15.3583,15.3211,15.2629,15.2804,15.2804,15.2688,15.2629,15.2629,15.2164,15.1141,15.1083,15.0501,14.9711,14.9687,14.9396,14.9687,14.9396,14.9629,14.9687,14.9571,14.9571,14.9571,14.9512,14.9512,14.9512,14.9571,14.9629,14.9861,15.0617,15.1815,15.292,15.3153,15.3072,15.3013,15.3037,15.2804,15.249,15.1699,15.1292,15.0884,15.0327,14.9512,14.9246,14.9222,14.9105,14.8815,14.8582,14.8233,14.7511,14.7569,14.7162,14.6206,14.6032,14.6555,14.7303,14.7768,14.8849,15.0734,15.1233,15.135,15.1233,15.0361,14.9868,15.0774,15.0818,15.1123,15.1403,15.1454,15.1151,15.1034,15.0488,15.0135,14.9464,14.8636,14.795,14.7224,14.6998,14.7164,14.6619,14.6849,14.7047,14.7185,14.7185,14.7564,14.711,14.6527,14.6197,14.6082,14.6099,14.5882,14.5733,14.5666,14.5566,14.5566,14.5566,14.5625,14.3841,14.3898,14.3841,14.3875,14.401,14.5032,14.5566,14.5857,14.7453,14.864,14.9536,15.1199,15.2397,15.3072,15.3153,15.3444,15.3793,15.3386,15.3444,15.3735,15.3269,15.3153,15.3153,15.3153,15.3153,15.3153,15.3153,15.292,15.2455,15.2455,15.2222,15.1815,15.1757,15.1699,15.1757,15.1757,15.1757,15.1722,15.1699,15.1699,15.1757,15.1757,15.1757,15.1699,15.1757,15.1699,15.1757,15.2164,15.2688,15.3037,15.3153,15.2781,15.2048,15.1931,15.1931,15.2048,15.2164,15.2397,15.2397,15.1757,15.1466,15.0675,15.0501,15.021,14.9454,14.9338,14.9222,14.8698,14.8582,14.8432,14.7826,14.7278,14.7361,14.8432,14.7942,14.8325,14.9687,15.0675,15.1141,15.1035,15.0686,15.0564,15.0457,15.046,15.073,15.1092,15.0729,15.0231,15.0087,14.9682,14.8927,14.8382,14.8133,14.7766,14.6948,14.6922,14.7145,14.7473,14.7707,14.7968,14.8,14.8,14.8027,14.7544,14.7283,14.6988,14.6692,14.6461,14.623,14.5965,14.5866,14.5866,14.5866,14.5799,14.5932,14.5566,14.5566,14.5566,14.5566,14.5625,14.6032,14.6206,14.6381,14.8034,14.9105,15.0036,15.1257,15.2339,15.3072,15.3153,15.3153,15.3153,15.3153,15.3153,15.3246,15.3153,15.3153,15.3153,15.3153,15.3153,15.3153,15.3153,15.3153,15.3153,15.3153,15.3153,15.3153,15.3095,15.3153,15.3037,15.3153,15.3153,15.3153,15.3153,15.3153,15.3153,15.3188,15.3188,15.3153,15.3153,15.292,15.2571,15.2164,15.199,15.1873,15.1931,15.1582,15.0884,15.0617,15.0652,15.0675,15.1524,15.199,15.1931,15.1815,15.1315,15.0792,15.0559,15.0152,14.9454,14.9338,14.9071,14.8698,14.9105,14.9105,14.8756,14.7942,14.7826,14.864,14.8059,14.7884,14.8756,14.9803,15.043,15.0461,15.0234,15.0124,14.9875,14.9873,15.0062,15.0531,15.0129,14.9661,14.951,14.9133,14.8319,14.8033,14.7968,14.7962,14.7642,14.7577,14.7968,14.8454,14.868,14.8873,14.8712,14.8583,14.8551,14.8357,14.813,14.787,14.7636,14.7342,14.7021,14.6791,14.6359,14.6253,14.6205,14.6362,14.656,14.545,14.5392,14.5566,14.5566,14.5741,14.6929,14.7477,14.7918,14.9978,15.085,15.1083,15.2455,15.2978,15.3153,15.3153,15.3153,15.3153,15.3153,15.3153,15.3153,15.3153,15.3153,15.3153,15.3153,15.3153,15.3153,15.3153,15.3153,15.3153,15.3153,15.3153,15.3153,15.3153,15.3153,15.3153,15.3153,15.3153,15.3153,15.3153,15.3153,15.3153,15.3153,15.3153,15.3153,15.292,15.2339,15.1257,15.0152,14.9687,14.9571,14.9571,14.9362,14.9362,14.9304,14.9304,14.9338,14.9396,14.9454,14.9512,14.9629,14.9745,14.9512,14.9396,14.942,14.9338,14.928,14.8931,14.8291,14.8698,14.8931,14.8034,14.7627,14.7685,14.7593,14.7685,14.7661,14.801,14.8732,14.9203,14.8978,14.8582,14.8166,14.8573,14.8902,14.9242,14.9699,14.9745,14.9685,14.9621,14.947,14.9259,14.8905,14.868,14.8551,14.8357,14.826,14.8905,14.9267,14.9152,14.8853,14.836,14.8026,14.7875,14.7902,14.7619,14.7427,14.7139,14.6844,14.6795,14.6633,14.689,14.6609,14.6211,14.5904,14.6452,14.2974,14.3265,14.4868,14.5566,14.5857,14.786,14.8756,14.8931,15.0501,15.1199,15.1431,15.2571,15.3153,15.3153,15.3153,15.3153,15.3153,15.3153,15.3153,15.3153,15.3153,15.3153,15.3153,15.3153,15.3153,15.3153,15.3153,15.3153,15.3153,15.3153,15.3153,15.3153,15.3153,15.3153,15.3153,15.3153,15.3153,15.3153,15.3153,15.3153,15.3153,15.3153,15.3153,15.292,15.1466,15.0327,14.9978,14.9478,14.9338,14.9338,14.9338,14.8931,14.8233,14.8117,14.8117,14.8233,14.878,14.9338,14.9338,14.9338,14.928,14.928,14.928,14.9338,14.9338,14.9338,14.9163,14.8931,14.9163,14.9187,14.8698,14.7976,14.7826,14.8524,14.8,14.8063,14.9319,14.9829,15.0075,15.0059,14.9398,14.8855,14.8788,14.8712,14.9034,14.9579,14.9642,14.9642,14.9642,14.9642,14.9547,14.9419,14.9323,14.9162,14.8709,14.8466,14.8913,14.8411,14.8084,14.7549,14.7096,14.6829,14.6709,14.6829,14.6794,14.6606,14.6382,14.6002,14.5752,14.5566,14.5885,14.6139,14.5592,14.5228,14.5319,14.309,14.3265,14.4926,14.5566,14.5799,14.7802,14.8698,14.8756,14.9978,15.0792,15.135,15.2106,15.2746,15.313,15.2222,15.1757,15.1815,15.1757,15.2048,15.2455,15.2455,15.2688,15.3095,15.3153,15.3153,15.3153,15.3153,15.3153,15.3153,15.3153,15.3153,15.3153,15.3153,15.3153,15.3153,15.3153,15.3153,15.3153,15.3153,15.292,15.2548,15.2455,15.2222,15.1699,14.9745,14.864,14.864,14.8175,14.7942,14.7942,14.7942,14.7453,14.6347,14.6173,14.594,14.5558,14.614,14.6779,14.7186,14.7244,14.7419,14.7826,14.7942,14.7918,14.7976,14.7976,14.7976,14.8034,14.8291,14.8059,14.7511,14.6873,14.6948,14.8032,14.7849,14.8017,14.9146,14.9455,14.9722,15.0168,14.9775,14.9181,14.9084,14.9066,14.9227,14.9579,14.9642,14.9642,14.9642,14.9642,14.9642,14.9642,14.9642,14.9375,14.8657,14.8298,14.8119,14.7373,14.6954,14.6475,14.6356,14.6176,14.5997,14.6145,14.6205,14.6049,14.6046,14.5702,14.5702,14.5488,14.5394,14.5384,14.4384,14.5261,14.5079,14.5392,14.5217,14.5334,14.5392,14.5741,14.7104,14.771,14.7942,14.8873,14.9978,15.0966,15.1175,15.1815,15.2629,15.0501,14.9362,14.9396,14.9512,15.0094,15.1083,15.1175,15.1815,15.3013,15.2978,15.292,15.2629,15.2629,15.2804,15.3013,15.313,15.3153,15.3153,15.3153,15.313,15.2978,15.292,15.3037,15.2746,15.2746,15.2339,15.1257,15.1024,15.0385,14.9163,14.8059,14.7453,14.7336,14.6206,14.5508,14.5508,14.545,14.4868,14.373,14.3614,14.3148,14.2069,14.1927,14.2418,14.3555,14.3788,14.4261,14.5226,14.5525,14.5458,14.5525,14.5525,14.5492,14.545,14.6515,14.629,14.4492,14.4575,14.5278,14.6333,14.6917,14.7217,14.7589,14.7589,14.7914,14.8524,14.8507,14.8585,14.9367,14.9555,14.9224,14.9164,14.9375,14.9256,14.9136,14.9256,14.9196,14.9196,14.9076,14.8598,14.6475,14.6415,14.6236,14.5757,14.5697,14.5578,14.5638,14.5638,14.5518,14.5458,14.5099,14.5099,14.5458,14.5427,14.5095,14.4944,14.4701,14.4761,14.4126,14.5183,14.5002,14.2218,14.152,14.2392,14.3879,14.5741,14.7884,14.8815,14.8839,14.9163,14.9454,14.9803,14.9803,15.0036,15.021,14.9629,14.9338,14.9338,14.9338,14.9478,14.9803,14.9769,15.0001,15.0327,15.0327,15.0327,15.0327,15.0385,15.085,15.1815,15.2688,15.3153,15.3153,15.3153,15.2688,15.1873,15.1757,15.135,15.0443,15.0327,15.021,14.9803,14.9023,14.7918,14.673,14.6231,14.6148,14.609,14.4868,14.417,14.417,14.3265,14.2592,14.2276,14.2243,14.2069,14.1752,14.1752,14.1927,14.2185,14.2276,14.2587,14.3366,14.3463,14.3431,14.349,14.3522,14.3295,14.2937,14.397,14.4547,14.3671,14.3773,14.4018,14.434,14.4559,14.5001,14.5566,14.5602,14.6271,14.762,14.7206,14.7005,14.7817,14.7521,14.7074,14.7042,14.7014,14.6894,14.6894,14.6954,14.6923,14.6894,14.6863,14.6475,14.5997,14.5578,14.5309,14.486,14.4321,14.3962,14.3155,14.3035,14.2975,14.3334,14.3095,14.3095,14.3454,14.3215,14.2915,14.2945,14.2855,14.2884,14.3334,14.3005,14.3005,14.1255,14.0647,14.1371,14.2625,14.4021,14.5591,14.6198,14.6256,14.6721,14.7244,14.7593,14.6605,14.6198,14.6198,14.6198,14.6488,14.6954,14.7012,14.7535,14.8524,14.8582,14.8873,14.928,14.9338,14.9338,14.9338,14.9338,14.9711,15.0443,15.1233,15.1582,15.1641,15.1548,15.1233,15.0501,15.0443,15.0094,14.9338,14.9338,14.8756,14.7768,14.658,14.5591,14.4868,14.4286,14.4021,14.3937,14.3265,14.2857,14.2767,14.2159,14.1487,14.0938,14.0938,14.0705,14.015,14.0092,14.0453,14.1266,14.1266,14.182,14.302,14.3052,14.3052,14.3052,14.3052,14.2188,14.0698,14.1325,14.2359,14.2799,14.3142,14.3536,14.4041,14.438,14.4754,14.5162,14.5284,14.5557,14.6621,14.6236,14.6176,14.6595,14.6236,14.5877,14.5817,14.5817,14.5937,14.5877,14.5817,14.5817,14.5697,14.48,14.4352,14.4172,14.4232,14.3873,14.3215,14.2676,14.2138,14.118,14.0761,14.0522,14.106,14.118,14.13,14.1599,14.1898,14.1898,14.2018,14.1958,14.1898,14.1898,14.1898,14.124,14.1604,14.1545,14.1604,14.1752,14.181,14.1869,14.1894,14.2043,14.2974,14.4079,14.4577,14.2683,14.1836,14.1662,14.1255,14.1694,14.2799,14.245,14.3614,14.5998,14.6464,14.722,14.8291,14.864,14.8815,14.864,14.8756,14.8873,14.9163,14.9222,14.9222,14.928,14.9338,14.928,14.9163,14.9163,14.9047,14.8931,14.8756,14.7511,14.5276,14.4079,14.3472,14.3439,14.2301,14.1752,14.1869,14.1604,14.1487,14.1371,14.1138,14.0589,13.9399,13.9225,13.8669,13.7591,13.7506,13.8255,13.9937,14.0238,14.0964,14.2799,14.2776,14.2717,14.2776,14.2898,14.1571,13.9327,13.9298,14.0513,14.1456,14.2311,14.304,14.3484,14.4217,14.5279,14.4948,14.5309,14.5398,14.5518,14.5338,14.5518,14.5549,14.5279,14.5279,14.5039,14.492,14.4979,14.4979,14.4979,14.4979,14.4381,14.3065,14.1629,14.1539,14.1539,14.1419,14.1419,14.0522,13.9983,13.9624,13.8876,13.8218,13.9564,13.9744,14.0043,14.0881,14.1539,14.136,14.0911,14.103,14.136,14.1479,14.13,14.1028,14.108,14.0298,14.1287,14.1752,14.1752,14.1752,14.1752,14.1752,14.1952,14.1171,13.9949,14.1138,14.1752,14.1255,13.7564,13.6517,13.713,13.3609,13.4218,13.8231,13.8611,14.0356,14.3232,14.4486,14.4893,14.501,14.594,14.6929,14.786,14.7884,14.8349,14.9222,14.9338,14.8815,14.7976,14.7942,14.7453,14.6381,14.4428,14.3174,14.2592,14.2334,14.2127,14.2127,14.1778,14.1752,14.1694,14.0705,13.9716,13.8728,13.7797,13.6781,13.5528,13.5412,13.5238,13.5005,13.4947,13.5341,13.6159,13.6679,13.7403,13.8335,13.8395,13.8395,13.8425,13.8817,13.9147,13.9475,13.9684,13.9982,14.0459,14.1416,14.1388,13.9655,14.0492,14.1539,14.136,14.124,14.1958,14.3813,14.3394,14.3244,14.3813,14.3454,14.2856,14.2796,14.2796,14.2796,14.2796,14.2796,14.1778,14.0252,13.9175,13.8876,13.8757,13.8846,13.8876,13.8697,13.8457,13.8338,13.8278,13.8098,13.8039,13.8098,13.8278,13.8606,13.8666,13.8905,13.9083,13.9498,13.9646,13.9201,13.9379,13.9379,13.9481,13.7797,13.7273,13.7971,13.8231,13.8231,13.8262,13.8231,13.8088,13.573,13.3869,13.2997,13.6575,13.8262,13.794,13.5354,13.5121,13.675,13.3958,13.4772,13.8405,13.858,13.9775,14.1662,14.245,14.2741,14.2799,14.3497,14.4195,14.486,14.5442,14.6115,14.6721,14.7336,14.7278,14.6672,14.6057,14.5359,14.4636,13.9865,13.7332,13.7273,13.4481,13.326,13.3783,13.3753,13.3551,13.2969,13.2271,13.108,12.9188,12.8461,12.8897,13.0438,13.0554,13.1659,13.3958,13.4132,13.4117,13.4051,13.5214,13.6318,13.721,13.7299,13.6584,13.4767,13.6011,13.729,13.8008,13.8666,13.9205,13.9923,14.0582,14.0641,13.9744,14.0342,14.0821,14.0881,14.0821,14.1419,14.2616,14.2317,14.1898,14.2078,14.1479,14.0821,14.0103,14.0043,14.0013,14.0013,14.0013,13.9475,13.8129,13.7799,13.7799,13.7859,13.7799,13.7799,13.7799,13.7321,13.6961,13.6902,13.6303,13.6303,13.6782,13.6902,13.7489,13.9277,13.9306,13.9879,14.042,14.0957,14.0928,14.0928,14.0957,14.127,13.4074,13.3842,13.4074,13.3609,13.2795,13.2939,13.262,13.1689,12.8024,12.6571,12.7211,13.2008,13.4132,13.4074,13.3318,13.4276,13.6401,13.573,13.7041,13.9801,13.9801,14.0208,14.0906,14.108,14.1255,14.1429,14.1604,14.1752,14.1836,14.2825,14.3381,14.3497,14.4519,14.5043,14.4985,14.3904,14.3032,14.2159,13.5649,13.2448,13.2855,12.7443,12.4622,12.4709,12.4855,12.3837,12.1945,12.2322,12.0984,11.7958,11.7958,11.9704,12.3458,12.3659,12.5988,13.0529,13.1055,13.109,13.1009,13.2861,13.4719,13.6517,13.7081,13.5377,13.1429,13.379,13.5645,13.5884,13.6902,13.8068,13.9235,13.9534,13.9863,14.0402,14.0821,14.1,14.0761,14.0761,14.0941,14.1479,14.1479,14.0821,14.0222,13.9863,13.9205,13.8218,13.8278,13.7979,13.8039,13.756,13.7321,13.7261,13.7261,13.7261,13.6961,13.7201,13.7021,13.7261,13.6243,13.5525,13.5226,13.4448,13.403,13.4807,13.4748,13.5883,13.8229,13.9765,14.0173,14.1644,14.2443,14.3068,14.3149,14.361,14.3363,13.3493,13.2623,13.3667,13.105,12.6222,12.7269,12.5321,12.1715,0.0,0.0,0.0,13.2736,13.4132,13.3842,12.9624,12.8577,12.9654,12.564,12.6222,13.0642,13.0671,13.2969,13.7072,13.8088,13.9077,14.0156,14.1229,14.1752,14.172,14.1985,14.2069,14.2069,14.2243,14.236,14.236,14.2127,14.0007,13.5936,13.3437,13.3698,13.6665,13.4803,13.1224,12.6106,12.6018,12.3402,11.8164,11.9909,11.8505,11.3255,11.3833,11.3508,11.1313,11.1464,11.2863,11.5508,11.6029,11.7791,12.1316,12.3011,12.603,13.1102,13.3371,13.1995,12.5898,13.0858,13.4688,13.5765,13.6064,13.6243,13.6572,13.7589,13.7469,13.5554,13.6332,13.6961,13.6961,13.6902,13.7888,13.9744,13.9235,13.8816,13.9564,13.8906,13.8039,13.7859,13.768,13.7799,13.756,13.6004,13.4896,13.4896,13.4987,13.4805,13.4685,13.4831,13.4597,13.494,13.4646,13.385,13.2984,13.2505,13.1999,13.194,13.1098,13.1756,13.2149,13.4202,13.5084,13.6604,13.8273,13.986,14.0988,14.2222,14.3022,12.9421,0.0,12.9624,12.7937,0.0,12.5786,12.2327,11.5958,11.7819,12.0785,12.4709,12.8519,13.0205,13.0031,12.753,12.7414,12.913,12.6687,12.7647,13.1224,13.1282,13.262,13.5121,13.5703,13.6285,13.6924,13.8294,13.8844,13.8902,14.0124,13.9458,13.6924,13.8204,13.7215,13.4102,13.5265,13.3085,12.7385,12.8548,12.9828,13.0875,12.7909,12.5117,12.2646,12.3111,0.0,0.0,0.0,0.0,0.0,0.0,0.0,0.0,0.0,0.0,10.9508,10.76,10.6631,10.7301,10.9744,11.3242,11.7714,11.9883,11.9285,11.5372,12.0507,12.4782,12.673,12.8737,13.1517,13.5346,13.6423,13.6543,13.6004,13.5913,13.5825,13.5765,13.5286,13.5494,13.6632,13.6842,13.6811,13.6871,13.729,13.7321,13.6124,13.6363,13.6602,13.5913,13.4716,13.3938,13.3938,13.3938,13.4097,13.4417,13.448,13.4663,13.5014,13.5099,13.4854,13.4302,13.4152,13.3995,13.3407,13.3162,13.3636,13.46,13.5641,13.6965,13.8678,13.996,14.0909,14.1528,14.2347,14.285,12.5611,12.4506,12.5786,12.503,12.3139,12.4623,12.1134,11.4388,11.3774,11.5926,12.0087,12.442,12.6338,12.6338,12.6338,12.753,12.9479,12.9479,13.0759,13.3027,13.2795,13.3027,13.3725,13.3493,13.3667,13.4191,13.5179,13.5734,13.5734,13.7712,13.6607,13.2709,13.4629,13.2678,12.7094,0.0,0.0,0.0,12.4681,12.6542,12.6105,12.2004,11.9649,11.9533,12.0289,0.0,11.7412,11.6508,11.4615,11.1407,10.9595,0.0,0.0,0.0,0.0,0.0,0.0,0.0,0.0,0.0,0.0,0.0,10.4367,10.4943,10.5982,11.0132,11.3351,11.4883,12.0421,12.5838,13.026,13.1365,13.2713,13.4807,13.379,13.3551,13.4987,13.3759,13.3101,13.352,13.4209,13.4537,13.4238,13.5466,13.5944,13.4417,13.4836,13.4987,13.4118,13.4394,13.4298,13.375,13.45,13.5043,13.5244,13.5291,13.5527,13.6068,13.6299,13.6111,13.5759,13.5746,13.5784,13.5269,13.557,13.5917,13.7548,13.8588,13.8974,14.1397,14.2029,14.2389,14.2126,14.2016,14.206,12.5611,12.4535,12.5844,12.3053,11.7989,12.0405,12.0812,11.9823,12.1801,12.3081,12.3779,12.5611,12.6338,12.6338,12.6338,12.6513,12.6804,12.6804,12.7647,12.8926,12.7879,12.9159,13.2301,13.1254,13.1952,13.4074,13.4307,13.4365,13.4365,13.4656,13.4481,13.39,13.4191,13.2241,12.8054,12.5087,12.2672,12.0812,12.5553,12.9624,13.2736,13.1138,12.7589,12.2469,12.1219,11.7962,11.232,11.2934,11.0851,10.5563,10.5903,10.5322,10.2993,9.9009,9.5361,0.0,8.8775,0.0,0.0,0.0,0.0,0.0,0.0,0.0,0.0,10.6281,10.6064,10.3035,11.5671,12.0661,11.2489,11.4967,11.937,12.4968,12.3592,12.4908,13.1489,13.0352,12.9722,13.1967,13.1369,13.1696,13.328,13.3192,13.3192,13.3819,13.3781,13.3232,13.3835,13.5043,13.5142,13.258,13.5379,13.6974,13.6227,13.6107,13.6147,13.6249,13.6349,13.5859,13.4962,13.4749,13.4297,13.3387,13.3369,13.3306,13.3228,13.4969,13.6566,13.8326,13.9956,14.0613,13.9671,13.9386,13.9123,12.3546,12.2383,12.2994,12.1192,11.7962,11.9125,12.0463,12.1771,12.215,12.3518,12.5437,12.4623,12.4302,12.4302,12.4302,12.4302,12.436,12.4972,12.596,12.7094,12.6629,12.7647,12.9944,12.8693,12.8723,12.9857,13.1282,13.198,13.2038,13.3434,13.2648,12.9857,13.0526,12.689,11.9398,11.932,12.087,12.3809,12.5379,12.8025,13.1748,13.0731,12.8694,12.5873,12.4506,12.2471,11.9622,11.8718,11.7112,11.4526,11.2835,11.0437,10.6943,9.7488,9.1331,0.0,0.0,0.0,0.0,0.0,0.0,0.0,0.0,0.0,0.0,0.0,9.4319,9.701,11.3518,12.0362,11.1376,11.4069,11.6104,11.5361,11.1687,11.2346,12.0208,11.9396,11.8762,11.9874,12.2063,12.4456,12.7056,12.921,13.1402,13.3658,12.9147,12.5639,12.5973,12.9316,13.1368,13.0027,13.3893,13.6953,13.64,13.664,13.7046,13.745,13.7538,13.7368,13.6811,13.6705,13.6534,13.5999,13.5806,13.5806,13.5829,13.6645,13.7336,13.81,13.8899,13.9276,13.8728,13.8575,13.8575,12.1161,11.9998,11.7264,11.6059,11.5868,11.5657,11.7461,12.0423,12.0371,12.2006,12.4769,12.2062,12.0371,11.9405,11.7097,11.7034,11.8842,11.9957,12.2262,12.5551,12.5552,12.6309,12.7763,12.6833,12.6338,12.6455,12.8083,12.9014,12.9305,12.977,12.788,12.398,12.4474,11.995,11.0904,11.417,11.8854,12.4591,12.4796,12.6309,12.913,12.8374,12.7821,12.7821,12.6542,12.5902,12.5815,12.3488,12.2062,12.1654,11.6879,11.2679,10.9178,9.5605,0.0,0.0,0.0,0.0,0.0,0.0,0.0,0.0,0.0,8.1392,6.9812,0.0,8.5923,0.0,10.9773,11.6952,11.1077,11.1675,0.0,0.0,10.1113,10.0218,10.8825,10.8812,10.8425,10.9241,11.3484,11.7241,11.949,12.3394,12.7526,13.1686,12.6588,12.1493,11.936,12.4547,12.8024,12.5976,12.9426,13.2842,13.1931,13.3861,13.6168,13.8225,13.8553,13.8575,13.8575,13.8575,13.8575,13.8575,13.8575,13.8575,13.8488,13.8575,13.8553,13.8575,13.8575,13.8575,13.8575,13.8575,13.8575,11.8982,11.7993,10.7434,10.4851,10.7511,10.6785,10.9487,11.4624,11.7568,11.9765,12.087,11.7148,11.3697,11.0119,10.1173,0.0,10.7851,10.8656,11.4261,12.3604,12.3187,12.4186,12.6484,12.6397,12.6338,12.6338,12.5321,12.5437,12.6425,12.1045,11.7568,11.6344,11.5208,11.2074,10.744,11.1489,11.5786,11.9925,12.4093,12.6338,12.6629,12.6513,12.6513,12.6513,12.5262,12.4593,12.4477,12.2178,12.0289,11.8951,11.1094,10.511,10.1662,0.0,0.0,0.0,0.0,0.0,0.0,0.0,0.0,0.0,0.0,0.0,0.0,0.0,0.0,0.0,10.2176,0.0,10.5047,9.9762,0.0,0.0,0.0,9.0379,10.1512,10.1857,10.2653,10.6097,0.0,0.0,11.2956,11.472,11.8879,12.6965,13.0313,12.8841,12.017,12.6302,12.9078,11.9695,12.1798,12.3333,12.2331,12.615,13.1643,13.656,13.8575,13.8268,13.8137,13.8334,13.8575,13.8575,13.8575,13.8575,13.8575,13.8575,13.8575,13.8575,13.8597,13.8531,13.8465,13.84,13.8334,10.8697,10.011,9.5792,9.5215,9.716,9.6791,9.9586,10.4443,10.5749,10.7028,10.8103,10.5804,10.3226,10.0329,9.5674,0.0,0.0,0.0,10.456,11.2825,11.4948,11.8877,12.3982,12.4855,12.4826,12.4128,12.4302,12.4651,12.5146,12.3402,11.3438,9.5749,0.0,0.0,9.6464,10.3846,11.1113,11.8081,12.3541,12.6338,12.6338,12.6338,12.596,12.5204,12.3953,12.3342,12.3342,12.1627,11.8043,11.2285,10.7252,10.0388,0.0,0.0,0.0,0.0,0.0,0.0,0.0,0.0,0.0,0.0,0.0,7.1726,6.371,0.0,0.0,0.0,8.393,8.502,8.7199,9.3704,0.0,0.0,0.0,0.0,0.0,0.0,0.0,9.3685,10.1821,10.8354,11.1187,11.0345,11.0643,11.4016,11.3551,11.1811,10.8954,0.0,11.9496,11.9645,12.1056,12.2847,12.4859,12.2724,12.2357,12.7374,13.0904,13.2943,13.2372,13.5835,13.8444,13.8575,13.8575,13.8575,13.8575,13.8575,13.8575,13.8575,13.7961,13.7304,13.7325,13.6646,13.6033,9.5829,0.0,0.0,0.0,0.0,8.722,9.0002,9.4697,9.4901,9.5672,9.6719,9.4379,0.0,0.0,0.0,0.0,0.0,0.0,9.6631,10.3587,10.9851,11.5526,12.0539,12.1472,12.1646,12.1033,11.9751,11.8613,11.7644,11.7039,10.47,8.1685,0.0,0.0,0.0,0.0,10.5344,11.3673,12.1352,12.5349,12.5291,12.5262,12.4884,12.3923,12.3109,12.2672,12.2613,11.9002,11.3775,10.6824,10.0054,0.0,0.0,0.0,0.0,0.0,0.0,0.0,0.0,0.0,0.0,0.0,0.0,0.0,0.0,0.0,0.0,0.0,0.0,0.0,7.6541,8.7722,9.0975,0.0,0.0,0.0,0.0,0.0,0.0,0.0,0.0,0.0,10.5652,10.6958,10.8141,0.0,0.0,10.7152,10.3948,10.929,11.3894,11.488,11.4372,0.0,11.9333,11.5238,11.317,11.7444,12.3692,12.7354,12.5599,12.9149,13.2088,13.1102,13.3469,13.4739,13.2943,13.1759,13.097,13.1102,13.0333,12.963,12.963,12.9564,12.9195,0.0,0.0,0.0,0.0,0.0,0.0,0.0,0.0,8.6983,8.7848,0.0,8.3874,0.0,0.0,0.0,0.0,0.0,8.4506,0.0,0.0,10.9472,11.5527,11.5482,11.5709,11.647,11.7028,11.0026,10.4807,10.1173,9.6245,0.0,0.0,0.0,0.0,0.0,0.0,9.841,10.5253,11.6817,12.2788,12.2818,12.2818,12.2788,12.2702,12.2672,12.2555,12.2234,11.3211,10.6824,10.3763,8.7946,0.0,0.0,0.0,0.0,0.0,0.0,0.0,0.0,0.0,0.0,0.0,0.0,0.0,0.0,0.0,0.0,0.0,0.0,0.0,0.0,8.0826,0.0,0.0,0.0,0.0,0.0,0.0,0.0,0.0,0.0,0.0,9.4105,10.4293,11.3314,11.5925,0.0,0.0,0.0,0.0,11.5998,10.2879,9.8096,9.6665,9.6978,10.112,10.5789,11.0014,0.0,0.0,11.9793,11.8365,11.705,11.4109,12.1804,12.5816,11.8694,11.5358,11.3846,11.3732,11.3947,11.3469,11.3583,11.5921,11.7481,0.0,0.0,0.0,0.0,0.0,0.0,0.0,0.0,0.0,7.3296,0.0,7.1008,0.0,0.0,0.0,0.0,0.0,0.0,0.0,0.0,9.1839,9.777,10.0866,10.5159,10.5593,0.0,9.9995,9.2246,0.0,0.0,0.0,0.0,0.0,0.0,0.0,0.0,9.7396,10.3594,11.6058,12.2672,12.2672,12.2672,12.2672,12.2672,12.2672,11.9203,11.1869,10.5344,9.8418,0.0,0.0,0.0,0.0,0.0,0.0,0.0,0.0,0.0,0.0,0.0,0.0,0.0,0.0,0.0,0.0,0.0,0.0,0.0,0.0,0.0,0.0,0.0,8.17,0.0,0.0,0.0,0.0,0.0,0.0,0.0,0.0,0.0,8.9069,9.5493,10.2842,11.0536,11.15,11.21,11.3613,0.0,0.0,0.0,0.0,0.0,0.0,0.0,9.9903,10.0479,9.8359,9.8703,10.5263,11.0606,11.3714,11.2728,0.0,0.0,10.1377,10.1738,10.4341,10.4404,10.5262,10.5658,10.4717,10.612,10.7127,0.0,0.0,0.0,0.0,0.0,0.0,0.0,0.0,0.0,6.3109,6.2007,0.0,0.0,0.0,0.0,0.0,0.0,0.0,0.0,0.0,0.0,0.0,8.9339,9.3209,0.0,0.0,0.0,0.0,0.0,0.0,0.0,0.0,0.0,0.0,0.0,0.0,9.6798,10.2238,11.5566,12.2672,12.2672,12.2672,12.2672,12.2672,12.2264,11.7075,10.6683,0.0,0.0,0.0,0.0,0.0,0.0,0.0,0.0,0.0,0.0,0.0,0.0,0.0,0.0,0.0,0.0,0.0,0.0,0.0,0.0,0.0,0.0,0.0,0.0,0.0,7.6756,0.0,0.0,0.0,0.0,0.0,0.0,0.0,0.0,0.0,0.0,0.0,9.4366,10.2409,10.5494,10.8784,11.3911,11.4683,11.705,0.0,0.0,0.0,0.0,0.0,0.0,0.0,0.0,0.0,0.0,0.0,0.0,0.0,0.0,9.994,8.7168,8.7921,9.0379,9.0055,0.0,0.0,0.0,0.0,0.0,0.0,0.0,0.0,0.0,0.0,0.0,0.0,0.0,0.0,0.0,0.0,0.0,0.0,5.7118,0.0,0.0,0.0,0.0,0.0,0.0,0.0,0.0,0.0,0.0,0.0,0.0,0.0,0.0,0.0,0.0,0.0,0.0,0.0,0.0,0.0,0.0,9.6499,10.0616,11.5385,12.2868,12.2784,12.2756,12.2784,12.2613,12.1305,11.6403,10.7622,0.0,0.0,0.0,0.0,0.0,0.0,0.0,0.0,0.0,0.0,0.0,0.0,0.0,0.0,0.0,0.0,0.0,0.0,0.0,0.0,0.0,0.0,0.0,0.0,0.0,0.0,6.5115,6.9967,7.5496,0.0,0.0,0.0,0.0,0.0,0.0,0.0,0.0,0.0,0.0,10.6912,11.5198,11.1298,11.0671,11.2052,11.4844,10.5805,10.0692,10.7613,10.7318,10.4243,0.0,0.0,0.0,0.0,0.0,0.0,0.0,0.0,0.0,0.0,0.0,0.0,0.0,0.0,0.0,0.0,0.0,0.0,0.0,0.0,0.0,0.0,0.0,0.0,0.0,0.0,0.0,0.0,0.0,0.0,0.0,0.0,0.0,0.0,0.0,0.0,0.0,0.0,0.0,0.0,0.0,0.0,0.0,0.0,0.0,0.0,0.0,0.0,0.0,0.0,0.0,0.0,0.0,0.0,9.8888,10.1342,11.8336,12.6393,12.4866,12.4839,12.4133,12.2581,11.8115,11.1514,0.0,0.0,0.0,0.0,0.0,0.0,0.0,0.0,0.0,0.0,0.0,0.0,0.0,0.0,0.0,0.0,0.0,0.0,0.0,0.0,0.0,0.0,0.0,0.0,0.0,0.0,0.0,0.0,8.3908,8.3394,7.7292,0.0,0.0,0.0,0.0,0.0,0.0,0.0,0.0,0.0,0.0,10.8644,11.4341,11.518,11.6114,11.8929,11.6539,11.33,11.0228,11.1987,10.9571,9.7783,0.0,0.0,0.0,0.0,0.0,0.0,0.0,0.0,0.0,0.0,0.0,0.0,0.0,0.0,0.0,0.0,0.0,0.0,0.0,0.0,0.0,0.0,0.0,0.0,0.0,0.0,0.0,0.0,0.0,0.0,0.0,0.0,0.0,0.0,0.0,0.0,0.0,0.0,0.0,0.0,0.0,0.0,0.0,0.0,0.0,0.0,0.0,0.0,0.0,0.0,0.0,0.0,0.0,9.9927,10.1808,11.9682,12.8431,12.7101,12.7022,12.642,12.517,11.7972,10.9363,0.0,0.0,0.0,0.0,0.0,0.0,0.0,0.0,0.0,0.0,0.0,0.0,0.0,0.0,0.0,0.0,0.0,0.0,0.0,0.0,0.0,0.0,0.0,0.0,0.0,0.0,0.0,0.0,7.919,7.9949,7.2751,0.0,0.0,0.0,0.0,0.0,0.0,0.0,0.0,0.0,0.0,10.2546,10.9584,11.0677,0.0,0.0,11.7468,11.5366,11.3977,11.7379,11.4766,9.8827,9.3311,0.0,0.0,0.0,0.0,0.0,0.0,0.0,0.0,0.0,0.0,0.0,0.0,0.0,0.0,0.0,0.0,0.0,0.0,0.0,0.0,0.0,0.0,0.0,0.0,0.0,0.0,0.0,0.0,0.0,0.0,0.0,0.0,0.0,0.0,0.0,0.0,0.0,0.0,0.0,0.0,0.0,0.0,0.0,0.0,0.0,0.0,0.0,0.0,0.0,0.0,0.0,0.0,0.0,10.214,12.0017,12.9482,12.9278,12.9304,12.9227,12.8926,11.9563,10.9081,0.0,0.0,0.0,0.0,0.0,0.0,0.0,0.0,0.0,0.0,0.0,0.0,0.0,0.0,0.0,0.0,0.0,0.0,0.0,0.0,0.0,0.0,0.0,0.0,0.0,0.0,0.0,0.0,0.0,0.0,0.0,0.0,0.0,0.0,0.0,0.0,0.0,0.0,0.0,0.0,0.0,9.7025,9.938,9.9742,10.3532,0.0,0.0,10.8544,11.5939,12.1165,11.8298,9.9917,0.0,0.0,0.0,0.0,0.0,0.0,0.0,0.0,0.0,0.0,0.0,0.0,0.0,0.0,0.0,0.0,0.0,0.0,0.0,0.0,0.0,0.0,0.0,0.0,0.0,0.0,0.0,0.0,0.0,0.0,0.0,0.0,0.0,0.0,0.0,0.0,0.0,0.0,0.0,0.0,0.0,0.0,0.0,0.0,0.0,0.0,0.0,0.0,0.0,0.0,0.0,0.0,0.0,0.0,10.2579,12.3231,13.3245,13.1611,13.1537,13.0768,12.8941,11.6455,0.0,0.0,0.0,0.0,0.0,0.0,0.0,0.0,0.0,0.0,0.0,0.0,0.0,0.0,0.0,0.0,0.0,0.0,0.0,0.0,0.0,0.0,0.0,0.0,0.0,0.0,0.0,5.204,0.0,0.0,0.0,0.0,0.0,0.0,0.0,0.0,0.0,0.0,0.0,0.0,0.0,0.0,9.3055,9.6892,9.4688,9.5054,0.0,0.0,9.9436,9.7193,10.678,10.8561,0.0,0.0,0.0,0.0,0.0,0.0,0.0,0.0,0.0,0.0,0.0,0.0,0.0,0.0,0.0,0.0,0.0,0.0,0.0,0.0,0.0,0.0,0.0,0.0,0.0,0.0,0.0,0.0,0.0,0.0,0.0,0.0,0.0,0.0,0.0,0.0,0.0,0.0,0.0,0.0,0.0,0.0,0.0,0.0,0.0,0.0,0.0,0.0,0.0,0.0,0.0,0.0,0.0,0.0,9.703,10.2835,11.9685,13.0229,13.3588,13.3159,13.2271,13.1003,11.6307,10.506,0.0,0.0,0.0,0.0,0.0,0.0,0.0,0.0,0.0,0.0,0.0,0.0,0.0,0.0,0.0,0.0,0.0,0.0,0.0,0.0,0.0,0.0,0.0,0.0,0.0,0.0,0.0,0.0,0.0,0.0,0.0,0.0,0.0,0.0,0.0,0.0,0.0,0.0,0.0,0.0,0.0,0.0,9.2297,8.9605,0.0,0.0,0.0,9.5736,9.3578,0.0,0.0,0.0,0.0,0.0,0.0,0.0,0.0,0.0,0.0,0.0,0.0,0.0,0.0,0.0,0.0,0.0,0.0,0.0,0.0,0.0,0.0,0.0,0.0,0.0,0.0,0.0,0.0,0.0,0.0,0.0,0.0,0.0,0.0,0.0,0.0,0.0,0.0,0.0,0.0,0.0,0.0,0.0,0.0,0.0,0.0,0.0,0.0,0.0,0.0,0.0,0.0,0.0,0.0,0.0,0.0,0.0,10.2074,11.3554,12.4533,13.4541,13.3938,13.3317,13.3101,11.8307,10.6701,0.0,0.0,0.0,0.0,0.0,0.0,0.0,0.0,0.0,0.0,0.0,0.0,0.0,0.0,0.0,0.0,0.0,0.0,0.0,0.0,0.0,0.0,0.0,0.0,0.0,0.0,0.0,0.0,0.0,0.0,0.0,0.0,0.0,0.0,0.0,0.0,0.0,0.0,0.0,0.0,0.0,8.5306,8.7005,8.4613,8.2575,0.0,0.0,9.2866,9.5513,9.9062,0.0,0.0,0.0,0.0,0.0,0.0,0.0,0.0,0.0,0.0,0.0,0.0,0.0,0.0,0.0,0.0,0.0,0.0,0.0,0.0,0.0,0.0,0.0,0.0,0.0,0.0,0.0,0.0,0.0,0.0,0.0,0.0,0.0,0.0,0.0,0.0,0.0,0.0,0.0,0.0,0.0,0.0,0.0,0.0,0.0,0.0,0.0,0.0,0.0,0.0,0.0,0.0,0.0,0.0,0.0,0.0,10.081,11.4045,12.4597,13.1855,13.1961,13.1833,13.1617,12.2273,11.1752,0.0,0.0,0.0,0.0,0.0,0.0,0.0,0.0,0.0,0.0,0.0,0.0,0.0,0.0,0.0,0.0,0.0,0.0,0.0,0.0,0.0,0.0,0.0,0.0,0.0,0.0,0.0,0.0,0.0,0.0,0.0,0.0,0.0,0.0,0.0,0.0,0.0,0.0,0.0,0.0,0.0,8.0315,8.4133,8.0126,0.0,0.0,0.0,0.0,8.1141,8.195,0.0,0.0,0.0,0.0,0.0,0.0,0.0,0.0,0.0,0.0,0.0,0.0,0.0,0.0,0.0,0.0,0.0,0.0,0.0,0.0,0.0,0.0,0.0,0.0,0.0,0.0,0.0,0.0,0.0,0.0,0.0,0.0,0.0,0.0,0.0,0.0,0.0,0.0,0.0,0.0,0.0,0.0,0.0,0.0,0.0,0.0,0.0,0.0,0.0,0.0,0.0,0.0,0.0,0.0,0.0,0.0,10.1882,10.9635,11.9209,13.0867,13.0738,13.0352,13.0201,12.2399,11.1962,0.0,0.0,0.0,0.0,0.0,0.0,0.0,0.0,0.0,0.0,0.0,0.0,0.0,0.0,0.0,0.0,0.0,0.0,0.0,0.0,0.0,0.0,0.0,0.0,0.0,0.0,0.0,0.0,0.0,0.0,0.0,0.0,0.0,0.0,0.0,0.0,0.0,0.0,0.0,0.0,7.4476,7.6307,8.0195,0.0,0.0,0.0,0.0,0.0,0.0,7.73,7.5649,0.0,0.0,0.0,0.0,0.0,0.0,0.0,0.0,0.0,0.0,0.0,0.0,0.0,0.0,0.0,0.0,0.0,0.0,0.0,0.0,0.0,0.0,0.0,0.0,0.0,0.0,0.0,0.0,0.0,0.0,0.0,0.0,0.0,0.0,0.0,0.0,0.0,0.0,0.0,0.0,0.0,0.0,0.0,0.0,0.0,0.0,0.0,0.0,0.0,0.0,0.0,0.0,0.0,0.0,0.0,10.135,10.3508,11.2438,12.8509,12.8894,12.8872,12.87,12.1004,11.0262,9.677,0.0,0.0,0.0,0.0,0.0,0.0,0.0,0.0,0.0,0.0,0.0,0.0,0.0,0.0,0.0,0.0,0.0,0.0,0.0,0.0,0.0,0.0,0.0,0.0,0.0,0.0,0.0,0.0,0.0,0.0,0.0,0.0,0.0,0.0,0.0,0.0,0.0,0.0,0.0,7.1759,7.2565,0.0,0.0,0.0,0.0,0.0,0.0,0.0,0.0,7.4048,0.0,0.0,0.0,0.0,0.0,0.0,0.0,0.0,0.0,0.0,0.0,0.0,0.0,0.0,0.0,0.0,0.0,0.0,0.0,0.0,0.0,0.0,0.0,0.0,0.0,0.0,0.0,0.0,0.0,0.0,0.0,0.0,0.0,0.0,0.0,0.0,0.0,0.0,0.0,0.0,0.0,0.0,0.0,0.0,0.0,0.0,0.0,0.0,0.0,0.0,0.0,0.0,0.0,0.0,0.0,0.0,9.8183,10.8245,11.8866,12.4643,12.7455,12.7327,11.95,10.8667,9.4977,0.0,0.0,0.0,0.0,0.0,0.0,0.0,0.0,0.0,0.0,0.0,0.0,0.0,0.0,0.0,0.0,0.0,0.0,0.0,0.0,0.0,0.0,0.0,0.0,0.0,0.0,0.0,0.0,0.0,0.0,0.0,0.0,0.0,0.0,0.0,0.0,0.0,0.0,5.987,6.4209,0.0,0.0,0.0,0.0,0.0,0.0,0.0,0.0,6.9601,0.0,0.0,0.0,0.0,0.0,0.0,0.0,0.0,0.0,0.0,0.0,0.0,0.0,0.0,0.0,0.0,0.0,0.0,0.0,0.0,0.0,0.0,0.0,0.0,0.0,0.0,0.0,0.0,0.0,0.0,0.0,0.0,0.0,0.0,0.0,0.0,0.0,0.0,0.0,0.0,0.0,0.0,0.0,0.0,0.0,0.0,0.0,0.0,0.0,0.0,0.0,0.0,0.0,0.0,0.0,0.0,0.0,0.0,10.5022,11.4531,12.0688,12.385,12.3399,11.1603,10.0839,0.0,0.0,0.0,0.0,0.0,0.0,0.0,0.0,0.0,0.0,0.0,0.0,0.0,0.0,0.0,0.0,0.0,0.0,0.0,0.0,0.0,0.0,0.0,0.0,0.0,0.0,0.0,0.0,0.0,0.0,0.0,0.0,0.0,0.0,0.0,0.0,0.0,0.0,0.0,0.0,0.0,0.0,0.0,0.0,0.0,0.0,0.0,0.0,0.0,0.0,0.0,0.0,0.0,0.0,0.0,0.0,0.0,0.0,0.0,0.0,0.0,0.0,0.0,0.0,0.0,0.0,0.0,0.0,0.0,0.0,0.0,0.0,0.0,0.0,0.0,0.0,0.0,0.0,0.0,0.0,0.0,0.0,0.0,0.0,0.0,0.0,0.0,0.0,0.0,0.0,0.0,0.0,0.0,0.0,0.0,0.0,0.0,0.0,0.0,0.0,0.0,0.0,0.0,0.0,0.0,0.0,0.0,0.0,10.1262,10.9951,11.6557,12.0006,11.9897,10.3786,9.2641,0.0,0.0,0.0,0.0,0.0,0.0,0.0,0.0,0.0,0.0,0.0,0.0,0.0,0.0,0.0,0.0,0.0,0.0,0.0,0.0,0.0,0.0,0.0,0.0,0.0,0.0,0.0,0.0,0.0,0.0,0.0,0.0,0.0,0.0,0.0,0.0,0.0,0.0,0.0,0.0,0.0,0.0,0.0,0.0,0.0,0.0,0.0,0.0,6.5578,0.0,0.0,0.0,0.0,0.0,0.0,0.0,0.0,0.0,0.0,0.0,0.0,0.0,0.0,0.0,0.0,0.0,0.0,0.0,0.0,0.0,0.0,0.0,0.0,0.0,0.0,0.0,0.0,0.0,0.0,0.0,0.0,0.0,0.0,0.0,0.0,0.0,0.0,0.0,0.0,0.0,0.0,0.0,0.0,0.0,0.0,0.0,0.0,0.0,0.0,0.0,0.0,0.0,0.0,0.0,0.0,0.0,0.0,0.0,9.5619,10.1721,11.1749,11.7067,11.6592,10.0131,8.7681,0.0,0.0,0.0,0.0,0.0,0.0,0.0,0.0,0.0,0.0,0.0,0.0,0.0,0.0,0.0,0.0,0.0,0.0,0.0,0.0,0.0,0.0,0.0,0.0,0.0,0.0,0.0,0.0,0.0,0.0,0.0,0.0,0.0,0.0,0.0,0.0,0.0,0.0,0.0,0.0,0.0,0.0,0.0,0.0,0.0,0.0,0.0,0.0,0.0,0.0,0.0,0.0,0.0,0.0,0.0,0.0,0.0,0.0,0.0,0.0,0.0,0.0,0.0,0.0,0.0,0.0,0.0,0.0,0.0,0.0,0.0,0.0,0.0,0.0,0.0,0.0,0.0,0.0,0.0,0.0,0.0,0.0,0.0,0.0,0.0,0.0,0.0,0.0,0.0,0.0,0.0,0.0,0.0,0.0,0.0,0.0,0.0,0.0,0.0,0.0,0.0,0.0,0.0,0.0,0.0,0.0,0.0,0.0,8.8314,9.5801,10.4166,10.6124,10.1203,9.0049,8.144,0.0,0.0,0.0,0.0,0.0,0.0,0.0,0.0,0.0,0.0,0.0,0.0,0.0,0.0,0.0,0.0,0.0,0.0,0.0,0.0,0.0,0.0,0.0,0.0,0.0,0.0,0.0,0.0,0.0,0.0,0.0,0.0,0.0,0.0,0.0,0.0,0.0,0.0,0.0,0.0,0.0,0.0,0.0,0.0,0.0,0.0,0.0,0.0,0.0,0.0,0.0,0.0,0.0,0.0,0.0,0.0,0.0,0.0,0.0,0.0,0.0,0.0,0.0,0.0,0.0,0.0,0.0,0.0,0.0,0.0,0.0,0.0,0.0,0.0,0.0,0.0,0.0,0.0,0.0,0.0,0.0,0.0,0.0,0.0,0.0,0.0,0.0,0.0,0.0,0.0,0.0,0.0,0.0,0.0,0.0,0.0,0.0,0.0,0.0,0.0,0.0,0.0,0.0,0.0,0.0,0.0,0.0,0.0,0.0,8.8965,9.4805,9.4482,8.7467,8.1231,7.5607,0.0,0.0,0.0,0.0,0.0,0.0,0.0,0.0,0.0,0.0,0.0,0.0,0.0,0.0,0.0,0.0,0.0,0.0,0.0,0.0,0.0,0.0,0.0,0.0,0.0,0.0,0.0,0.0,0.0,0.0,0.0,0.0,0.0,0.0,0.0,0.0,0.0,0.0,0.0,0.0,0.0,0.0,0.0,0.0,0.0,0.0,0.0,0.0,0.0,0.0,0.0,0.0,0.0,0.0,0.0,0.0,0.0,0.0,0.0,0.0,0.0,0.0,0.0,0.0,0.0,0.0,0.0,0.0,0.0,0.0,0.0,0.0,0.0,0.0,0.0,0.0,0.0,0.0,0.0,0.0,0.0,0.0,0.0,0.0,0.0,0.0,0.0,0.0,0.0,0.0,0.0,0.0,0.0,0.0,0.0,0.0,0.0,0.0,0.0,0.0,0.0,0.0,0.0,0.0,0.0,0.0,0.0,0.0,0.0,8.0173,8.3577,8.3867,8.0609,7.6285,7.0668,0.0,0.0,0.0,0.0,0.0,0.0,0.0,0.0,0.0,0.0,0.0,0.0,0.0,0.0,0.0,0.0,0.0,0.0,0.0,0.0,0.0,0.0,0.0,0.0,0.0,0.0,0.0,0.0,0.0,0.0,0.0,0.0,0.0,0.0,0.0,0.0,0.0,0.0,0.0,0.0,0.0,0.0,0.0,0.0,0.0,0.0,0.0,0.0,0.0,0.0,0.0,0.0,0.0,0.0,0.0,0.0,0.0,0.0,0.0,0.0,0.0,0.0,0.0,0.0,0.0,0.0,0.0,0.0,0.0,0.0,0.0,0.0,0.0,0.0,0.0,0.0,0.0,0.0,0.0,0.0,0.0,0.0,0.0,0.0,0.0,0.0,0.0,0.0,0.0,0.0,0.0,0.0,0.0,0.0,0.0,0.0,0.0,0.0,0.0,0.0,0.0,0.0,0.0,0.0,0.0,0.0,0.0,0.0,0.0,6.9539,7.3106,7.449,7.3309,6.9123,6.5111,6.1513,0.0,0.0,0.0,0.0,0.0,0.0,0.0,0.0,0.0,0.0,0.0,0.0,0.0,0.0,0.0,0.0,0.0,0.0,0.0,0.0,0.0,0.0,0.0,0.0,0.0,0.0,0.0,0.0,0.0,0.0,0.0,0.0,0.0,0.0,0.0,0.0,0.0,0.0,0.0,0.0,0.0,0.0,0.0,0.0,0.0,0.0,0.0,0.0,0.0,0.0,0.0,0.0,0.0,0.0,0.0,0.0,0.0,0.0,0.0,0.0,0.0,0.0,0.0,0.0,0.0,0.0,0.0,0.0,0.0,0.0,0.0,0.0,0.0,0.0,0.0,0.0,0.0,0.0,0.0,0.0,0.0,0.0,0.0,0.0,0.0,0.0,0.0,0.0,0.0,0.0,0.0,0.0,0.0,0.0,0.0,0.0,0.0,0.0,0.0,0.0,0.0,0.0,0.0,0.0,0.0,0.0,0.0,0.0,6.4467,6.8205,6.9714,6.8509,6.5232,6.2151,0.0,0.0,0.0,0.0,0.0,0.0,0.0,0.0,0.0,0.0,0.0,0.0,0.0,0.0,0.0,0.0,0.0,0.0,0.0,0.0,0.0,0.0,0.0,0.0,0.0,0.0,0.0,0.0,0.0,0.0,0.0,0.0,0.0,0.0,0.0,0.0,0.0,0.0,0.0,0.0,0.0,0.0,0.0,0.0,0.0,0.0,0.0,0.0,0.0,0.0,0.0,0.0,0.0,0.0,0.0,0.0,0.0,0.0,0.0,0.0,0.0,0.0,0.0,0.0,0.0,0.0,0.0,0.0,0.0,0.0,0.0,0.0,0.0,0.0,0.0,0.0,0.0,0.0,0.0,0.0,0.0,0.0,0.0,0.0,0.0,0.0,0.0,0.0,0.0,0.0,0.0,0.0,0.0,0.0,0.0,0.0,0.0,0.0,0.0,0.0,0.0,0.0,0.0,0.0,0.0,0.0,0.0,0.0,6.3191,6.6808,6.9889,6.9878,6.7182,6.543,6.2086,0.0,0.0,0.0,0.0,0.0,0.0,0.0,0.0,0.0,0.0,0.0,0.0,0.0,0.0,0.0,0.0,0.0,0.0,0.0,0.0,0.0,0.0,0.0,0.0,0.0,0.0,0.0,0.0,0.0,0.0,0.0,0.0,0.0,0.0,0.0,0.0,0.0,0.0,0.0,0.0,0.0,0.0,0.0,0.0,0.0,0.0,0.0,0.0,0.0,0.0,0.0,0.0,0.0,0.0,0.0,0.0,0.0,0.0,0.0,0.0,0.0,0.0,0.0,0.0,0.0,0.0,0.0,0.0,0.0,0.0,0.0,0.0,0.0,0.0,0.0,0.0,0.0,0.0,0.0,0.0,0.0,0.0,0.0,0.0,0.0,0.0,0.0,0.0,0.0,0.0,0.0,0.0,0.0,0.0,0.0,0.0,0.0,0.0,0.0,0.0,0.0,0.0,0.0,0.0,0.0,0.0,0.0,0.0,0.0,6.348,0.0,6.5597,0.0,6.2225,5.884,0.0,0.0,0.0,0.0,0.0,0.0,0.0,0.0,0.0,0.0,0.0,0.0,0.0,0.0,0.0,0.0,0.0,0.0,0.0,0.0,0.0,0.0,0.0,0.0,0.0,0.0,0.0,0.0,0.0,0.0,0.0,0.0,0.0,0.0,0.0,0.0,0.0,0.0,0.0,0.0,0.0,0.0,0.0,0.0,0.0,0.0,0.0,0.0,0.0,0.0,0.0,0.0,0.0,0.0,0.0,0.0,0.0,0.0,0.0,0.0,0.0,0.0,0.0,0.0,0.0,0.0,0.0,0.0,0.0,0.0,0.0,0.0,0.0,0.0,0.0,0.0,0.0,0.0,0.0,0.0,0.0,0.0,0.0,0.0,0.0,0.0,0.0,0.0,0.0,0.0,0.0,0.0,0.0,0.0,0.0,0.0,0.0,0.0,0.0,0.0,0.0,0.0,0.0,0.0,0.0,0.0,0.0,0.0,0.0,6.2524,6.2214,6.3346,0.0,6.2038,5.9157,0.0,0.0,0.0,0.0,0.0,0.0,0.0,0.0,0.0,0.0,0.0,0.0,0.0,0.0,0.0,0.0,0.0,0.0,0.0,0.0,0.0,0.0,0.0,0.0,0.0,0.0,0.0,0.0,0.0,0.0,0.0,0.0,0.0,0.0,0.0,0.0,0.0,0.0,0.0,0.0,0.0,0.0,0.0,0.0,0.0,0.0,0.0,0.0,0.0,0.0,0.0,0.0,0.0,0.0,0.0,0.0,0.0,0.0,0.0,0.0,0.0,0.0,0.0,0.0,0.0,0.0,0.0,0.0,0.0,0.0,0.0,0.0,0.0,0.0,0.0,0.0,0.0,0.0,0.0,0.0,0.0,0.0,0.0,0.0,0.0,0.0,0.0,0.0,0.0,0.0,0.0,0.0,0.0,0.0,0.0,0.0,0.0,0.0,0.0,0.0,0.0,0.0,0.0,0.0,0.0,0.0,0.0,0.0,0.0,0.0,6.3499,6.3356,6.3356,6.4365,6.2368,0.0,0.0,0.0,0.0,0.0,0.0,0.0,0.0,0.0,0.0,0.0,0.0,0.0,0.0,0.0,0.0,0.0,0.0,0.0,0.0,0.0,0.0,0.0,0.0,0.0,0.0,0.0,0.0,0.0,0.0,0.0,0.0,0.0,0.0,0.0,0.0,0.0,0.0,0.0,0.0,0.0,0.0,0.0,0.0,0.0,0.0,0.0,0.0,0.0,0.0,0.0,0.0,0.0,0.0,0.0,0.0,0.0,0.0,0.0,0.0,0.0,0.0,0.0,0.0,0.0,0.0,0.0,0.0,0.0,0.0,0.0,0.0,0.0,0.0,0.0,0.0,0.0,0.0,0.0,0.0,0.0,0.0,0.0,0.0,0.0,0.0,0.0,0.0,0.0,0.0,0.0,0.0,0.0,0.0,0.0,0.0,0.0,0.0,0.0,0.0,0.0,0.0,0.0,0.0,0.0,0.0,0.0,0.0,0.0,0.0,6.3322,0.0,6.1957,6.0295,5.9146,5.8542,0.0,0.0,0.0,0.0,0.0,0.0,0.0,0.0,0.0,0.0,0.0,0.0,0.0,0.0,0.0,0.0,0.0,0.0,0.0,0.0,0.0,0.0,0.0,0.0,0.0,0.0,0.0,0.0,0.0,0.0,0.0,0.0,0.0,0.0,0.0,0.0,0.0,0.0,0.0,0.0,0.0,0.0,0.0,0.0,0.0,0.0,0.0,0.0,0.0,0.0,0.0,0.0,0.0,0.0,0.0,0.0,0.0,0.0,0.0,0.0,0.0,0.0,0.0,0.0,0.0,0.0,0.0,0.0,0.0,0.0,0.0,0.0,0.0,0.0,0.0,0.0,0.0,0.0,0.0,0.0,0.0,0.0,0.0,0.0,0.0,0.0,0.0,0.0,0.0,0.0,0.0,0.0,0.0,0.0,0.0,0.0,0.0,0.0,0.0,0.0,0.0,0.0,0.0,0.0,0.0,0.0,0.0,0.0,0.0,0.0,0.0,6.1634,5.9963,5.8884,0.0,0.0,0.0,0.0,0.0,0.0,0.0,0.0,0.0,0.0,0.0,0.0,0.0,0.0,0.0,0.0,0.0,0.0,0.0,0.0,0.0,0.0,0.0,0.0,0.0,0.0,0.0,0.0,0.0,0.0,0.0,0.0,0.0,0.0,0.0,0.0,0.0,0.0,0.0,0.0,0.0,0.0,0.0,0.0,0.0,0.0,0.0,0.0,0.0,0.0,0.0,0.0,0.0,0.0,0.0,0.0,0.0,0.0,0.0,0.0,0.0,0.0,0.0,0.0,0.0,0.0,0.0,0.0,0.0,0.0,0.0,0.0,0.0,0.0,0.0,0.0,0.0,0.0,0.0,0.0,0.0,0.0,0.0,0.0,0.0,0.0,0.0,0.0,0.0,0.0,0.0,0.0,0.0,0.0,0.0,0.0,0.0,0.0,0.0,0.0,0.0,0.0,0.0,0.0,0.0,0.0,0.0,0.0,0.0,0.0,0.0,6.1689,6.1814,6.1488,0.0,5.7372,0.0,0.0,0.0,0.0,0.0,0.0,0.0,0.0,0.0,0.0,0.0,0.0,0.0,0.0,0.0,0.0,0.0,0.0,0.0,0.0,0.0,0.0,0.0,0.0,0.0,0.0,0.0,0.0,0.0,0.0,0.0,0.0,0.0,0.0,0.0,0.0,0.0,0.0,0.0,0.0,0.0,0.0,0.0,0.0,0.0,0.0,0.0,0.0,0.0,0.0,0.0,0.0,0.0,0.0,0.0,0.0,0.0,0.0,0.0,0.0,0.0,0.0,0.0,0.0,0.0,0.0,0.0,0.0,0.0,0.0,0.0,0.0,0.0,0.0,0.0,0.0,0.0,0.0,0.0,0.0,0.0,0.0,0.0,0.0,0.0,0.0,0.0,0.0,0.0,0.0,0.0,0.0,0.0,0.0,0.0,0.0,0.0,0.0,0.0,0.0,0.0,0.0,0.0,0.0,0.0,0.0,0.0,0.0,0.0,0.0,0.0,0.0,5.9602,5.8043,5.7264,0.0,0.0,0.0,0.0,0.0,0.0,0.0,0.0,0.0,0.0,0.0,0.0,0.0,0.0,0.0,0.0,0.0,0.0,0.0,0.0,0.0,0.0,0.0,0.0,0.0,0.0,0.0,0.0,0.0,0.0,0.0,0.0,0.0,0.0,0.0,0.0,0.0,0.0,0.0,0.0,0.0,0.0,0.0,0.0,0.0,0.0,0.0,0.0,0.0,0.0,0.0,0.0,0.0,0.0,0.0,0.0,0.0,0.0,0.0,0.0,0.0,0.0,0.0,0.0,0.0,0.0,0.0,0.0,0.0,0.0,0.0,0.0,0.0,0.0,0.0,0.0,0.0,0.0,0.0,0.0,0.0,0.0,0.0,0.0,0.0,0.0,0.0,0.0,0.0,0.0,0.0,0.0,0.0,0.0,0.0,0.0,0.0,0.0,0.0,0.0,0.0,0.0,0.0,0.0,0.0,0.0,0.0,0.0,0.0,0.0,6.0356,6.1689,5.894,5.7389,5.7322,0.0,0.0,0.0,0.0,0.0,0.0,0.0,0.0,0.0,0.0,0.0,0.0,0.0,0.0,0.0,0.0,0.0,0.0,0.0,0.0,0.0,0.0,0.0,0.0,0.0,0.0,0.0,0.0,0.0,0.0,0.0,0.0,0.0,0.0,0.0,0.0,0.0,0.0,0.0,0.0,0.0,0.0,0.0,0.0,0.0,0.0,0.0,0.0,0.0,0.0,0.0,0.0,0.0,0.0,0.0,0.0,0.0,0.0,0.0,0.0,0.0,0.0,0.0,0.0,0.0,0.0,0.0,0.0,0.0,0.0,0.0,0.0,0.0,0.0,0.0,0.0,0.0,0.0,0.0,0.0,0.0,0.0,0.0,0.0,0.0,0.0,0.0,0.0,0.0,0.0,0.0,0.0,0.0,0.0,0.0,0.0,0.0,0.0,0.0,0.0,0.0,0.0,0.0,0.0,0.0,0.0,0.0,0.0,0.0,0.0,0.0,0.0,0.0,0.0,5.7037,0.0,0.0,0.0,0.0,0.0,0.0,0.0,0.0,0.0,0.0,0.0,0.0,0.0,0.0,0.0,0.0,0.0,0.0,0.0,0.0,0.0,0.0,0.0,0.0,0.0,0.0,0.0,0.0,0.0,0.0,0.0,0.0,0.0,0.0,0.0,0.0,0.0,0.0,0.0,0.0,0.0,0.0,0.0,0.0,0.0,0.0,0.0,0.0,0.0,0.0,0.0,0.0,0.0,0.0,0.0,0.0,0.0,0.0,0.0,0.0,0.0,0.0,0.0,0.0,0.0,0.0,0.0,0.0,0.0,0.0,0.0,0.0,0.0,0.0,0.0,0.0,0.0,0.0,0.0,0.0,0.0,0.0,0.0,0.0,0.0,0.0,0.0,0.0,0.0,0.0,0.0,0.0,0.0,0.0,0.0,0.0,0.0,0.0,0.0,0.0,0.0,0.0,0.0,0.0,0.0,0.0,0.0,0.0,0.0,0.0,0.0,0.0,0.0,0.0,0.0,0.0,0.0,0.0,0.0,0.0,0.0,0.0,0.0,0.0,0.0,0.0,0.0,0.0,0.0,0.0,0.0,0.0,0.0,0.0,0.0,0.0,0.0,0.0,0.0,0.0,0.0,0.0,0.0,0.0,0.0,0.0,0.0,0.0,0.0,0.0,0.0,0.0,0.0,0.0,0.0,0.0,0.0,0.0,0.0,0.0,0.0,0.0,0.0,0.0,0.0,0.0,0.0,0.0,0.0,0.0,0.0,0.0,0.0,0.0,0.0,0.0,0.0,0.0,0.0,0.0,0.0,0.0,0.0,0.0,0.0,0.0,0.0,0.0,0.0,0.0,0.0,0.0,0.0,0.0,0.0,0.0,0.0,0.0,0.0,0.0,0.0,0.0,0.0,0.0,0.0,0.0,0.0,0.0,0.0,0.0,0.0,0.0,0.0,0.0,0.0,0.0,0.0,0.0,0.0,0.0,0.0,0.0,0.0,0.0,0.0,0.0,0.0,0.0,0.0,0.0,0.0,0.0,0.0,0.0,0.0,0.0,0.0,0.0,0.0,0.0,0.0,0.0,0.0,0.0,0.0,0.0,0.0,0.0,0.0,0.0,0.0,0.0,0.0,0.0,0.0,0.0,0.0,0.0,0.0,0.0,0.0,0.0,0.0,0.0,0.0,0.0,0.0,0.0,0.0,0.0,0.0,0.0,0.0,0.0,0.0,0.0,0.0,0.0,0.0,0.0,0.0,0.0,0.0,0.0,0.0,0.0,0.0,0.0,0.0,0.0,0.0,0.0,0.0,0.0,0.0,0.0,0.0,0.0,0.0,0.0,0.0,0.0,0.0,0.0,0.0,0.0,0.0,0.0,0.0,0.0,0.0,0.0,0.0,0.0,0.0,0.0,0.0,0.0,0.0,0.0,0.0,0.0,0.0,0.0,0.0,0.0,0.0,0.0,0.0,0.0,0.0,0.0,0.0,0.0,0.0,0.0,0.0,0.0,0.0,0.0,0.0,0.0,0.0,0.0,0.0,0.0,0.0,0.0,0.0,0.0,0.0,0.0,0.0,0.0,0.0,0.0,0.0,0.0,0.0,0.0,0.0,0.0,0.0,0.0,0.0,0.0,0.0,0.0,0.0,0.0,0.0,0.0,0.0,0.0,0.0,0.0,0.0,0.0,0.0,0.0,0.0,0.0,0.0,0.0,0.0,0.0,0.0,0.0,0.0,0.0,0.0,0.0,0.0,0.0,0.0,0.0,0.0,0.0,0.0,0.0,0.0,0.0,0.0,0.0,0.0,0.0,0.0,0.0,0.0,0.0,0.0,0.0,0.0,0.0,0.0,0.0,0.0,0.0,0.0,0.0,0.0,0.0,0.0,0.0,0.0,0.0,0.0,0.0,0.0,0.0,0.0,0.0,0.0,0.0,0.0,0.0,0.0,0.0,0.0,0.0,0.0,0.0,0.0,0.0,0.0,0.0,0.0,0.0,0.0,0.0,0.0,0.0,0.0,0.0,0.0,0.0,0.0,0.0,0.0,0.0,0.0,0.0,0.0,0.0,0.0,0.0,0.0,0.0,0.0,0.0,0.0,0.0,0.0,0.0,0.0,0.0,0.0,0.0,0.0,0.0,0.0,0.0,0.0,0.0,0.0,0.0,0.0,0.0,0.0,0.0,0.0,0.0,0.0,0.0,0.0,0.0,0.0,0.0,0.0,0.0,0.0,0.0,0.0,0.0,0.0,0.0,0.0,0.0,0.0,0.0,0.0,0.0,0.0,0.0,0.0,0.0,0.0,0.0,0.0,0.0,0.0,0.0,0.0,0.0,0.0,0.0,0.0,0.0,0.0,0.0,0.0,0.0,0.0,0.0,0.0,0.0,0.0,0.0,0.0,0.0,0.0,0.0,0.0,0.0,0.0,0.0,0.0,0.0,0.0,0.0,0.0,0.0,0.0,0.0,0.0,0.0,0.0,0.0,0.0,0.0,0.0,0.0,0.0,0.0,0.0,0.0,0.0,0.0,0.0,0.0,0.0,0.0,0.0,0.0,0.0,0.0,0.0,0.0,0.0,0.0,0.0,0.0,0.0,0.0,0.0,0.0,0.0,0.0,0.0,0.0,0.0,0.0,0.0,0.0,0.0,0.0,0.0,0.0,0.0,0.0,0.0,0.0,0.0,0.0,0.0,0.0,0.0,0.0,0.0,0.0,0.0,0.0,0.0,0.0,0.0,0.0,0.0,0.0,0.0,0.0,0.0,0.0,0.0,0.0,0.0,0.0,0.0,0.0,0.0,0.0,0.0,0.0,0.0,0.0,0.0,0.0,0.0,0.0,0.0,0.0,0.0,0.0,0.0,0.0,0.0,0.0,0.0,0.0,0.0,0.0,0.0,0.0,0.0,0.0,0.0,0.0,0.0,0.0,0.0,0.0,0.0,0.0,0.0,0.0,0.0,0.0,0.0,0.0,0.0,0.0,0.0,0.0,0.0,0.0,0.0,0.0,0.0,0.0,0.0,0.0,0.0,0.0,0.0,0.0,0.0,0.0,0.0,0.0,0.0,0.0,0.0,0.0,0.0,0.0,0.0,0.0,0.0,0.0,0.0,0.0,0.0,0.0,0.0,0.0,0.0,0.0,0.0,0.0,0.0,0.0,0.0,0.0,0.0,0.0,0.0,0.0,0.0,0.0,0.0,0.0,0.0,0.0,0.0,0.0,0.0,0.0,0.0,0.0,0.0,0.0,0.0,0.0,0.0,0.0,0.0,0.0,0.0,0.0,0.0,0.0,0.0,0.0,0.0,0.0,0.0,0.0,0.0,0.0,0.0,0.0,0.0,0.0,0.0,0.0,0.0,0.0,0.0,0.0,0.0,0.0,0.0,0.0,0.0,0.0,0.0,0.0,0.0,0.0,0.0,0.0,0.0,0.0,0.0,0.0,0.0,0.0,0.0,0.0,0.0,0.0,0.0,0.0,0.0,0.0,0.0,0.0,0.0,0.0,0.0,0.0,0.0,0.0,0.0,0.0,0.0,0.0,0.0,0.0,0.0,0.0,0.0,0.0,0.0,0.0,0.0,0.0,0.0,0.0,0.0,0.0,0.0,0.0,0.0,0.0,0.0,0.0,0.0,0.0,0.0,0.0,0.0,0.0,0.0,0.0,0.0,0.0,0.0,0.0,0.0,0.0,0.0,0.0,0.0,0.0,0.0,0.0,0.0,0.0,0.0,0.0,0.0,0.0,0.0,0.0,0.0,0.0,0.0,0.0,0.0,0.0,0.0,0.0,0.0,0.0,0.0,0.0,0.0,0.0,0.0,0.0,0.0,0.0,0.0,0.0,0.0,0.0,0.0,0.0,0.0,0.0,0.0,0.0,0.0,0.0,0.0,0.0,0.0,0.0,0.0,0.0,0.0,0.0,0.0,0.0,0.0,0.0,0.0,0.0,0.0,0.0,0.0,0.0,0.0,0.0,0.0,0.0,0.0,0.0,0.0,0.0,0.0,0.0,0.0,0.0,0.0,0.0,0.0,0.0,0.0,0.0,0.0,0.0,0.0,0.0,0.0,0.0,0.0,0.0,0.0,0.0,0.0,0.0,0.0,0.0,0.0,0.0,0.0,0.0,0.0,0.0,0.0,0.0,0.0,0.0,0.0,0.0,0.0,0.0,0.0,0.0,0.0,0.0,0.0,0.0,0.0,0.0,0.0,0.0,0.0,0.0,0.0,0.0,0.0,0.0,0.0,0.0,0.0,0.0,0.0,0.0,0.0,0.0,0.0,0.0,0.0,0.0,0.0,0.0,0.0,0.0,0.0,0.0,0.0,0.0,0.0,0.0,0.0,0.0,0.0,0.0,0.0,0.0,0.0,0.0,0.0,0.0,0.0,0.0]}],[{"header":{"parameterUnit":"kt","parameterCategory":2,"dx":1,"dy":1,"la1":29.587661999999998,"la2":31.0,"lo1":-88.76705300000003,"lo2":-86.6583820000003,"nx":115,"ny":88,"refTime":"2022-10-07T12:00:00:Z","depth":0,"parameterNumber":2,"parameterNumberName":"V-component_of_WINDS"},"data":[15.3089,15.4274,15.5515,15.608,15.608,15.608,15.608,15.608,15.608,15.608,15.608,15.608,15.608,15.608,15.608,15.608,15.608,15.608,15.608,15.5926,15.4271,15.259,15.037,14.6819,13.9701,13.6,13.3471,13.1042,13.1197,13.1977,13.2315,13.1875,13.208,13.1948,13.1794,13.0611,12.8511,12.8511,12.8511,12.8511,12.8511,12.8511,12.8511,12.8511,12.8511,12.8511,12.8511,12.8511,12.8511,12.8511,12.8511,12.8511,12.8511,12.8511,12.8511,12.8511,12.8511,12.8364,12.8023,12.7925,12.7339,12.6697,12.568,12.4793,12.4118,12.3044,12.2516,12.2272,12.2272,12.2223,12.2516,12.3142,12.4109,12.5525,12.6746,12.7632,12.8413,12.8511,12.8511,12.8511,12.8511,12.8511,12.8511,12.8511,12.8511,12.8511,12.8511,12.8511,12.8511,12.8511,12.8511,12.8511,12.8511,12.8511,12.8511,12.8511,12.8511,12.8511,12.8511,12.8511,12.8511,12.8511,12.8511,12.8511,12.8511,12.8511,12.8511,12.8511,12.8511,12.8511,12.8511,12.8511,12.8511,12.8511,12.8511,15.2976,15.4274,15.5515,15.608,15.608,15.608,15.608,15.608,15.608,15.608,15.608,15.608,15.608,15.608,15.608,15.608,15.608,15.608,15.5755,15.5524,15.4675,15.1906,14.9057,14.5897,14.1428,13.7153,13.2987,13.1084,13.0017,12.985,12.9834,12.9212,12.9087,12.9212,12.9004,12.8594,12.8511,12.8511,12.8511,12.8511,12.8511,12.8511,12.8511,12.8511,12.8511,12.8511,12.8511,12.8511,12.8511,12.8511,12.8511,12.8511,12.8511,12.8511,12.8511,12.8511,12.8511,12.7981,12.7486,12.729,12.6599,12.5672,12.4598,12.3923,12.3679,12.3044,12.237,12.2126,12.2126,12.2223,12.2516,12.3053,12.4207,12.5379,12.6453,12.7437,12.8023,12.8511,12.8511,12.8511,12.8511,12.8511,12.8511,12.8511,12.8511,12.8511,12.8511,12.8511,12.8511,12.8511,12.8511,12.8511,12.8511,12.8511,12.8511,12.8511,12.8511,12.8511,12.8511,12.8511,12.8511,12.8511,12.8511,12.8511,12.8511,12.8511,12.8511,12.8511,12.8511,12.8511,12.8511,12.8511,12.8511,12.8511,12.8511,15.1038,15.2299,15.4161,15.5402,15.6023,15.608,15.608,15.608,15.608,15.608,15.608,15.608,15.608,15.608,15.608,15.608,15.608,15.6041,15.4813,15.2677,15.0643,14.9181,14.4749,13.9724,13.8307,13.5614,13.1456,12.9822,12.9236,12.8657,12.8511,12.8636,12.8636,12.8678,12.8636,12.8552,12.8511,12.8511,12.8511,12.8511,12.8511,12.8511,12.8511,12.8511,12.8511,12.8511,12.8511,12.8511,12.8511,12.8511,12.8511,12.8511,12.8511,12.8511,12.8511,12.8511,12.8371,12.7981,12.729,12.6795,12.6258,12.5086,12.3923,12.3288,12.3044,12.276,12.2126,12.2077,12.2077,12.2272,12.2565,12.3679,12.4793,12.5721,12.6795,12.7583,12.8169,12.8511,12.8511,12.8511,12.8511,12.8511,12.8511,12.8511,12.8511,12.8511,12.8511,12.8511,12.8511,12.8511,12.8511,12.8511,12.8511,12.8511,12.8511,12.8511,12.8511,12.8511,12.8511,12.8511,12.8511,12.8511,12.8511,12.8511,12.8511,12.8511,12.8511,12.8511,12.8511,12.8511,12.8511,12.8511,12.8511,12.8511,12.8511,14.9438,15.0663,15.2468,15.4217,15.5572,15.5967,15.608,15.608,15.608,15.608,15.608,15.608,15.608,15.5734,15.5062,15.5255,15.483,15.3632,15.2442,15.0713,14.7329,14.4859,14.0039,13.7579,13.3996,13.1407,13.0061,12.9334,12.8803,12.8608,12.8511,12.8511,12.8511,12.8511,12.8511,12.8511,12.8511,12.8511,12.8511,12.8511,12.8511,12.8511,12.8511,12.8511,12.8511,12.8511,12.8511,12.8511,12.8511,12.8511,12.8511,12.8511,12.8511,12.8511,12.8511,12.8511,12.8511,12.7632,12.6892,12.6258,12.533,12.4118,12.3239,12.276,12.2419,12.2223,12.2077,12.2077,12.2175,12.237,12.2898,12.4305,12.5566,12.6453,12.729,12.7876,12.8462,12.8511,12.8511,12.8511,12.8511,12.8511,12.8511,12.8511,12.8511,12.8511,12.8511,12.8511,12.8511,12.8511,12.8511,12.8511,12.8511,12.8511,12.8511,12.8511,12.8511,12.8511,12.8511,12.8511,12.8511,12.8511,12.8511,12.8511,12.8511,12.8511,12.8511,12.8511,12.8511,12.8511,12.8511,12.8511,12.8511,12.8511,12.8511,14.9345,15.0437,15.0626,15.2299,15.433,15.5628,15.6023,15.608,15.6023,15.608,15.6023,15.608,15.608,15.5639,15.3759,15.3931,15.3974,15.1223,14.9874,15.0603,14.6512,14.2906,14.0072,13.7418,13.3837,13.2216,13.0727,12.8852,12.8559,12.8511,12.8511,12.8511,12.8511,12.8511,12.8511,12.8511,12.8511,12.8511,12.8511,12.8511,12.8511,12.8511,12.8511,12.8511,12.8511,12.8511,12.8511,12.8511,12.8511,12.8511,12.8511,12.8511,12.8511,12.8511,12.842,12.8371,12.8225,12.7242,12.6062,12.5476,12.4256,12.3142,12.2223,12.2223,12.2223,12.2126,12.2077,12.2077,12.2126,12.2272,12.2898,12.4109,12.5037,12.5867,12.6851,12.773,12.8218,12.8413,12.8413,12.8511,12.8511,12.8511,12.8511,12.8511,12.8511,12.8511,12.8511,12.8511,12.8511,12.8511,12.8511,12.8511,12.8511,12.8511,12.8511,12.8511,12.8511,12.8511,12.8511,12.8511,12.8511,12.8511,12.8511,12.8511,12.8511,12.8511,12.8511,12.8511,12.8511,12.8511,12.8511,12.8511,12.8511,12.8511,12.8511,14.8986,14.9571,15.0945,15.2186,15.3371,15.5233,15.512,15.4274,15.5459,15.5572,15.5064,15.5685,15.608,15.5586,15.3742,15.3252,15.4496,15.0452,14.8448,14.8943,14.6783,14.2846,13.9027,13.5813,13.36,13.1042,12.9178,12.8511,12.8511,12.8511,12.8511,12.8511,12.8511,12.8511,12.8511,12.8511,12.8511,12.8511,12.8511,12.8511,12.8511,12.8511,12.8511,12.8511,12.8511,12.8511,12.8511,12.8511,12.8511,12.8511,12.8511,12.8511,12.842,12.8413,12.8364,12.7632,12.7583,12.6509,12.4948,12.4549,12.3532,12.2565,12.2126,12.2077,12.2077,12.2077,12.2077,12.2077,12.2126,12.2321,12.3044,12.3727,12.4411,12.5143,12.6314,12.7486,12.7876,12.8218,12.8364,12.8462,12.8511,12.8511,12.8511,12.8511,12.8511,12.8511,12.8511,12.8511,12.8511,12.8511,12.8511,12.8511,12.8511,12.8511,12.8511,12.8511,12.8511,12.8511,12.8511,12.8511,12.8511,12.8511,12.8511,12.8511,12.8511,12.8511,12.8511,12.8511,12.8511,12.8511,12.8511,12.8511,12.8511,12.8511,12.8511,14.8741,14.8873,15.0587,15.1509,15.213,15.4105,15.4105,15.2694,15.4105,15.4612,15.371,15.4612,15.4725,15.4799,15.3005,15.2877,15.2162,15.0823,14.8564,14.6961,14.5098,14.1295,13.8065,13.5323,13.2897,13.0769,12.917,12.8511,12.8511,12.8511,12.8511,12.8511,12.8511,12.8511,12.8511,12.8511,12.8511,12.8511,12.8511,12.8511,12.8511,12.8511,12.8511,12.8511,12.8511,12.8511,12.8315,12.8169,12.8267,12.8071,12.7925,12.7876,12.7876,12.7681,12.773,12.6941,12.6746,12.6062,12.4264,12.3825,12.3337,12.2419,12.2077,12.2077,12.2077,12.2077,12.2077,12.2077,12.2126,12.2614,12.3288,12.3874,12.446,12.5338,12.6412,12.7388,12.8023,12.8315,12.8413,12.8511,12.8511,12.8511,12.8511,12.8511,12.8511,12.8511,12.8511,12.8511,12.8511,12.8511,12.8511,12.8511,12.8511,12.8511,12.8511,12.8511,12.8511,12.8511,12.8511,12.8511,12.8511,12.8511,12.8511,12.8511,12.8511,12.8511,12.8511,12.8511,12.8511,12.8511,12.8511,12.8511,12.8511,12.8511,12.8511,14.8741,14.8704,14.8761,14.9571,15.0663,15.1904,15.2468,15.2412,15.2581,15.2544,15.2468,15.2638,15.2976,15.2093,14.9288,14.9768,15.1267,14.6207,14.5694,14.536,14.36,14.0925,13.8163,13.5358,13.3107,13.1803,13.0364,12.8511,12.8511,12.8511,12.8511,12.8511,12.8511,12.8511,12.8511,12.8511,12.8511,12.8511,12.8511,12.8511,12.8511,12.8511,12.8511,12.8511,12.8462,12.8462,12.8023,12.7632,12.7681,12.7332,12.6746,12.6551,12.6355,12.6006,12.6306,12.6551,12.6746,12.5485,12.402,12.3581,12.2995,12.2272,12.2077,12.2077,12.2077,12.2077,12.2077,12.2077,12.2126,12.276,12.3239,12.3727,12.4216,12.5094,12.6119,12.6998,12.773,12.8315,12.8462,12.8511,12.8511,12.8511,12.8511,12.8511,12.8511,12.8511,12.8511,12.8511,12.8511,12.8511,12.8511,12.8511,12.8511,12.8511,12.8511,12.8511,12.8511,12.8511,12.8511,12.8511,12.8511,12.8511,12.8511,12.8511,12.8511,12.8511,12.8511,12.8511,12.8511,12.8511,12.8511,12.8511,12.8511,12.8511,12.8511,14.8741,14.8817,14.9551,15.0098,15.038,15.0135,15.0474,15.1227,15.2017,15.1904,15.1453,15.2017,15.2299,15.1718,15.0388,15.0463,15.0593,14.7414,14.7251,14.4286,14.2817,13.997,13.6928,13.4131,13.2722,13.0281,12.8928,12.8511,12.8511,12.8511,12.8511,12.8511,12.8511,12.8511,12.8511,12.8511,12.8511,12.8511,12.8511,12.8511,12.8511,12.8511,12.8511,12.8462,12.8364,12.812,12.7583,12.7144,12.6844,12.6306,12.5867,12.5713,12.5761,12.5615,12.5623,12.5476,12.533,12.4167,12.3239,12.2849,12.2663,12.2126,12.2126,12.2077,12.2077,12.2077,12.2077,12.2077,12.2077,12.2321,12.2467,12.2467,12.2907,12.3386,12.446,12.5672,12.6599,12.8023,12.8413,12.8511,12.8511,12.8511,12.8511,12.8511,12.8511,12.8511,12.8511,12.8511,12.8511,12.8511,12.8511,12.8511,12.8511,12.8511,12.8511,12.8511,12.8511,12.8511,12.8511,12.8511,12.8511,12.8511,12.8511,12.8511,12.8511,12.8511,12.8511,12.8511,12.8511,12.8511,12.8511,12.8511,12.8511,12.8511,12.8511,14.8741,14.8797,14.9571,15.0135,15.0324,14.9571,14.974,15.055,15.1227,15.1001,15.0268,15.0663,15.1151,15.0945,15.0063,14.8948,14.8243,14.707,14.5194,14.219,14.1593,13.8525,13.6357,13.4462,13.2519,13.0488,12.8761,12.8511,12.8511,12.8511,12.8511,12.8511,12.8511,12.8511,12.8511,12.8511,12.8511,12.8511,12.8511,12.8511,12.8511,12.842,12.8315,12.7925,12.7876,12.7388,12.6502,12.5826,12.5721,12.5574,12.4313,12.4402,12.4744,12.4158,12.4362,12.4598,12.3825,12.2995,12.2898,12.2223,12.2126,12.2077,12.2077,12.2077,12.2077,12.2077,12.2077,12.2077,12.2077,12.2077,12.2077,12.2126,12.2467,12.2809,12.3532,12.4744,12.5965,12.7339,12.8364,12.8462,12.8511,12.8511,12.8511,12.8511,12.8511,12.8511,12.8511,12.8511,12.8511,12.8511,12.8511,12.8511,12.8511,12.8511,12.8511,12.8511,12.8511,12.8511,12.8511,12.8511,12.8511,12.8511,12.8511,12.8511,12.8511,12.8511,12.8511,12.8511,12.8511,12.8511,12.8511,12.8511,12.8511,12.8511,12.8511,14.8741,14.8741,14.8761,14.9401,15.0268,15.038,15.0268,15.0268,15.0493,15.0042,14.9232,14.8986,14.9006,14.8437,14.8218,14.6439,14.4382,14.3593,14.1754,13.9189,13.8486,13.8212,13.6238,13.429,13.1957,13.2234,13.0364,12.8511,12.8511,12.8511,12.8511,12.8511,12.8511,12.8511,12.8511,12.8511,12.8511,12.8511,12.8511,12.8511,12.8462,12.8315,12.7827,12.7339,12.6998,12.6363,12.5476,12.4752,12.4557,12.45,12.3288,12.3142,12.363,12.2907,12.2955,12.363,12.2711,12.276,12.3394,12.2614,12.2175,12.2077,12.2077,12.2077,12.2077,12.2077,12.2077,12.2077,12.2077,12.2077,12.2077,12.2126,12.2663,12.3191,12.3727,12.4744,12.5965,12.7242,12.8023,12.8371,12.842,12.8511,12.8511,12.8462,12.842,12.8511,12.8511,12.8511,12.8511,12.8511,12.8511,12.8511,12.8511,12.8511,12.8511,12.8511,12.8511,12.8511,12.8511,12.8511,12.8511,12.8511,12.8511,12.8511,12.8511,12.8511,12.8511,12.8511,12.8511,12.8511,12.8511,12.8511,12.8511,12.8511,12.8511,14.8741,14.8741,14.8741,14.893,14.9176,14.9212,14.9176,14.9345,15.0098,15.0211,14.9873,14.8933,14.7549,14.566,14.5249,14.3668,14.1432,14.0296,13.8081,13.6314,13.4937,13.3483,13.1916,13.0785,13.0595,12.9793,12.8719,12.8511,12.8511,12.8511,12.8511,12.8511,12.8511,12.8511,12.8511,12.8511,12.8511,12.8511,12.8511,12.8511,12.8364,12.7876,12.7193,12.7039,12.6258,12.5476,12.4598,12.3971,12.363,12.3093,12.2663,12.237,12.237,12.237,12.2272,12.237,12.2321,12.2223,12.2467,12.2223,12.2126,12.2077,12.2077,12.2077,12.2077,12.2077,12.2077,12.2077,12.2077,12.2077,12.2077,12.2077,12.2467,12.2849,12.3483,12.4313,12.5582,12.6453,12.729,12.7981,12.8315,12.8267,12.8267,12.8225,12.8274,12.842,12.8469,12.8511,12.8511,12.8511,12.8511,12.8511,12.8511,12.8511,12.8511,12.8511,12.8511,12.8511,12.8511,12.8511,12.8511,12.8511,12.8511,12.8511,12.8511,12.8511,12.8511,12.8511,12.8511,12.8511,12.8511,12.8511,12.8511,12.8511,12.8511,14.8741,14.8741,14.8741,14.8986,14.9345,14.9382,14.9627,15.0192,15.0888,15.0964,15.038,14.9723,14.8464,14.7607,14.6818,14.4542,14.037,13.9936,13.6885,13.4404,13.2848,13.1694,13.0536,12.983,12.9096,12.9222,12.8741,12.8511,12.8511,12.8511,12.8511,12.8511,12.8511,12.8511,12.8511,12.8511,12.8511,12.8511,12.8511,12.8511,12.8364,12.7778,12.7339,12.6941,12.5916,12.4891,12.3963,12.3435,12.276,12.2321,12.2175,12.2126,12.2175,12.2126,12.2126,12.2126,12.2175,12.2126,12.2175,12.2565,12.2467,12.2321,12.2077,12.2077,12.2077,12.2077,12.2077,12.2077,12.2077,12.2077,12.2077,12.2077,12.2126,12.2419,12.3044,12.3874,12.4704,12.5338,12.607,12.6558,12.7095,12.7681,12.7827,12.7883,12.8127,12.842,12.8469,12.8511,12.8511,12.8511,12.8511,12.8511,12.8511,12.8511,12.8511,12.8511,12.8511,12.8511,12.8511,12.8511,12.8511,12.8511,12.8511,12.8511,12.8511,12.8511,12.8511,12.8511,12.8511,12.8511,12.8511,12.8462,12.8511,12.8511,12.8511,14.8741,14.8741,14.8741,14.9288,15.0155,15.0324,15.0945,15.1453,15.196,15.1302,15.0231,14.9899,14.9604,14.9539,14.7568,14.5243,14.0854,14.1282,13.7036,13.3344,13.1726,13.1444,13.0919,13.0164,12.9822,12.9675,12.895,12.8518,12.8511,12.8511,12.8511,12.8511,12.8511,12.8511,12.8511,12.8511,12.8511,12.8511,12.8511,12.8511,12.8176,12.7876,12.7388,12.6502,12.5574,12.4695,12.3768,12.28,12.2126,12.2126,12.2077,12.2077,12.2467,12.2467,12.2751,12.2809,12.2858,12.2711,12.2516,12.2858,12.2995,12.2419,12.2077,12.2077,12.2077,12.2077,12.2077,12.2077,12.2077,12.2077,12.2077,12.2077,12.2077,12.237,12.2809,12.363,12.4167,12.4704,12.5184,12.5281,12.5818,12.6599,12.6851,12.729,12.7583,12.8364,12.8511,12.8511,12.8511,12.8511,12.8511,12.8511,12.8511,12.8511,12.8511,12.8511,12.8511,12.8511,12.8511,12.8511,12.8511,12.8511,12.8511,12.8511,12.8511,12.8511,12.8511,12.8218,12.8071,12.8315,12.8462,12.8322,12.8274,12.8462,12.8511,14.8741,14.8741,14.8741,14.8873,14.9119,14.9119,14.9438,14.9796,15.0532,15.0231,14.9019,14.7437,14.3928,14.0608,14.0407,13.9576,13.4933,13.4402,13.3012,13.2121,13.1097,13.0756,13.0603,12.9731,12.9145,12.8852,12.8762,12.8608,12.8559,12.8511,12.8511,12.8511,12.8511,12.8511,12.8511,12.8511,12.8413,12.8413,12.8364,12.8023,12.7339,12.6648,12.5769,12.4704,12.359,12.276,12.2516,12.2175,12.2126,12.2126,12.2126,12.2516,12.3053,12.3142,12.3337,12.3971,12.4167,12.3971,12.3386,12.2947,12.237,12.2175,12.2077,12.2077,12.2077,12.2077,12.2077,12.2077,12.2077,12.2077,12.2077,12.2077,12.2077,12.2321,12.2663,12.3288,12.3874,12.4606,12.5086,12.5232,12.5525,12.6014,12.6502,12.6844,12.7388,12.8267,12.8511,12.8511,12.8511,12.8511,12.8511,12.8511,12.8511,12.8511,12.8511,12.8511,12.8511,12.8511,12.8511,12.8511,12.8511,12.8511,12.8511,12.8511,12.8511,12.8413,12.812,12.7778,12.7534,12.773,12.7925,12.7974,12.8176,12.8413,12.8511,14.816,14.8648,14.814,14.816,14.8704,14.8741,14.8986,14.922,14.8671,14.869,14.8966,14.7122,14.4819,14.3127,14.0646,13.795,13.4707,13.4478,13.3429,13.2013,13.1293,13.0951,13.0658,13.0219,12.9584,12.9584,12.9243,12.895,12.8559,12.8511,12.8511,12.8511,12.8511,12.842,12.8511,12.8511,12.8267,12.7925,12.773,12.7242,12.6404,12.5713,12.5086,12.4549,12.3483,12.3093,12.2809,12.2467,12.2272,12.28,12.2223,12.2663,12.3435,12.3483,12.3581,12.4598,12.5037,12.4793,12.3963,12.3288,12.2663,12.2321,12.2077,12.2126,12.2077,12.2077,12.2077,12.2126,12.2126,12.2077,12.2077,12.2077,12.2077,12.2175,12.2419,12.3004,12.3727,12.4411,12.5037,12.5232,12.5428,12.6111,12.6648,12.69,12.7388,12.8169,12.8511,12.8511,12.8511,12.8511,12.8511,12.8511,12.8511,12.8511,12.8511,12.8511,12.8511,12.8511,12.8511,12.8511,12.8511,12.8511,12.8511,12.8511,12.8364,12.8071,12.773,12.7437,12.7193,12.7242,12.7339,12.7827,12.8274,12.842,12.8511,14.7821,14.9006,14.7785,14.7877,14.8873,14.8986,14.9458,14.9766,14.7325,14.7436,14.8782,14.7106,14.6253,14.5509,14.4436,14.1112,13.7497,13.5311,13.3938,13.2031,13.1439,13.1244,13.1482,13.1537,13.0219,12.9633,12.9724,12.9431,12.8755,12.8511,12.8511,12.8413,12.8322,12.8225,12.8071,12.7778,12.7674,12.6941,12.6746,12.6355,12.5574,12.5273,12.4939,12.4549,12.3874,12.3288,12.3093,12.2516,12.2419,12.3191,12.2516,12.2751,12.3435,12.2809,12.3044,12.3727,12.4354,12.4646,12.3923,12.3386,12.2858,12.2223,12.237,12.2321,12.2565,12.2614,12.2849,12.2467,12.2565,12.276,12.2858,12.2663,12.2565,12.276,12.3142,12.3532,12.3874,12.4891,12.4988,12.5184,12.6265,12.6754,12.7046,12.7193,12.7388,12.8023,12.8511,12.8511,12.8511,12.8511,12.8511,12.8511,12.8511,12.8511,12.8511,12.8511,12.8511,12.8511,12.8511,12.8511,12.8511,12.8511,12.8511,12.8315,12.8169,12.7876,12.7136,12.6746,12.6844,12.6941,12.7136,12.7632,12.8274,12.842,12.8511,14.9627,15.1509,15.0268,14.9873,15.0042,15.0098,14.9666,14.9046,14.7978,14.6551,14.4866,14.1939,13.9329,13.7124,13.5303,13.3882,13.3182,13.2913,13.2517,13.1482,13.0945,13.0554,13.0261,12.9731,12.9243,12.9096,12.8852,12.8755,12.8267,12.8218,12.8413,12.812,12.7486,12.7242,12.7095,12.6697,12.6014,12.5713,12.5672,12.5664,12.5224,12.4549,12.3727,12.276,12.2516,12.2467,12.2565,12.2223,12.2321,12.2467,12.2419,12.2614,12.3532,12.3581,12.3581,12.363,12.3053,12.3297,12.3239,12.3093,12.2467,12.2135,12.2947,12.3337,12.3532,12.3825,12.4451,12.4695,12.4598,12.446,12.4362,12.4646,12.4557,12.4549,12.4549,12.4793,12.4939,12.5135,12.533,12.607,12.7144,12.7681,12.7876,12.8023,12.7925,12.8511,12.8511,12.8511,12.8511,12.8511,12.8511,12.8511,12.8511,12.8511,12.8511,12.8511,12.8511,12.8511,12.8511,12.8511,12.8511,12.8511,12.8267,12.8071,12.7778,12.699,12.6258,12.5713,12.6111,12.6502,12.6795,12.7381,12.812,12.8469,12.8322,14.9796,15.134,15.0738,15.0832,15.0967,14.9043,14.7663,14.6677,14.3094,14.1201,14.0199,13.7819,13.588,13.5367,13.3143,13.1003,13.053,13.0219,13.0219,13.017,12.9682,12.9389,12.9243,12.9536,12.9047,12.8364,12.7437,12.6941,12.6998,12.7046,12.6851,12.6892,12.6502,12.6209,12.6014,12.5574,12.5184,12.4695,12.4598,12.4354,12.3679,12.3337,12.276,12.2223,12.2126,12.2077,12.2077,12.2077,12.2321,12.2663,12.237,12.2809,12.3239,12.3337,12.2907,12.2809,12.2467,12.2419,12.2663,12.2516,12.2077,12.2175,12.2516,12.3151,12.3776,12.4354,12.4695,12.5135,12.533,12.5379,12.5428,12.5281,12.5379,12.5379,12.5281,12.5525,12.5965,12.6111,12.6509,12.7095,12.7778,12.8169,12.8511,12.8511,12.8511,12.8511,12.8511,12.8511,12.8511,12.8511,12.8511,12.8511,12.8511,12.8511,12.8511,12.8511,12.8511,12.8511,12.8511,12.8511,12.8511,12.8469,12.8267,12.7437,12.6648,12.5818,12.5232,12.5037,12.5574,12.6014,12.6599,12.7242,12.8023,12.8322,12.803,14.8846,14.9659,14.9602,14.9884,14.982,14.7183,14.5793,14.4276,13.9567,13.7274,13.858,13.543,13.5229,13.5173,13.3614,13.127,12.9173,12.8859,12.8762,12.8713,12.8664,12.8657,12.8706,12.8901,12.8657,12.773,12.6551,12.5672,12.5574,12.5379,12.5721,12.5428,12.5232,12.5135,12.5127,12.4842,12.4158,12.3581,12.3483,12.3102,12.2565,12.2321,12.2175,12.2126,12.2077,12.2077,12.2077,12.2126,12.2516,12.3337,12.2565,12.2663,12.3004,12.2614,12.2272,12.2223,12.2126,12.2126,12.2272,12.2126,12.2077,12.2126,12.2467,12.3004,12.3581,12.4109,12.4744,12.5232,12.5525,12.5818,12.5867,12.6209,12.6014,12.5965,12.616,12.6404,12.7039,12.7242,12.7486,12.7925,12.8169,12.8511,12.8511,12.8511,12.8511,12.8511,12.8511,12.8511,12.8511,12.8511,12.8511,12.8511,12.8511,12.8511,12.8462,12.8413,12.8364,12.8364,12.8322,12.8322,12.8071,12.8218,12.7486,12.6119,12.5135,12.4646,12.4598,12.4598,12.4891,12.5184,12.6209,12.7144,12.7534,12.7778,12.7534,14.6717,14.6163,14.6163,14.4702,14.3068,14.5602,14.5988,14.5349,14.502,14.1282,14.0015,13.6451,13.3034,13.081,12.9767,12.917,12.8504,12.842,12.812,12.8169,12.812,12.812,12.8023,12.7632,12.7039,12.5957,12.5281,12.5224,12.5135,12.533,12.4939,12.5086,12.4549,12.4109,12.3776,12.3191,12.2663,12.2565,12.2516,12.2272,12.2126,12.2077,12.2077,12.2077,12.2077,12.2077,12.2077,12.2126,12.2135,12.2321,12.2135,12.2135,12.2281,12.2086,12.2077,12.2077,12.2077,12.2077,12.2077,12.2077,12.2077,12.2126,12.2858,12.3532,12.3923,12.4451,12.4939,12.5517,12.6152,12.6844,12.7876,12.7583,12.7681,12.7827,12.7925,12.812,12.8267,12.8267,12.8218,12.8511,12.8511,12.8511,12.8511,12.8511,12.8511,12.8511,12.8511,12.8511,12.8511,12.8511,12.8511,12.8511,12.8511,12.8511,12.8176,12.8078,12.803,12.803,12.8127,12.7778,12.7234,12.6949,12.6265,12.4842,12.3923,12.3532,12.3386,12.3874,12.4256,12.4354,12.5184,12.6355,12.6844,12.7095,12.6949,14.5032,14.5958,14.4993,14.4034,14.3169,14.2819,14.2044,14.0842,13.9126,13.7254,13.5628,13.4266,13.2265,13.0212,12.9054,12.8511,12.8315,12.7437,12.6892,12.699,12.69,12.6892,12.6697,12.6258,12.5574,12.4598,12.402,12.363,12.363,12.3581,12.3776,12.3532,12.3191,12.2955,12.2711,12.2419,12.2126,12.2077,12.2077,12.2077,12.2077,12.2077,12.2077,12.2077,12.2077,12.2077,12.2126,12.2126,12.2126,12.237,12.3191,12.363,12.3191,12.3044,12.2663,12.2272,12.2077,12.2077,12.2077,12.2077,12.2077,12.2126,12.2516,12.3142,12.3825,12.4207,12.4744,12.5428,12.6258,12.7046,12.7583,12.7681,12.7632,12.773,12.812,12.8462,12.8511,12.8511,12.8511,12.8511,12.8511,12.8511,12.8511,12.8511,12.8511,12.8511,12.8511,12.8511,12.8511,12.8511,12.8511,12.8315,12.8364,12.8218,12.7876,12.7632,12.7534,12.7437,12.7339,12.6802,12.6062,12.5525,12.4996,12.4167,12.3288,12.2711,12.2858,12.3435,12.3923,12.4069,12.4598,12.5525,12.6111,12.6111,12.6062,14.2286,14.3753,14.2528,14.2034,14.1516,13.8668,13.6792,13.5903,13.2849,13.2764,13.2132,13.1761,13.1274,13.0853,12.9194,12.8657,12.8706,12.7283,12.6209,12.6258,12.6209,12.5916,12.5428,12.5476,12.4939,12.4354,12.3199,12.276,12.2614,12.2809,12.2419,12.2272,12.2321,12.2126,12.2175,12.2126,12.2077,12.2077,12.2077,12.2077,12.2077,12.2077,12.2077,12.2077,12.2077,12.2175,12.237,12.2467,12.2565,12.3142,12.4216,12.4793,12.4305,12.4158,12.3776,12.3191,12.28,12.2516,12.2419,12.2272,12.2077,12.2077,12.2223,12.2467,12.3386,12.3435,12.3825,12.4598,12.5623,12.6062,12.6217,12.6599,12.699,12.7283,12.7876,12.8371,12.8267,12.8315,12.8511,12.8511,12.8511,12.8511,12.8511,12.8511,12.8511,12.8511,12.8511,12.8511,12.8511,12.8511,12.8218,12.7827,12.773,12.7437,12.7046,12.6599,12.6404,12.6258,12.607,12.5672,12.4655,12.3971,12.3727,12.3151,12.2565,12.2711,12.276,12.3239,12.3239,12.3727,12.4207,12.4744,12.5037,12.5078,12.4988,13.7087,13.485,13.5624,13.4328,13.2353,13.2558,13.2893,13.2983,13.352,13.377,13.2993,13.123,13.0206,12.881,12.8901,12.9047,12.9822,12.812,12.8413,12.8406,12.8015,12.6941,12.5623,12.5574,12.533,12.5037,12.5086,12.4402,12.3776,12.363,12.3102,12.2614,12.2321,12.2175,12.2467,12.2321,12.2126,12.2321,12.2467,12.2467,12.2467,12.2467,12.2516,12.2516,12.2467,12.2858,12.3435,12.3679,12.4118,12.4988,12.5224,12.5468,12.533,12.5184,12.5037,12.4744,12.402,12.367,12.3572,12.2849,12.2223,12.2223,12.2223,12.2175,12.2321,12.2467,12.2516,12.2809,12.3532,12.4264,12.4508,12.5826,12.6502,12.6746,12.7681,12.7925,12.7534,12.7925,12.8511,12.8511,12.8511,12.8511,12.8511,12.8511,12.8511,12.8511,12.8267,12.8218,12.812,12.7827,12.7437,12.7144,12.6941,12.6697,12.6111,12.5525,12.533,12.4899,12.4655,12.4313,12.3337,12.2995,12.2565,12.237,12.237,12.2419,12.2663,12.2565,12.237,12.2751,12.3337,12.3679,12.4012,12.3963,12.3963,13.1929,13.2206,13.0917,12.9888,12.9267,12.9803,12.9656,12.942,13.018,13.0834,13.1438,13.0607,13.0268,13.0268,12.9096,12.8803,12.895,12.7478,12.7046,12.7381,12.7088,12.6697,12.6453,12.6258,12.5916,12.5428,12.533,12.5175,12.4833,12.4695,12.45,12.3971,12.3971,12.4012,12.3874,12.3971,12.4012,12.4012,12.3971,12.3971,12.4012,12.3971,12.4012,12.3971,12.402,12.4118,12.4598,12.4744,12.5525,12.6844,12.7144,12.6851,12.6404,12.6258,12.6014,12.5371,12.4988,12.4744,12.4646,12.4305,12.3727,12.3199,12.3053,12.276,12.2272,12.2077,12.2077,12.2223,12.3191,12.3386,12.3288,12.4216,12.4996,12.5338,12.6062,12.6705,12.6949,12.7381,12.7827,12.8315,12.8511,12.8511,12.8511,12.8511,12.8511,12.8322,12.7759,12.7556,12.741,12.6941,12.6404,12.616,12.5916,12.5387,12.485,12.4427,12.4143,12.3403,12.3102,12.3044,12.2516,12.237,12.2476,12.2818,12.237,12.2223,12.2614,12.276,12.237,12.2175,12.2419,12.28,12.28,12.28,12.28,12.8321,13.0032,12.7901,12.7375,12.797,12.7047,12.6322,12.5745,12.634,12.7629,12.8789,12.9529,13.0072,13.0658,12.9145,12.8706,12.8657,12.7234,12.6306,12.6592,12.6355,12.6697,12.7193,12.729,12.6949,12.6404,12.6404,12.6103,12.5769,12.581,12.5574,12.5379,12.5184,12.5281,12.5379,12.5232,12.5379,12.5379,12.533,12.5281,12.5232,12.5232,12.5379,12.5379,12.5281,12.5281,12.533,12.5623,12.6697,12.8274,12.8511,12.812,12.7437,12.7381,12.7088,12.6404,12.6014,12.5769,12.5721,12.5468,12.4988,12.4354,12.4216,12.3865,12.2955,12.2995,12.2849,12.2663,12.3151,12.3386,12.2516,12.2907,12.3532,12.3825,12.4646,12.5574,12.6551,12.699,12.7193,12.7827,12.773,12.7369,12.7105,12.7029,12.6946,12.6641,12.6122,12.5685,12.5423,12.507,12.4715,12.467,12.4517,12.4022,12.3664,12.3291,12.2773,12.1994,12.1688,12.1706,12.1449,12.1401,12.2063,12.2781,12.1803,12.1759,12.2268,12.268,12.2516,12.2077,12.2272,12.2321,12.2175,12.2126,12.2223,12.7033,12.7187,12.6957,12.6738,12.6454,12.3953,12.2865,12.2858,12.4598,12.5623,12.6299,12.7827,12.8664,12.8713,12.8664,12.8999,12.9724,12.8601,12.8504,12.8943,12.8559,12.8071,12.8218,12.8218,12.812,12.8071,12.8071,12.7681,12.6892,12.6844,12.6355,12.5761,12.5672,12.5428,12.5672,12.5428,12.5623,12.5672,12.5574,12.5574,12.5574,12.5525,12.5525,12.5525,12.5574,12.5623,12.5818,12.6453,12.7388,12.8315,12.8511,12.8371,12.8322,12.8413,12.8218,12.7883,12.729,12.6949,12.6607,12.6209,12.5525,12.5371,12.5281,12.5184,12.4939,12.4744,12.4451,12.3776,12.3825,12.3483,12.2614,12.2467,12.2907,12.367,12.4061,12.4899,12.6551,12.69,12.6998,12.69,12.6168,12.5337,12.4842,12.467,12.43,12.3839,12.3537,12.3427,12.3331,12.3159,12.287,12.273,12.2662,12.23,12.2105,12.1783,12.1582,12.093,12.065,12.041,12.0121,12.0121,12.0497,12.0931,12.0922,12.1321,12.1697,12.1914,12.1936,12.1878,12.1958,12.2077,12.2077,12.2077,12.2126,12.3873,12.3922,12.3873,12.3834,12.3677,12.2711,12.2077,12.2321,12.3727,12.4793,12.5615,12.6941,12.7876,12.8371,12.8511,12.8755,12.9047,12.8706,12.8755,12.8999,12.8608,12.8511,12.8511,12.8511,12.8511,12.8511,12.8511,12.8315,12.7925,12.7925,12.773,12.7388,12.7339,12.729,12.7339,12.7339,12.7339,12.7381,12.729,12.729,12.7339,12.7339,12.7339,12.729,12.7339,12.729,12.7339,12.7681,12.812,12.8413,12.8511,12.8127,12.7583,12.7486,12.7486,12.7583,12.7681,12.7876,12.7876,12.7339,12.7095,12.6502,12.6355,12.6111,12.5476,12.5379,12.5281,12.4842,12.4744,12.4687,12.4109,12.3581,12.3719,12.4687,12.4207,12.446,12.5672,12.6502,12.6892,12.6664,12.6371,12.557,12.451,12.403,12.3701,12.2899,12.2262,12.1791,12.1606,12.1142,12.0868,12.0695,12.076,12.073,12.053,12.0442,12.029,11.9888,11.9478,11.9155,11.9115,11.9115,11.9203,11.9679,12.0001,12.0362,12.0722,12.1002,12.1281,12.16,12.1719,12.1719,12.1719,12.1799,12.164,12.2077,12.2077,12.2077,12.2077,12.2126,12.2467,12.2614,12.276,12.4216,12.5184,12.5965,12.699,12.7827,12.8371,12.8511,12.8511,12.8511,12.8511,12.8511,12.8518,12.8511,12.8511,12.8511,12.8511,12.8511,12.8511,12.8511,12.8511,12.8511,12.8511,12.8511,12.8511,12.8462,12.8511,12.8413,12.8511,12.8511,12.8511,12.8511,12.8511,12.8511,12.8469,12.8469,12.8511,12.8511,12.8315,12.8023,12.7681,12.7534,12.7437,12.7486,12.7193,12.6607,12.6453,12.6412,12.6502,12.7144,12.7534,12.7486,12.7388,12.7039,12.6599,12.6404,12.6062,12.5476,12.5379,12.5224,12.4842,12.5184,12.5184,12.4891,12.4207,12.4109,12.4793,12.4305,12.4158,12.4891,12.5769,12.6086,12.5693,12.5017,12.3959,12.2589,12.2111,12.1517,12.0814,12.0223,11.9714,11.966,11.9158,11.8839,11.9074,11.9155,11.9284,11.9558,11.9639,11.9155,11.8549,11.8265,11.8022,11.8225,11.8387,11.8427,11.867,11.8953,11.9276,11.9687,12.0049,12.0322,12.0602,12.0649,12.0897,12.1193,12.1122,12.0882,12.198,12.1931,12.2077,12.2077,12.2223,12.3288,12.3816,12.4118,12.5916,12.6648,12.6844,12.7925,12.8364,12.8511,12.8511,12.8511,12.8511,12.8511,12.8511,12.8511,12.8511,12.8511,12.8511,12.8511,12.8511,12.8511,12.8511,12.8511,12.8511,12.8511,12.8511,12.8511,12.8511,12.8511,12.8511,12.8511,12.8511,12.8511,12.8511,12.8511,12.8511,12.8511,12.8511,12.8511,12.8315,12.7827,12.699,12.6062,12.5672,12.5574,12.5574,12.5468,12.5468,12.542,12.542,12.5379,12.5428,12.5476,12.5525,12.5623,12.5721,12.5525,12.5428,12.5517,12.5379,12.533,12.5037,12.45,12.4842,12.5037,12.4216,12.3874,12.3923,12.3914,12.3923,12.3834,12.4126,12.4801,12.4712,12.3082,12.1532,11.9515,11.8644,11.884,11.8779,11.8079,11.7653,11.7606,11.7687,11.7634,11.7534,11.7981,11.8265,11.8427,11.867,11.8792,11.7981,11.7277,11.7055,11.6821,11.6957,11.689,11.6837,11.6924,11.7159,11.74,11.7762,11.825,11.8674,11.8874,11.9281,11.9385,11.9393,11.9408,11.9457,11.9969,12.0213,12.1492,12.2077,12.2321,12.4069,12.4891,12.5037,12.6355,12.6941,12.7136,12.8023,12.8511,12.8511,12.8511,12.8511,12.8511,12.8511,12.8511,12.8511,12.8511,12.8511,12.8511,12.8511,12.8511,12.8511,12.8511,12.8511,12.8511,12.8511,12.8511,12.8511,12.8511,12.8511,12.8511,12.8511,12.8511,12.8511,12.8511,12.8511,12.8511,12.8511,12.8511,12.8315,12.7095,12.6209,12.5916,12.5566,12.5379,12.5379,12.5379,12.5037,12.4451,12.4354,12.4354,12.4451,12.498,12.5379,12.5379,12.5379,12.533,12.533,12.533,12.5379,12.5379,12.5379,12.5232,12.5037,12.5232,12.5322,12.4842,12.4167,12.4109,12.4695,12.4256,12.3827,12.398,12.4197,12.3781,12.2603,12.125,11.987,11.8617,11.8225,11.7819,11.7127,11.7045,11.7045,11.7045,11.7045,11.7167,11.733,11.7453,11.7656,11.7496,11.7435,11.6868,11.6278,11.5956,11.5408,11.5247,11.4973,11.488,11.4973,11.514,11.538,11.5787,11.6265,11.6456,11.6568,11.702,11.7552,11.7504,11.7472,11.748,12.0067,12.0213,12.154,12.2077,12.2272,12.402,12.4842,12.4891,12.5916,12.6599,12.6998,12.7632,12.8169,12.842,12.773,12.7339,12.7388,12.7339,12.7583,12.7925,12.7925,12.812,12.8462,12.8511,12.8511,12.8511,12.8511,12.8511,12.8511,12.8511,12.8511,12.8511,12.8511,12.8511,12.8511,12.8511,12.8511,12.8511,12.8511,12.8315,12.7932,12.7925,12.773,12.729,12.5721,12.4793,12.4793,12.4402,12.4207,12.4207,12.4207,12.3727,12.28,12.2654,12.2458,12.2205,12.2694,12.3231,12.3572,12.3621,12.3768,12.4109,12.4207,12.4118,12.4167,12.4167,12.4167,12.4216,12.45,12.4305,12.3776,12.2764,12.2555,12.339,12.2897,12.2219,12.2401,12.2382,12.2056,12.1265,12.0543,11.9463,11.8123,11.7778,11.7575,11.7127,11.7045,11.7045,11.7045,11.7045,11.7045,11.7045,11.7045,11.677,11.6209,11.5929,11.5788,11.514,11.4813,11.4439,11.4345,11.4205,11.4065,11.4245,11.4292,11.4491,11.4618,11.5055,11.5055,11.508,11.5199,11.5579,11.5493,11.5611,11.5595,12.1931,12.1784,12.1882,12.1931,12.2223,12.3435,12.4012,12.4207,12.4988,12.5916,12.6746,12.6851,12.7388,12.8071,12.6355,12.5468,12.5428,12.5525,12.6014,12.6844,12.6851,12.7388,12.8322,12.8364,12.8315,12.8071,12.8071,12.8218,12.8322,12.842,12.8511,12.8511,12.8511,12.842,12.8364,12.8315,12.8413,12.8169,12.8169,12.7827,12.699,12.6795,12.6258,12.5232,12.4305,12.3727,12.363,12.2614,12.2028,12.2028,12.198,12.1492,12.0604,12.0506,12.0116,11.9276,11.9091,11.9569,12.0457,12.0653,12.0916,12.1656,12.1772,12.1851,12.1772,12.1772,12.1812,12.198,12.26,12.2277,12.064,11.9709,11.9692,12.0561,11.9969,11.948,11.9382,11.9382,11.8979,11.834,11.7995,11.753,11.7027,11.6911,11.6718,11.6671,11.677,11.6677,11.6583,11.6677,11.663,11.663,11.6537,11.6162,11.4439,11.4392,11.4252,11.3878,11.3831,11.3738,11.3785,11.3785,11.3691,11.3644,11.3364,11.3364,11.3644,11.3684,11.3616,11.3562,11.3626,11.3673,11.362,11.3749,11.3734,11.9335,11.8749,11.9481,12.0662,12.2223,12.4158,12.4939,12.5029,12.5232,12.5476,12.5769,12.5769,12.5965,12.6111,12.5623,12.5379,12.5379,12.5379,12.5566,12.5769,12.581,12.6006,12.6209,12.6209,12.6209,12.6209,12.6258,12.6648,12.7388,12.812,12.8511,12.8511,12.8511,12.812,12.7437,12.7339,12.6998,12.6306,12.6209,12.6111,12.5769,12.5045,12.4118,12.3053,12.2702,12.2565,12.2516,12.1492,12.0906,12.0906,12.0213,11.9715,11.9384,11.9422,11.9276,11.8944,11.8944,11.9091,11.9374,11.9384,11.9248,11.8906,11.8789,11.8828,11.8876,11.8837,11.9111,11.954,11.901,11.8429,11.7581,11.7337,11.7275,11.7603,11.7454,11.7028,11.6568,11.6401,11.6414,11.6178,11.5723,11.5241,11.5682,11.5321,11.4906,11.4947,11.486,11.4766,11.4766,11.4813,11.4853,11.4766,11.4806,11.4439,11.4065,11.3738,11.3464,11.3177,11.2756,11.2476,11.1782,11.1689,11.1642,11.1922,11.1735,11.1735,11.2016,11.1829,11.172,11.1681,11.1673,11.1759,11.1922,11.1728,11.1728,11.8592,11.8017,11.869,11.9676,12.0848,12.2166,12.2742,12.2791,12.3182,12.3621,12.3914,12.3084,12.2742,12.2742,12.2742,12.2986,12.3377,12.3426,12.3865,12.4695,12.4744,12.4988,12.533,12.5379,12.5379,12.5379,12.5379,12.5761,12.6306,12.69,12.7193,12.7242,12.7234,12.69,12.6355,12.6306,12.6014,12.5379,12.5379,12.4891,12.4061,12.2995,12.2166,12.1492,12.1004,12.0848,12.0711,12.0213,11.9872,11.9862,11.9286,11.8788,11.8261,11.8261,11.8066,11.7665,11.7616,11.7658,11.7751,11.7751,11.7559,11.7178,11.7139,11.7139,11.7139,11.7139,11.6755,11.6176,11.5532,11.5344,11.5766,11.5462,11.5458,11.5799,11.5619,11.5272,11.4758,11.4726,11.4748,11.4746,11.4252,11.4205,11.4532,11.4252,11.3972,11.3925,11.3925,11.4018,11.3972,11.3925,11.3925,11.3831,11.313,11.2717,11.2576,11.2623,11.2343,11.1829,11.1408,11.0988,11.024,10.9913,10.9726,11.0146,11.024,11.0333,11.0567,11.0801,11.0801,11.0894,11.0847,11.0801,11.0801,11.0801,11.0287,11.8885,11.8836,11.8885,11.8944,11.8993,11.9042,11.9129,11.9188,11.9969,12.0897,12.1248,11.9725,11.9081,11.8934,11.8592,11.8895,11.9823,11.953,12.0506,12.2507,12.2898,12.3532,12.45,12.4793,12.4939,12.4793,12.4891,12.4988,12.5232,12.5281,12.5281,12.533,12.5379,12.533,12.5232,12.5232,12.5135,12.5037,12.4891,12.3776,12.1833,12.0897,12.0321,12.036,11.9471,11.8944,11.9042,11.8885,11.8788,11.869,11.8495,11.7968,11.6905,11.6759,11.6357,11.5516,11.5381,11.5433,11.5547,11.5539,11.5493,11.5766,11.5553,11.5505,11.5553,11.5523,11.4386,11.2573,11.2487,11.3279,11.4166,11.3707,11.3524,11.3941,11.3627,11.3504,11.331,11.3464,11.3598,11.3691,11.3551,11.3691,11.3651,11.3504,11.3504,11.3317,11.3224,11.327,11.327,11.327,11.327,11.2803,11.1774,11.0652,11.052,11.052,11.0427,11.0427,10.9726,10.9305,10.9025,10.8502,10.7988,10.8978,10.9118,10.9352,11.0006,11.052,11.038,11.0091,11.0185,11.038,11.0474,11.0333,10.895,11.8446,11.7724,11.8554,11.8944,11.8944,11.8944,11.8944,11.8944,11.9178,11.8456,11.7431,11.8495,11.8944,11.8592,11.543,11.4552,11.5002,11.2111,11.2685,11.6054,11.6309,11.7773,12.0252,12.1238,12.158,12.1678,12.2458,12.3288,12.4069,12.4158,12.4549,12.5281,12.5379,12.4939,12.4167,12.4207,12.3727,12.276,12.1189,12.0204,11.9715,11.9432,11.9325,11.9325,11.9032,11.8944,11.8895,11.8066,11.7236,11.6406,11.5625,11.471,11.3722,11.3624,11.3478,11.3283,11.3234,11.3,11.249,11.1858,11.1329,11.0778,11.0702,11.0702,11.0664,11.005,10.9633,10.983,11.0056,11.0291,11.0667,11.1047,11.0837,10.9602,10.9888,11.052,11.038,11.0287,11.0847,11.2296,11.1969,11.1915,11.2296,11.2016,11.1548,11.1502,11.1502,11.1502,11.1502,11.1502,11.0707,10.9577,10.8736,10.8502,10.8408,10.8417,10.8502,10.8362,10.8175,10.8081,10.8035,10.7894,10.7848,10.7894,10.8035,10.8108,10.8277,10.8342,10.8237,10.795,10.7882,10.8085,10.7979,10.7979,10.6726,11.5625,11.5186,11.5772,11.6054,11.6054,11.6016,11.6054,11.5869,11.3954,11.2392,11.1659,11.46,11.6016,11.5809,11.3575,11.338,11.4747,11.2404,11.3087,11.62,11.6346,11.7285,11.8934,11.953,11.9774,11.9823,12.0409,12.0994,12.1619,12.2108,12.2605,12.3182,12.363,12.3581,12.3004,12.2556,12.197,12.1296,11.7295,11.5235,11.5186,11.2843,11.1818,11.2258,11.2294,11.2062,11.1574,11.0989,10.9928,10.8402,10.7851,10.8158,10.9511,10.9609,11.0536,11.2404,11.255,11.1978,11.0749,11.029,10.9651,10.8532,10.842,10.7855,10.648,10.6742,10.7202,10.7763,10.8277,10.8698,10.9259,10.9773,10.9819,10.9118,10.9586,10.996,11.0006,10.996,11.0427,11.1361,11.1128,11.0801,11.0941,11.0474,10.996,10.9399,10.9352,10.939,10.939,10.939,10.8969,10.7979,10.7661,10.7661,10.7707,10.7661,10.7661,10.7661,10.7287,10.7006,10.6959,10.6492,10.6492,10.6866,10.6959,10.6575,10.549,10.5452,10.4691,10.3964,10.3235,10.3274,10.3274,10.3235,10.1641,11.2502,11.2306,11.2502,11.2111,11.1428,11.1611,11.1281,11.0501,10.7544,10.6323,10.6861,11.0829,11.255,11.2502,11.1867,11.2734,11.4454,11.3954,11.4991,11.7372,11.7372,11.7714,11.8299,11.8446,11.8592,11.8739,11.8885,11.8944,11.9081,11.9911,12.0311,12.0409,12.1199,12.1638,12.1589,12.075,12.0018,11.9286,11.3697,11.1014,11.1355,10.6819,10.4512,10.4644,10.4824,10.3912,10.2268,10.2527,10.1405,9.8869,9.8869,10.0332,10.3536,10.3533,10.5482,10.9284,10.9603,10.9087,10.7755,10.8009,10.7761,10.6959,10.71,10.5828,10.2741,10.4528,10.5978,10.6165,10.6959,10.781,10.866,10.8893,10.9212,10.9632,10.996,11.01,10.9913,10.9913,11.0053,11.0474,11.0474,10.996,10.9492,10.9212,10.8698,10.7988,10.8035,10.7801,10.7848,10.7474,10.7287,10.724,10.724,10.724,10.7006,10.7193,10.7053,10.724,10.6445,10.5884,10.565,10.5043,10.4715,10.5323,10.5276,10.468,10.322,10.2421,10.1084,9.941,9.8128,9.7754,9.8039,9.6411,9.5003,11.2014,11.116,11.216,10.9964,10.5913,10.6909,10.5215,10.2188,0.0,0.0,0.0,11.1379,11.255,11.2306,10.8828,10.7949,10.8792,10.5425,10.5913,10.9622,10.9706,11.1574,11.4953,11.5869,11.6699,11.7539,11.8505,11.8944,11.8983,11.914,11.9276,11.9276,11.9422,11.952,11.952,11.9325,11.748,11.4064,11.1843,11.2124,11.4612,11.3051,11.011,10.5933,10.5801,10.3604,9.9096,10.056,9.9162,9.4194,9.4569,9.4246,9.2373,9.1833,9.2882,9.5641,9.5487,9.5972,9.753,9.8451,10.0024,10.2543,10.4201,10.3126,9.8473,10.2238,10.523,10.6071,10.6305,10.6445,10.6642,10.7436,10.7343,10.5847,10.6455,10.7006,10.7006,10.6959,10.767,10.9118,10.8782,10.8455,10.8978,10.8464,10.7848,10.7707,10.7567,10.7661,10.7474,10.6258,10.5333,10.5333,10.5463,10.5203,10.5109,10.5046,10.5099,10.4658,10.4666,10.4575,10.3957,10.3583,10.3245,10.2332,10.2425,10.2074,10.1688,9.9474,9.8144,9.8115,9.6147,9.4504,9.4595,9.0061,8.5724,10.8597,0.0,10.8828,10.7412,0.0,10.5605,10.2758,9.7354,9.8916,10.1406,10.4644,10.79,10.9316,10.9169,10.707,10.6972,10.8353,10.6303,10.7049,11.011,11.0159,11.1281,11.338,11.3868,11.4356,11.4893,11.5978,11.6504,11.6553,11.7578,11.6954,11.4893,11.5967,11.5137,11.2587,11.3564,11.1672,10.6889,10.7865,10.8939,10.9817,10.7328,10.4985,10.2969,10.3359,0.0,0.0,0.0,0.0,0.0,0.0,0.0,0.0,0.0,0.0,9.0623,8.8403,8.6589,8.5878,8.7686,8.9875,9.2175,9.3716,9.3248,9.024,9.415,9.7435,9.9012,10.0637,10.2752,10.5744,10.6585,10.6679,10.6258,10.6128,10.6118,10.6071,10.5697,10.58,10.6688,10.6913,10.6828,10.6875,10.7202,10.7287,10.6352,10.6539,10.6726,10.6128,10.5193,10.4585,10.4585,10.4585,10.3887,10.2097,10.1511,10.1016,9.8884,9.8381,9.8202,9.78,9.7747,9.7576,9.7093,9.6914,9.6259,9.4906,9.3278,9.1733,9.0381,8.895,8.8157,8.8169,8.5373,8.2422,10.5459,10.4531,10.5605,10.4971,10.3326,10.4629,10.1699,9.6036,9.5468,9.7274,10.0821,10.4516,10.6128,10.6128,10.6128,10.707,10.8646,10.8646,10.972,11.1623,11.1428,11.1623,11.2209,11.2014,11.216,11.2599,11.3429,11.3831,11.3831,11.549,11.4563,11.1294,11.2904,11.133,10.6763,0.0,0.0,0.0,10.4678,10.624,10.5815,10.2316,10.0397,10.03,10.0934,0.0,9.8575,9.7762,9.612,9.3327,9.1707,0.0,0.0,0.0,0.0,0.0,0.0,0.0,0.0,0.0,0.0,0.0,8.1632,8.2129,8.2895,8.6093,8.851,8.9756,9.4136,9.8426,10.177,10.2576,10.3687,10.5323,10.4528,10.4341,10.5463,10.4445,10.3931,10.4258,10.4856,10.5053,10.4819,10.5837,10.6211,10.4959,10.5286,10.5463,10.4726,10.4,10.3751,10.4086,10.274,10.1014,9.7923,9.7339,9.6225,9.3462,9.2314,9.2457,9.2435,9.2318,9.2127,9.1939,9.1766,9.0978,8.8633,8.7284,8.6525,8.3705,8.2777,8.2157,8.2005,8.2044,8.1967,10.5459,10.4497,10.5654,10.3311,9.895,10.1032,10.1374,10.0544,10.2203,10.3277,10.3863,10.5459,10.6128,10.6128,10.6128,10.6275,10.6519,10.6519,10.7168,10.8242,10.7363,10.8437,11.0953,11.0074,11.066,11.2502,11.2697,11.2746,11.2746,11.299,11.2843,11.2355,11.2599,11.1025,10.7509,10.4902,10.282,10.1374,10.541,10.8828,11.1379,10.9977,10.7,10.2707,10.1715,9.8982,9.4248,9.4815,9.2809,8.765,8.7834,8.6869,8.3961,7.9953,7.6493,0.0,7.0259,0.0,0.0,0.0,0.0,0.0,0.0,0.0,0.0,8.3129,8.2913,8.05,9.0474,9.4324,8.7886,8.9771,9.3262,9.7691,9.6615,9.7644,10.2788,10.1899,10.135,10.3162,10.2694,10.2892,10.4071,10.4061,10.4061,10.4492,10.4169,10.3392,10.3977,10.1647,10.0628,10.3117,9.8641,9.5355,9.39,9.3271,9.2808,9.2388,9.1698,9.2016,9.0766,9.0675,9.0531,8.9706,8.9325,8.9283,8.9126,8.6607,8.5077,8.4974,8.3007,8.1285,8.0639,8.0525,8.0373,10.3667,10.2691,10.3262,10.1748,9.8982,9.9958,10.1081,10.2121,10.2496,10.3701,10.5312,10.4629,10.4302,10.4302,10.4302,10.4302,10.4351,10.4922,10.5752,10.6763,10.6372,10.7168,10.9036,10.8046,10.8011,10.9023,11.0159,11.0745,11.0793,11.1965,11.1366,10.9023,10.9524,10.6297,9.9633,9.9844,10.1422,10.3945,10.5264,10.7426,11.0549,10.9635,10.7927,10.562,10.4531,10.2822,10.043,9.9616,9.8105,9.5515,9.4105,9.1646,8.7766,7.9297,7.3629,0.0,0.0,0.0,0.0,0.0,0.0,0.0,0.0,0.0,0.0,0.0,7.3773,7.5878,8.879,9.409,8.6968,8.907,9.0659,9.013,8.7309,8.7823,9.3917,9.323,9.2683,9.3603,9.5366,9.7236,9.9211,9.8532,9.9413,10.3957,9.7485,9.228,9.2209,9.2773,9.3164,9.4253,9.3535,9.2703,9.2436,9.044,8.8151,8.6097,8.5527,8.5369,8.4971,8.4853,8.4696,8.4262,8.4142,8.4142,8.4105,8.2918,8.2214,8.2416,8.1512,8.0563,8.0145,8.0107,8.0107,10.1666,10.069,9.8396,9.7116,9.6634,9.6886,9.8398,10.0656,10.0836,10.2432,10.4809,10.2365,10.0836,9.986,9.7767,9.7606,9.9114,10.0266,10.2363,10.5058,10.5293,10.6045,10.7265,10.6484,10.6128,10.6226,10.7474,10.8255,10.8499,10.889,10.7244,10.3859,10.4215,10.0038,9.1676,9.5112,9.9454,10.4313,10.4658,10.6045,10.8353,10.7719,10.7314,10.7314,10.624,10.5703,10.5688,10.3619,10.2365,10.2024,9.791,9.3818,8.995,7.8243,0.0,0.0,0.0,0.0,0.0,0.0,0.0,0.0,0.0,6.3555,5.4451,0.0,6.713,0.0,8.5812,9.1424,8.6734,8.7201,0.0,0.0,7.8643,7.7816,8.3316,8.4204,8.4331,8.4393,8.8216,9.1547,9.3356,9.2248,9.3559,9.9289,9.019,8.2625,8.2514,8.4751,8.6252,8.6025,8.648,8.751,8.7375,8.5381,8.268,8.0408,8.0145,8.0107,8.0107,8.0107,8.0107,8.0107,8.0107,8.0107,8.0258,8.0107,8.0145,8.0107,8.0107,8.0107,8.0107,8.0107,8.0107,9.9893,9.9063,9.0148,8.6962,8.7792,8.8911,9.1363,9.4804,9.827,10.0495,10.1422,9.8299,9.5087,9.1433,8.3308,0.0,8.8216,8.9868,9.4766,10.2174,10.2795,10.4204,10.6191,10.6177,10.6128,10.6128,10.5215,10.5312,10.6142,10.1569,9.827,9.6655,9.5764,9.2644,8.788,9.216,9.6138,9.9354,10.3724,10.6128,10.6372,10.6275,10.6275,10.6275,10.5166,10.4546,10.4448,10.2463,10.0934,9.9812,9.2755,8.6887,8.283,0.0,0.0,0.0,0.0,0.0,0.0,0.0,0.0,0.0,0.0,0.0,0.0,0.0,0.0,0.0,7.9873,0.0,8.2118,7.803,0.0,0.0,0.0,6.8687,7.291,7.6798,7.9259,7.9497,0.0,0.0,8.8152,8.635,8.5827,8.8336,8.5691,8.3221,8.2542,8.2807,8.3275,8.1354,7.6756,7.3969,7.6906,7.6503,7.6772,7.9042,8.0107,7.9879,7.9803,7.9917,8.0107,8.0107,8.0107,8.0107,8.0107,8.0107,8.0107,8.0107,8.0069,8.0031,7.9993,7.9955,7.9917,9.1005,8.34,7.9448,7.8358,7.9339,7.9789,8.2367,8.6383,8.7901,8.9212,9.0058,8.8191,8.5709,8.2659,7.8518,0.0,0.0,0.0,8.6241,9.3524,9.5602,9.9309,10.3975,10.4824,10.4741,10.4156,10.4302,10.4595,10.5068,10.3604,9.445,7.8186,0.0,0.0,7.8028,8.5556,9.2258,9.7772,10.3319,10.6128,10.6128,10.6128,10.5752,10.5117,10.4009,10.3439,10.3439,10.2057,9.8885,9.3698,8.93,8.2707,0.0,0.0,0.0,0.0,0.0,0.0,0.0,0.0,0.0,0.0,0.0,5.607,4.9804,0.0,0.0,0.0,6.561,6.5941,6.6345,7.1214,0.0,0.0,0.0,0.0,0.0,0.0,0.0,6.7018,7.3132,7.8093,8.0136,7.6193,7.345,7.4264,7.0611,6.7932,6.8082,0.0,7.2245,7.4039,7.2155,7.1508,7.4376,7.202,7.0687,7.3539,7.5625,7.6803,7.6425,7.8474,8.0031,8.0107,8.0107,8.0107,8.0107,8.0107,8.0107,8.0107,7.9652,7.9272,7.9235,7.8893,7.8588,7.9523,0.0,0.0,0.0,0.0,7.1103,7.3699,7.7673,7.8143,7.8998,7.9995,7.806,0.0,0.0,0.0,0.0,0.0,0.0,7.8907,8.5153,9.0806,9.5976,10.0753,10.1532,10.1678,10.111,10.0039,9.9033,9.8061,9.7719,8.6548,6.5632,0.0,0.0,0.0,0.0,8.7081,9.3809,10.132,10.5181,10.5132,10.5166,10.479,10.3927,10.3243,10.282,10.2771,9.9633,9.4994,8.8746,8.2754,0.0,0.0,0.0,0.0,0.0,0.0,0.0,0.0,0.0,0.0,0.0,0.0,0.0,0.0,0.0,0.0,0.0,0.0,0.0,5.6766,6.4505,6.5455,0.0,0.0,0.0,0.0,0.0,0.0,0.0,0.0,0.0,6.9434,6.7119,6.5783,0.0,0.0,6.1942,6.0052,6.3099,6.5756,6.6326,6.5991,0.0,6.894,6.6617,6.5339,6.7807,7.1413,7.3574,7.2514,7.4564,7.6309,7.5739,7.7107,7.7792,7.6803,7.6119,7.5663,7.5739,7.5248,7.4795,7.4795,7.4757,7.4638,0.0,0.0,0.0,0.0,0.0,0.0,0.0,0.0,7.0673,7.1895,0.0,6.8719,0.0,0.0,0.0,0.0,0.0,6.7332,0.0,0.0,8.9592,9.5498,9.5673,9.5755,9.6384,9.69,9.0951,8.63,8.2708,7.8899,0.0,0.0,0.0,0.0,0.0,0.0,8.0449,8.5995,9.7155,10.2917,10.2999,10.2999,10.2917,10.2902,10.282,10.2722,10.2396,9.4366,8.8746,8.6251,7.1775,0.0,0.0,0.0,0.0,0.0,0.0,0.0,0.0,0.0,0.0,0.0,0.0,0.0,0.0,0.0,0.0,0.0,0.0,0.0,0.0,5.7586,0.0,0.0,0.0,0.0,0.0,0.0,0.0,0.0,0.0,0.0,5.5675,6.0517,6.5545,6.7098,0.0,0.0,0.0,0.0,6.6971,5.9472,5.6671,5.5809,5.6026,5.8419,6.1116,6.3516,0.0,0.0,6.9206,6.8338,6.7579,6.5839,7.0279,7.2594,6.8528,6.656,6.5687,6.5581,6.5663,6.5429,6.5536,6.6801,6.7743,0.0,0.0,0.0,0.0,0.0,0.0,0.0,0.0,0.0,5.9221,0.0,5.7341,0.0,0.0,0.0,0.0,0.0,0.0,0.0,0.0,7.4329,7.9793,8.2963,8.635,8.6658,0.0,8.2109,7.5033,0.0,0.0,0.0,0.0,0.0,0.0,0.0,0.0,7.8082,8.4546,9.6524,10.282,10.282,10.282,10.282,10.282,10.282,9.9747,9.3248,8.7081,8.068,0.0,0.0,0.0,0.0,0.0,0.0,0.0,0.0,0.0,0.0,0.0,0.0,0.0,0.0,0.0,0.0,0.0,0.0,0.0,0.0,0.0,0.0,0.0,5.1798,0.0,0.0,0.0,0.0,0.0,0.0,0.0,0.0,0.0,5.1198,5.4648,5.8928,6.3217,6.4131,6.4762,6.5636,0.0,0.0,0.0,0.0,0.0,0.0,0.0,5.7643,5.8011,5.6823,5.6986,6.0812,6.3858,6.5612,6.5042,0.0,0.0,5.8125,5.8259,5.9673,5.9408,5.9744,5.9969,5.9472,6.0231,6.0918,0.0,0.0,0.0,0.0,0.0,0.0,0.0,0.0,0.0,5.0199,4.9267,0.0,0.0,0.0,0.0,0.0,0.0,0.0,0.0,0.0,0.0,0.0,7.2709,7.5774,0.0,0.0,0.0,0.0,0.0,0.0,0.0,0.0,0.0,0.0,0.0,0.0,7.6395,8.2238,9.569,10.282,10.282,10.282,10.282,10.282,10.2478,9.7912,8.8678,0.0,0.0,0.0,0.0,0.0,0.0,0.0,0.0,0.0,0.0,0.0,0.0,0.0,0.0,0.0,0.0,0.0,0.0,0.0,0.0,0.0,0.0,0.0,0.0,0.0,4.6662,0.0,0.0,0.0,0.0,0.0,0.0,0.0,0.0,0.0,0.0,0.0,5.356,5.8309,6.0409,6.2609,6.5725,6.6212,6.7579,0.0,0.0,0.0,0.0,0.0,0.0,0.0,0.0,0.0,0.0,0.0,0.0,0.0,0.0,5.712,4.9474,4.9838,5.1199,5.0692,0.0,0.0,0.0,0.0,0.0,0.0,0.0,0.0,0.0,0.0,0.0,0.0,0.0,0.0,0.0,0.0,0.0,0.0,4.4675,0.0,0.0,0.0,0.0,0.0,0.0,0.0,0.0,0.0,0.0,0.0,0.0,0.0,0.0,0.0,0.0,0.0,0.0,0.0,0.0,0.0,0.0,7.4928,7.8169,9.4116,10.2585,10.2686,10.2719,10.2686,10.2771,10.1731,9.7296,8.9211,0.0,0.0,0.0,0.0,0.0,0.0,0.0,0.0,0.0,0.0,0.0,0.0,0.0,0.0,0.0,0.0,0.0,0.0,0.0,0.0,0.0,0.0,0.0,0.0,0.0,0.0,3.7713,4.0395,4.3423,0.0,0.0,0.0,0.0,0.0,0.0,0.0,0.0,0.0,0.0,6.0989,6.5925,6.4177,6.3896,6.4693,6.6389,6.1087,5.8098,6.2208,6.196,6.0147,0.0,0.0,0.0,0.0,0.0,0.0,0.0,0.0,0.0,0.0,0.0,0.0,0.0,0.0,0.0,0.0,0.0,0.0,0.0,0.0,0.0,0.0,0.0,0.0,0.0,0.0,0.0,0.0,0.0,0.0,0.0,0.0,0.0,0.0,0.0,0.0,0.0,0.0,0.0,0.0,0.0,0.0,0.0,0.0,0.0,0.0,0.0,0.0,0.0,0.0,0.0,0.0,0.0,0.0,7.0577,7.4052,8.8869,9.7589,9.9657,9.9691,10.0689,10.2573,9.8563,9.1772,0.0,0.0,0.0,0.0,0.0,0.0,0.0,0.0,0.0,0.0,0.0,0.0,0.0,0.0,0.0,0.0,0.0,0.0,0.0,0.0,0.0,0.0,0.0,0.0,0.0,0.0,0.0,0.0,4.8444,4.7966,4.3953,0.0,0.0,0.0,0.0,0.0,0.0,0.0,0.0,0.0,0.0,6.1938,6.5434,6.5956,6.6617,6.8577,6.6945,6.4961,6.36,6.4655,6.3221,5.6455,0.0,0.0,0.0,0.0,0.0,0.0,0.0,0.0,0.0,0.0,0.0,0.0,0.0,0.0,0.0,0.0,0.0,0.0,0.0,0.0,0.0,0.0,0.0,0.0,0.0,0.0,0.0,0.0,0.0,0.0,0.0,0.0,0.0,0.0,0.0,0.0,0.0,0.0,0.0,0.0,0.0,0.0,0.0,0.0,0.0,0.0,0.0,0.0,0.0,0.0,0.0,0.0,0.0,6.8158,7.0915,8.601,9.4763,9.654,9.6644,9.7554,9.9397,9.4418,8.6457,0.0,0.0,0.0,0.0,0.0,0.0,0.0,0.0,0.0,0.0,0.0,0.0,0.0,0.0,0.0,0.0,0.0,0.0,0.0,0.0,0.0,0.0,0.0,0.0,0.0,0.0,0.0,0.0,4.5376,4.5579,4.1187,0.0,0.0,0.0,0.0,0.0,0.0,0.0,0.0,0.0,0.0,5.7759,6.2434,6.2817,0.0,0.0,6.7309,6.5937,6.5763,6.7769,6.6219,5.6771,5.3568,0.0,0.0,0.0,0.0,0.0,0.0,0.0,0.0,0.0,0.0,0.0,0.0,0.0,0.0,0.0,0.0,0.0,0.0,0.0,0.0,0.0,0.0,0.0,0.0,0.0,0.0,0.0,0.0,0.0,0.0,0.0,0.0,0.0,0.0,0.0,0.0,0.0,0.0,0.0,0.0,0.0,0.0,0.0,0.0,0.0,0.0,0.0,0.0,0.0,0.0,0.0,0.0,0.0,6.8409,8.4623,9.3321,9.3604,9.3568,9.3674,9.3831,8.9638,8.1593,0.0,0.0,0.0,0.0,0.0,0.0,0.0,0.0,0.0,0.0,0.0,0.0,0.0,0.0,0.0,0.0,0.0,0.0,0.0,0.0,0.0,0.0,0.0,0.0,0.0,0.0,0.0,0.0,0.0,0.0,0.0,0.0,0.0,0.0,0.0,0.0,0.0,0.0,0.0,0.0,0.0,5.3471,5.6262,5.5929,5.8018,0.0,0.0,6.1959,6.6769,6.9867,6.7999,5.6854,0.0,0.0,0.0,0.0,0.0,0.0,0.0,0.0,0.0,0.0,0.0,0.0,0.0,0.0,0.0,0.0,0.0,0.0,0.0,0.0,0.0,0.0,0.0,0.0,0.0,0.0,0.0,0.0,0.0,0.0,0.0,0.0,0.0,0.0,0.0,0.0,0.0,0.0,0.0,0.0,0.0,0.0,0.0,0.0,0.0,0.0,0.0,0.0,0.0,0.0,0.0,0.0,0.0,0.0,6.4098,7.917,8.8141,9.0295,9.0403,9.1511,9.3681,8.6566,0.0,0.0,0.0,0.0,0.0,0.0,0.0,0.0,0.0,0.0,0.0,0.0,0.0,0.0,0.0,0.0,0.0,0.0,0.0,0.0,0.0,0.0,0.0,0.0,0.0,0.0,0.0,2.9219,0.0,0.0,0.0,0.0,0.0,0.0,0.0,0.0,0.0,0.0,0.0,0.0,0.0,0.0,5.092,5.3398,5.2048,5.2486,0.0,0.0,5.6008,5.4884,6.076,6.193,0.0,0.0,0.0,0.0,0.0,0.0,0.0,0.0,0.0,0.0,0.0,0.0,0.0,0.0,0.0,0.0,0.0,0.0,0.0,0.0,0.0,0.0,0.0,0.0,0.0,0.0,0.0,0.0,0.0,0.0,0.0,0.0,0.0,0.0,0.0,0.0,0.0,0.0,0.0,0.0,0.0,0.0,0.0,0.0,0.0,0.0,0.0,0.0,0.0,0.0,0.0,0.0,0.0,0.0,5.8771,6.2671,7.3973,8.2318,8.7064,8.6888,8.7548,8.9301,8.092,7.2755,0.0,0.0,0.0,0.0,0.0,0.0,0.0,0.0,0.0,0.0,0.0,0.0,0.0,0.0,0.0,0.0,0.0,0.0,0.0,0.0,0.0,0.0,0.0,0.0,0.0,0.0,0.0,0.0,0.0,0.0,0.0,0.0,0.0,0.0,0.0,0.0,0.0,0.0,0.0,0.0,0.0,0.0,5.0407,4.8841,0.0,0.0,0.0,5.3135,5.2172,0.0,0.0,0.0,0.0,0.0,0.0,0.0,0.0,0.0,0.0,0.0,0.0,0.0,0.0,0.0,0.0,0.0,0.0,0.0,0.0,0.0,0.0,0.0,0.0,0.0,0.0,0.0,0.0,0.0,0.0,0.0,0.0,0.0,0.0,0.0,0.0,0.0,0.0,0.0,0.0,0.0,0.0,0.0,0.0,0.0,0.0,0.0,0.0,0.0,0.0,0.0,0.0,0.0,0.0,0.0,0.0,0.0,6.2169,6.9884,7.7251,8.4019,8.3694,8.3255,8.3171,7.5597,6.8797,0.0,0.0,0.0,0.0,0.0,0.0,0.0,0.0,0.0,0.0,0.0,0.0,0.0,0.0,0.0,0.0,0.0,0.0,0.0,0.0,0.0,0.0,0.0,0.0,0.0,0.0,0.0,0.0,0.0,0.0,0.0,0.0,0.0,0.0,0.0,0.0,0.0,0.0,0.0,0.0,0.0,4.6257,4.7424,4.5941,4.4922,0.0,0.0,5.0948,5.291,5.5123,0.0,0.0,0.0,0.0,0.0,0.0,0.0,0.0,0.0,0.0,0.0,0.0,0.0,0.0,0.0,0.0,0.0,0.0,0.0,0.0,0.0,0.0,0.0,0.0,0.0,0.0,0.0,0.0,0.0,0.0,0.0,0.0,0.0,0.0,0.0,0.0,0.0,0.0,0.0,0.0,0.0,0.0,0.0,0.0,0.0,0.0,0.0,0.0,0.0,0.0,0.0,0.0,0.0,0.0,0.0,0.0,6.1324,7.0101,7.7291,8.2442,8.2559,8.2478,8.2393,7.8554,7.1752,0.0,0.0,0.0,0.0,0.0,0.0,0.0,0.0,0.0,0.0,0.0,0.0,0.0,0.0,0.0,0.0,0.0,0.0,0.0,0.0,0.0,0.0,0.0,0.0,0.0,0.0,0.0,0.0,0.0,0.0,0.0,0.0,0.0,0.0,0.0,0.0,0.0,0.0,0.0,0.0,0.0,4.2873,4.4911,4.2744,0.0,0.0,0.0,0.0,4.3742,4.464,0.0,0.0,0.0,0.0,0.0,0.0,0.0,0.0,0.0,0.0,0.0,0.0,0.0,0.0,0.0,0.0,0.0,0.0,0.0,0.0,0.0,0.0,0.0,0.0,0.0,0.0,0.0,0.0,0.0,0.0,0.0,0.0,0.0,0.0,0.0,0.0,0.0,0.0,0.0,0.0,0.0,0.0,0.0,0.0,0.0,0.0,0.0,0.0,0.0,0.0,0.0,0.0,0.0,0.0,0.0,0.0,6.19,6.6979,7.3589,8.1874,8.1794,8.1552,8.1507,7.7368,7.0857,0.0,0.0,0.0,0.0,0.0,0.0,0.0,0.0,0.0,0.0,0.0,0.0,0.0,0.0,0.0,0.0,0.0,0.0,0.0,0.0,0.0,0.0,0.0,0.0,0.0,0.0,0.0,0.0,0.0,0.0,0.0,0.0,0.0,0.0,0.0,0.0,0.0,0.0,0.0,0.0,3.9782,4.0867,4.2613,0.0,0.0,0.0,0.0,0.0,0.0,4.1426,4.0648,0.0,0.0,0.0,0.0,0.0,0.0,0.0,0.0,0.0,0.0,0.0,0.0,0.0,0.0,0.0,0.0,0.0,0.0,0.0,0.0,0.0,0.0,0.0,0.0,0.0,0.0,0.0,0.0,0.0,0.0,0.0,0.0,0.0,0.0,0.0,0.0,0.0,0.0,0.0,0.0,0.0,0.0,0.0,0.0,0.0,0.0,0.0,0.0,0.0,0.0,0.0,0.0,0.0,0.0,0.0,6.1312,6.2733,6.8944,8.0204,8.059,8.0626,8.047,7.5017,6.8566,6.1353,0.0,0.0,0.0,0.0,0.0,0.0,0.0,0.0,0.0,0.0,0.0,0.0,0.0,0.0,0.0,0.0,0.0,0.0,0.0,0.0,0.0,0.0,0.0,0.0,0.0,0.0,0.0,0.0,0.0,0.0,0.0,0.0,0.0,0.0,0.0,0.0,0.0,0.0,0.0,3.8583,3.9169,0.0,0.0,0.0,0.0,0.0,0.0,0.0,0.0,3.9294,0.0,0.0,0.0,0.0,0.0,0.0,0.0,0.0,0.0,0.0,0.0,0.0,0.0,0.0,0.0,0.0,0.0,0.0,0.0,0.0,0.0,0.0,0.0,0.0,0.0,0.0,0.0,0.0,0.0,0.0,0.0,0.0,0.0,0.0,0.0,0.0,0.0,0.0,0.0,0.0,0.0,0.0,0.0,0.0,0.0,0.0,0.0,0.0,0.0,0.0,0.0,0.0,0.0,0.0,0.0,0.0,5.9213,6.6049,7.3422,7.7649,7.974,7.9659,7.4129,6.6959,5.8202,0.0,0.0,0.0,0.0,0.0,0.0,0.0,0.0,0.0,0.0,0.0,0.0,0.0,0.0,0.0,0.0,0.0,0.0,0.0,0.0,0.0,0.0,0.0,0.0,0.0,0.0,0.0,0.0,0.0,0.0,0.0,0.0,0.0,0.0,0.0,0.0,0.0,0.0,3.1833,3.4185,0.0,0.0,0.0,0.0,0.0,0.0,0.0,0.0,3.6983,0.0,0.0,0.0,0.0,0.0,0.0,0.0,0.0,0.0,0.0,0.0,0.0,0.0,0.0,0.0,0.0,0.0,0.0,0.0,0.0,0.0,0.0,0.0,0.0,0.0,0.0,0.0,0.0,0.0,0.0,0.0,0.0,0.0,0.0,0.0,0.0,0.0,0.0,0.0,0.0,0.0,0.0,0.0,0.0,0.0,0.0,0.0,0.0,0.0,0.0,0.0,0.0,0.0,0.0,0.0,0.0,0.0,0.0,6.4043,7.0615,7.5094,7.7343,7.7061,6.8852,6.1568,0.0,0.0,0.0,0.0,0.0,0.0,0.0,0.0,0.0,0.0,0.0,0.0,0.0,0.0,0.0,0.0,0.0,0.0,0.0,0.0,0.0,0.0,0.0,0.0,0.0,0.0,0.0,0.0,0.0,0.0,0.0,0.0,0.0,0.0,0.0,0.0,0.0,0.0,0.0,0.0,0.0,0.0,0.0,0.0,0.0,0.0,0.0,0.0,0.0,0.0,0.0,0.0,0.0,0.0,0.0,0.0,0.0,0.0,0.0,0.0,0.0,0.0,0.0,0.0,0.0,0.0,0.0,0.0,0.0,0.0,0.0,0.0,0.0,0.0,0.0,0.0,0.0,0.0,0.0,0.0,0.0,0.0,0.0,0.0,0.0,0.0,0.0,0.0,0.0,0.0,0.0,0.0,0.0,0.0,0.0,0.0,0.0,0.0,0.0,0.0,0.0,0.0,0.0,0.0,0.0,0.0,0.0,0.0,6.175,6.7626,7.2391,7.4897,7.4784,6.3445,5.5905,0.0,0.0,0.0,0.0,0.0,0.0,0.0,0.0,0.0,0.0,0.0,0.0,0.0,0.0,0.0,0.0,0.0,0.0,0.0,0.0,0.0,0.0,0.0,0.0,0.0,0.0,0.0,0.0,0.0,0.0,0.0,0.0,0.0,0.0,0.0,0.0,0.0,0.0,0.0,0.0,0.0,0.0,0.0,0.0,0.0,0.0,0.0,0.0,3.4845,0.0,0.0,0.0,0.0,0.0,0.0,0.0,0.0,0.0,0.0,0.0,0.0,0.0,0.0,0.0,0.0,0.0,0.0,0.0,0.0,0.0,0.0,0.0,0.0,0.0,0.0,0.0,0.0,0.0,0.0,0.0,0.0,0.0,0.0,0.0,0.0,0.0,0.0,0.0,0.0,0.0,0.0,0.0,0.0,0.0,0.0,0.0,0.0,0.0,0.0,0.0,0.0,0.0,0.0,0.0,0.0,0.0,0.0,0.0,5.8023,6.1726,6.9194,7.3152,7.2766,6.0686,5.2068,0.0,0.0,0.0,0.0,0.0,0.0,0.0,0.0,0.0,0.0,0.0,0.0,0.0,0.0,0.0,0.0,0.0,0.0,0.0,0.0,0.0,0.0,0.0,0.0,0.0,0.0,0.0,0.0,0.0,0.0,0.0,0.0,0.0,0.0,0.0,0.0,0.0,0.0,0.0,0.0,0.0,0.0,0.0,0.0,0.0,0.0,0.0,0.0,0.0,0.0,0.0,0.0,0.0,0.0,0.0,0.0,0.0,0.0,0.0,0.0,0.0,0.0,0.0,0.0,0.0,0.0,0.0,0.0,0.0,0.0,0.0,0.0,0.0,0.0,0.0,0.0,0.0,0.0,0.0,0.0,0.0,0.0,0.0,0.0,0.0,0.0,0.0,0.0,0.0,0.0,0.0,0.0,0.0,0.0,0.0,0.0,0.0,0.0,0.0,0.0,0.0,0.0,0.0,0.0,0.0,0.0,0.0,0.0,5.2933,5.7279,6.3404,6.5152,6.2283,5.4174,4.8301,0.0,0.0,0.0,0.0,0.0,0.0,0.0,0.0,0.0,0.0,0.0,0.0,0.0,0.0,0.0,0.0,0.0,0.0,0.0,0.0,0.0,0.0,0.0,0.0,0.0,0.0,0.0,0.0,0.0,0.0,0.0,0.0,0.0,0.0,0.0,0.0,0.0,0.0,0.0,0.0,0.0,0.0,0.0,0.0,0.0,0.0,0.0,0.0,0.0,0.0,0.0,0.0,0.0,0.0,0.0,0.0,0.0,0.0,0.0,0.0,0.0,0.0,0.0,0.0,0.0,0.0,0.0,0.0,0.0,0.0,0.0,0.0,0.0,0.0,0.0,0.0,0.0,0.0,0.0,0.0,0.0,0.0,0.0,0.0,0.0,0.0,0.0,0.0,0.0,0.0,0.0,0.0,0.0,0.0,0.0,0.0,0.0,0.0,0.0,0.0,0.0,0.0,0.0,0.0,0.0,0.0,0.0,0.0,0.0,5.2732,5.6578,5.6526,5.2426,4.8207,4.4591,0.0,0.0,0.0,0.0,0.0,0.0,0.0,0.0,0.0,0.0,0.0,0.0,0.0,0.0,0.0,0.0,0.0,0.0,0.0,0.0,0.0,0.0,0.0,0.0,0.0,0.0,0.0,0.0,0.0,0.0,0.0,0.0,0.0,0.0,0.0,0.0,0.0,0.0,0.0,0.0,0.0,0.0,0.0,0.0,0.0,0.0,0.0,0.0,0.0,0.0,0.0,0.0,0.0,0.0,0.0,0.0,0.0,0.0,0.0,0.0,0.0,0.0,0.0,0.0,0.0,0.0,0.0,0.0,0.0,0.0,0.0,0.0,0.0,0.0,0.0,0.0,0.0,0.0,0.0,0.0,0.0,0.0,0.0,0.0,0.0,0.0,0.0,0.0,0.0,0.0,0.0,0.0,0.0,0.0,0.0,0.0,0.0,0.0,0.0,0.0,0.0,0.0,0.0,0.0,0.0,0.0,0.0,0.0,0.0,4.7609,4.8863,4.8665,4.6716,4.4182,4.0852,0.0,0.0,0.0,0.0,0.0,0.0,0.0,0.0,0.0,0.0,0.0,0.0,0.0,0.0,0.0,0.0,0.0,0.0,0.0,0.0,0.0,0.0,0.0,0.0,0.0,0.0,0.0,0.0,0.0,0.0,0.0,0.0,0.0,0.0,0.0,0.0,0.0,0.0,0.0,0.0,0.0,0.0,0.0,0.0,0.0,0.0,0.0,0.0,0.0,0.0,0.0,0.0,0.0,0.0,0.0,0.0,0.0,0.0,0.0,0.0,0.0,0.0,0.0,0.0,0.0,0.0,0.0,0.0,0.0,0.0,0.0,0.0,0.0,0.0,0.0,0.0,0.0,0.0,0.0,0.0,0.0,0.0,0.0,0.0,0.0,0.0,0.0,0.0,0.0,0.0,0.0,0.0,0.0,0.0,0.0,0.0,0.0,0.0,0.0,0.0,0.0,0.0,0.0,0.0,0.0,0.0,0.0,0.0,0.0,4.0225,4.1943,4.2736,4.2352,3.9883,3.7568,3.5448,0.0,0.0,0.0,0.0,0.0,0.0,0.0,0.0,0.0,0.0,0.0,0.0,0.0,0.0,0.0,0.0,0.0,0.0,0.0,0.0,0.0,0.0,0.0,0.0,0.0,0.0,0.0,0.0,0.0,0.0,0.0,0.0,0.0,0.0,0.0,0.0,0.0,0.0,0.0,0.0,0.0,0.0,0.0,0.0,0.0,0.0,0.0,0.0,0.0,0.0,0.0,0.0,0.0,0.0,0.0,0.0,0.0,0.0,0.0,0.0,0.0,0.0,0.0,0.0,0.0,0.0,0.0,0.0,0.0,0.0,0.0,0.0,0.0,0.0,0.0,0.0,0.0,0.0,0.0,0.0,0.0,0.0,0.0,0.0,0.0,0.0,0.0,0.0,0.0,0.0,0.0,0.0,0.0,0.0,0.0,0.0,0.0,0.0,0.0,0.0,0.0,0.0,0.0,0.0,0.0,0.0,0.0,0.0,3.6706,3.8736,3.9769,3.9579,3.7662,3.5861,0.0,0.0,0.0,0.0,0.0,0.0,0.0,0.0,0.0,0.0,0.0,0.0,0.0,0.0,0.0,0.0,0.0,0.0,0.0,0.0,0.0,0.0,0.0,0.0,0.0,0.0,0.0,0.0,0.0,0.0,0.0,0.0,0.0,0.0,0.0,0.0,0.0,0.0,0.0,0.0,0.0,0.0,0.0,0.0,0.0,0.0,0.0,0.0,0.0,0.0,0.0,0.0,0.0,0.0,0.0,0.0,0.0,0.0,0.0,0.0,0.0,0.0,0.0,0.0,0.0,0.0,0.0,0.0,0.0,0.0,0.0,0.0,0.0,0.0,0.0,0.0,0.0,0.0,0.0,0.0,0.0,0.0,0.0,0.0,0.0,0.0,0.0,0.0,0.0,0.0,0.0,0.0,0.0,0.0,0.0,0.0,0.0,0.0,0.0,0.0,0.0,0.0,0.0,0.0,0.0,0.0,0.0,0.0,3.557,3.8426,3.9768,3.9787,3.869,3.7776,3.5823,0.0,0.0,0.0,0.0,0.0,0.0,0.0,0.0,0.0,0.0,0.0,0.0,0.0,0.0,0.0,0.0,0.0,0.0,0.0,0.0,0.0,0.0,0.0,0.0,0.0,0.0,0.0,0.0,0.0,0.0,0.0,0.0,0.0,0.0,0.0,0.0,0.0,0.0,0.0,0.0,0.0,0.0,0.0,0.0,0.0,0.0,0.0,0.0,0.0,0.0,0.0,0.0,0.0,0.0,0.0,0.0,0.0,0.0,0.0,0.0,0.0,0.0,0.0,0.0,0.0,0.0,0.0,0.0,0.0,0.0,0.0,0.0,0.0,0.0,0.0,0.0,0.0,0.0,0.0,0.0,0.0,0.0,0.0,0.0,0.0,0.0,0.0,0.0,0.0,0.0,0.0,0.0,0.0,0.0,0.0,0.0,0.0,0.0,0.0,0.0,0.0,0.0,0.0,0.0,0.0,0.0,0.0,0.0,0.0,3.4736,0.0,3.6713,0.0,3.5273,3.3545,0.0,0.0,0.0,0.0,0.0,0.0,0.0,0.0,0.0,0.0,0.0,0.0,0.0,0.0,0.0,0.0,0.0,0.0,0.0,0.0,0.0,0.0,0.0,0.0,0.0,0.0,0.0,0.0,0.0,0.0,0.0,0.0,0.0,0.0,0.0,0.0,0.0,0.0,0.0,0.0,0.0,0.0,0.0,0.0,0.0,0.0,0.0,0.0,0.0,0.0,0.0,0.0,0.0,0.0,0.0,0.0,0.0,0.0,0.0,0.0,0.0,0.0,0.0,0.0,0.0,0.0,0.0,0.0,0.0,0.0,0.0,0.0,0.0,0.0,0.0,0.0,0.0,0.0,0.0,0.0,0.0,0.0,0.0,0.0,0.0,0.0,0.0,0.0,0.0,0.0,0.0,0.0,0.0,0.0,0.0,0.0,0.0,0.0,0.0,0.0,0.0,0.0,0.0,0.0,0.0,0.0,0.0,0.0,0.0,3.331,3.4044,3.5136,0.0,3.4832,3.3448,0.0,0.0,0.0,0.0,0.0,0.0,0.0,0.0,0.0,0.0,0.0,0.0,0.0,0.0,0.0,0.0,0.0,0.0,0.0,0.0,0.0,0.0,0.0,0.0,0.0,0.0,0.0,0.0,0.0,0.0,0.0,0.0,0.0,0.0,0.0,0.0,0.0,0.0,0.0,0.0,0.0,0.0,0.0,0.0,0.0,0.0,0.0,0.0,0.0,0.0,0.0,0.0,0.0,0.0,0.0,0.0,0.0,0.0,0.0,0.0,0.0,0.0,0.0,0.0,0.0,0.0,0.0,0.0,0.0,0.0,0.0,0.0,0.0,0.0,0.0,0.0,0.0,0.0,0.0,0.0,0.0,0.0,0.0,0.0,0.0,0.0,0.0,0.0,0.0,0.0,0.0,0.0,0.0,0.0,0.0,0.0,0.0,0.0,0.0,0.0,0.0,0.0,0.0,0.0,0.0,0.0,0.0,0.0,0.0,0.0,3.4702,3.5119,3.5119,3.6115,3.5174,0.0,0.0,0.0,0.0,0.0,0.0,0.0,0.0,0.0,0.0,0.0,0.0,0.0,0.0,0.0,0.0,0.0,0.0,0.0,0.0,0.0,0.0,0.0,0.0,0.0,0.0,0.0,0.0,0.0,0.0,0.0,0.0,0.0,0.0,0.0,0.0,0.0,0.0,0.0,0.0,0.0,0.0,0.0,0.0,0.0,0.0,0.0,0.0,0.0,0.0,0.0,0.0,0.0,0.0,0.0,0.0,0.0,0.0,0.0,0.0,0.0,0.0,0.0,0.0,0.0,0.0,0.0,0.0,0.0,0.0,0.0,0.0,0.0,0.0,0.0,0.0,0.0,0.0,0.0,0.0,0.0,0.0,0.0,0.0,0.0,0.0,0.0,0.0,0.0,0.0,0.0,0.0,0.0,0.0,0.0,0.0,0.0,0.0,0.0,0.0,0.0,0.0,0.0,0.0,0.0,0.0,0.0,0.0,0.0,0.0,3.3913,0.0,3.3881,3.3122,3.2533,3.2055,0.0,0.0,0.0,0.0,0.0,0.0,0.0,0.0,0.0,0.0,0.0,0.0,0.0,0.0,0.0,0.0,0.0,0.0,0.0,0.0,0.0,0.0,0.0,0.0,0.0,0.0,0.0,0.0,0.0,0.0,0.0,0.0,0.0,0.0,0.0,0.0,0.0,0.0,0.0,0.0,0.0,0.0,0.0,0.0,0.0,0.0,0.0,0.0,0.0,0.0,0.0,0.0,0.0,0.0,0.0,0.0,0.0,0.0,0.0,0.0,0.0,0.0,0.0,0.0,0.0,0.0,0.0,0.0,0.0,0.0,0.0,0.0,0.0,0.0,0.0,0.0,0.0,0.0,0.0,0.0,0.0,0.0,0.0,0.0,0.0,0.0,0.0,0.0,0.0,0.0,0.0,0.0,0.0,0.0,0.0,0.0,0.0,0.0,0.0,0.0,0.0,0.0,0.0,0.0,0.0,0.0,0.0,0.0,0.0,0.0,0.0,3.3204,3.2303,3.1743,0.0,0.0,0.0,0.0,0.0,0.0,0.0,0.0,0.0,0.0,0.0,0.0,0.0,0.0,0.0,0.0,0.0,0.0,0.0,0.0,0.0,0.0,0.0,0.0,0.0,0.0,0.0,0.0,0.0,0.0,0.0,0.0,0.0,0.0,0.0,0.0,0.0,0.0,0.0,0.0,0.0,0.0,0.0,0.0,0.0,0.0,0.0,0.0,0.0,0.0,0.0,0.0,0.0,0.0,0.0,0.0,0.0,0.0,0.0,0.0,0.0,0.0,0.0,0.0,0.0,0.0,0.0,0.0,0.0,0.0,0.0,0.0,0.0,0.0,0.0,0.0,0.0,0.0,0.0,0.0,0.0,0.0,0.0,0.0,0.0,0.0,0.0,0.0,0.0,0.0,0.0,0.0,0.0,0.0,0.0,0.0,0.0,0.0,0.0,0.0,0.0,0.0,0.0,0.0,0.0,0.0,0.0,0.0,0.0,0.0,0.0,3.2779,3.2867,3.2672,0.0,3.1029,0.0,0.0,0.0,0.0,0.0,0.0,0.0,0.0,0.0,0.0,0.0,0.0,0.0,0.0,0.0,0.0,0.0,0.0,0.0,0.0,0.0,0.0,0.0,0.0,0.0,0.0,0.0,0.0,0.0,0.0,0.0,0.0,0.0,0.0,0.0,0.0,0.0,0.0,0.0,0.0,0.0,0.0,0.0,0.0,0.0,0.0,0.0,0.0,0.0,0.0,0.0,0.0,0.0,0.0,0.0,0.0,0.0,0.0,0.0,0.0,0.0,0.0,0.0,0.0,0.0,0.0,0.0,0.0,0.0,0.0,0.0,0.0,0.0,0.0,0.0,0.0,0.0,0.0,0.0,0.0,0.0,0.0,0.0,0.0,0.0,0.0,0.0,0.0,0.0,0.0,0.0,0.0,0.0,0.0,0.0,0.0,0.0,0.0,0.0,0.0,0.0,0.0,0.0,0.0,0.0,0.0,0.0,0.0,0.0,0.0,0.0,0.0,3.1691,3.0902,3.0588,0.0,0.0,0.0,0.0,0.0,0.0,0.0,0.0,0.0,0.0,0.0,0.0,0.0,0.0,0.0,0.0,0.0,0.0,0.0,0.0,0.0,0.0,0.0,0.0,0.0,0.0,0.0,0.0,0.0,0.0,0.0,0.0,0.0,0.0,0.0,0.0,0.0,0.0,0.0,0.0,0.0,0.0,0.0,0.0,0.0,0.0,0.0,0.0,0.0,0.0,0.0,0.0,0.0,0.0,0.0,0.0,0.0,0.0,0.0,0.0,0.0,0.0,0.0,0.0,0.0,0.0,0.0,0.0,0.0,0.0,0.0,0.0,0.0,0.0,0.0,0.0,0.0,0.0,0.0,0.0,0.0,0.0,0.0,0.0,0.0,0.0,0.0,0.0,0.0,0.0,0.0,0.0,0.0,0.0,0.0,0.0,0.0,0.0,0.0,0.0,0.0,0.0,0.0,0.0,0.0,0.0,0.0,0.0,0.0,0.0,3.205,3.2779,3.1318,3.0514,3.0479,0.0,0.0,0.0,0.0,0.0,0.0,0.0,0.0,0.0,0.0,0.0,0.0,0.0,0.0,0.0,0.0,0.0,0.0,0.0,0.0,0.0,0.0,0.0,0.0,0.0,0.0,0.0,0.0,0.0,0.0,0.0,0.0,0.0,0.0,0.0,0.0,0.0,0.0,0.0,0.0,0.0,0.0,0.0,0.0,0.0,0.0,0.0,0.0,0.0,0.0,0.0,0.0,0.0,0.0,0.0,0.0,0.0,0.0,0.0,0.0,0.0,0.0,0.0,0.0,0.0,0.0,0.0,0.0,0.0,0.0,0.0,0.0,0.0,0.0,0.0,0.0,0.0,0.0,0.0,0.0,0.0,0.0,0.0,0.0,0.0,0.0,0.0,0.0,0.0,0.0,0.0,0.0,0.0,0.0,0.0,0.0,0.0,0.0,0.0,0.0,0.0,0.0,0.0,0.0,0.0,0.0,0.0,0.0,0.0,0.0,0.0,0.0,0.0,0.0,3.0367,0.0,0.0,0.0,0.0,0.0,0.0,0.0,0.0,0.0,0.0,0.0,0.0,0.0,0.0,0.0,0.0,0.0,0.0,0.0,0.0,0.0,0.0,0.0,0.0,0.0,0.0,0.0,0.0,0.0,0.0,0.0,0.0,0.0,0.0,0.0,0.0,0.0,0.0,0.0,0.0,0.0,0.0,0.0,0.0,0.0,0.0,0.0,0.0,0.0,0.0,0.0,0.0,0.0,0.0,0.0,0.0,0.0,0.0,0.0,0.0,0.0,0.0,0.0,0.0,0.0,0.0,0.0,0.0,0.0,0.0,0.0,0.0,0.0,0.0,0.0,0.0,0.0,0.0,0.0,0.0,0.0,0.0,0.0,0.0,0.0,0.0,0.0,0.0,0.0,0.0,0.0,0.0,0.0,0.0,0.0,0.0,0.0,0.0,0.0,0.0,0.0,0.0,0.0,0.0,0.0,0.0,0.0,0.0,0.0,0.0,0.0,0.0,0.0,0.0,0.0,0.0,0.0,0.0,0.0,0.0,0.0,0.0,0.0,0.0,0.0,0.0,0.0,0.0,0.0,0.0,0.0,0.0,0.0,0.0,0.0,0.0,0.0,0.0,0.0,0.0,0.0,0.0,0.0,0.0,0.0,0.0,0.0,0.0,0.0,0.0,0.0,0.0,0.0,0.0,0.0,0.0,0.0,0.0,0.0,0.0,0.0,0.0,0.0,0.0,0.0,0.0,0.0,0.0,0.0,0.0,0.0,0.0,0.0,0.0,0.0,0.0,0.0,0.0,0.0,0.0,0.0,0.0,0.0,0.0,0.0,0.0,0.0,0.0,0.0,0.0,0.0,0.0,0.0,0.0,0.0,0.0,0.0,0.0,0.0,0.0,0.0,0.0,0.0,0.0,0.0,0.0,0.0,0.0,0.0,0.0,0.0,0.0,0.0,0.0,0.0,0.0,0.0,0.0,0.0,0.0,0.0,0.0,0.0,0.0,0.0,0.0,0.0,0.0,0.0,0.0,0.0,0.0,0.0,0.0,0.0,0.0,0.0,0.0,0.0,0.0,0.0,0.0,0.0,0.0,0.0,0.0,0.0,0.0,0.0,0.0,0.0,0.0,0.0,0.0,0.0,0.0,0.0,0.0,0.0,0.0,0.0,0.0,0.0,0.0,0.0,0.0,0.0,0.0,0.0,0.0,0.0,0.0,0.0,0.0,0.0,0.0,0.0,0.0,0.0,0.0,0.0,0.0,0.0,0.0,0.0,0.0,0.0,0.0,0.0,0.0,0.0,0.0,0.0,0.0,0.0,0.0,0.0,0.0,0.0,0.0,0.0,0.0,0.0,0.0,0.0,0.0,0.0,0.0,0.0,0.0,0.0,0.0,0.0,0.0,0.0,0.0,0.0,0.0,0.0,0.0,0.0,0.0,0.0,0.0,0.0,0.0,0.0,0.0,0.0,0.0,0.0,0.0,0.0,0.0,0.0,0.0,0.0,0.0,0.0,0.0,0.0,0.0,0.0,0.0,0.0,0.0,0.0,0.0,0.0,0.0,0.0,0.0,0.0,0.0,0.0,0.0,0.0,0.0,0.0,0.0,0.0,0.0,0.0,0.0,0.0,0.0,0.0,0.0,0.0,0.0,0.0,0.0,0.0,0.0,0.0,0.0,0.0,0.0,0.0,0.0,0.0,0.0,0.0,0.0,0.0,0.0,0.0,0.0,0.0,0.0,0.0,0.0,0.0,0.0,0.0,0.0,0.0,0.0,0.0,0.0,0.0,0.0,0.0,0.0,0.0,0.0,0.0,0.0,0.0,0.0,0.0,0.0,0.0,0.0,0.0,0.0,0.0,0.0,0.0,0.0,0.0,0.0,0.0,0.0,0.0,0.0,0.0,0.0,0.0,0.0,0.0,0.0,0.0,0.0,0.0,0.0,0.0,0.0,0.0,0.0,0.0,0.0,0.0,0.0,0.0,0.0,0.0,0.0,0.0,0.0,0.0,0.0,0.0,0.0,0.0,0.0,0.0,0.0,0.0,0.0,0.0,0.0,0.0,0.0,0.0,0.0,0.0,0.0,0.0,0.0,0.0,0.0,0.0,0.0,0.0,0.0,0.0,0.0,0.0,0.0,0.0,0.0,0.0,0.0,0.0,0.0,0.0,0.0,0.0,0.0,0.0,0.0,0.0,0.0,0.0,0.0,0.0,0.0,0.0,0.0,0.0,0.0,0.0,0.0,0.0,0.0,0.0,0.0,0.0,0.0,0.0,0.0,0.0,0.0,0.0,0.0,0.0,0.0,0.0,0.0,0.0,0.0,0.0,0.0,0.0,0.0,0.0,0.0,0.0,0.0,0.0,0.0,0.0,0.0,0.0,0.0,0.0,0.0,0.0,0.0,0.0,0.0,0.0,0.0,0.0,0.0,0.0,0.0,0.0,0.0,0.0,0.0,0.0,0.0,0.0,0.0,0.0,0.0,0.0,0.0,0.0,0.0,0.0,0.0,0.0,0.0,0.0,0.0,0.0,0.0,0.0,0.0,0.0,0.0,0.0,0.0,0.0,0.0,0.0,0.0,0.0,0.0,0.0,0.0,0.0,0.0,0.0,0.0,0.0,0.0,0.0,0.0,0.0,0.0,0.0,0.0,0.0,0.0,0.0,0.0,0.0,0.0,0.0,0.0,0.0,0.0,0.0,0.0,0.0,0.0,0.0,0.0,0.0,0.0,0.0,0.0,0.0,0.0,0.0,0.0,0.0,0.0,0.0,0.0,0.0,0.0,0.0,0.0,0.0,0.0,0.0,0.0,0.0,0.0,0.0,0.0,0.0,0.0,0.0,0.0,0.0,0.0,0.0,0.0,0.0,0.0,0.0,0.0,0.0,0.0,0.0,0.0,0.0,0.0,0.0,0.0,0.0,0.0,0.0,0.0,0.0,0.0,0.0,0.0,0.0,0.0,0.0,0.0,0.0,0.0,0.0,0.0,0.0,0.0,0.0,0.0,0.0,0.0,0.0,0.0,0.0,0.0,0.0,0.0,0.0,0.0,0.0,0.0,0.0,0.0,0.0,0.0,0.0,0.0,0.0,0.0,0.0,0.0,0.0,0.0,0.0,0.0,0.0,0.0,0.0,0.0,0.0,0.0,0.0,0.0,0.0,0.0,0.0,0.0,0.0,0.0,0.0,0.0,0.0,0.0,0.0,0.0,0.0,0.0,0.0,0.0,0.0,0.0,0.0,0.0,0.0,0.0,0.0,0.0,0.0,0.0,0.0,0.0,0.0,0.0,0.0,0.0,0.0,0.0,0.0,0.0,0.0,0.0,0.0,0.0,0.0,0.0,0.0,0.0,0.0,0.0,0.0,0.0,0.0,0.0,0.0,0.0,0.0,0.0,0.0,0.0,0.0,0.0,0.0,0.0,0.0,0.0,0.0,0.0,0.0,0.0,0.0,0.0,0.0,0.0,0.0,0.0,0.0,0.0,0.0,0.0,0.0,0.0,0.0,0.0,0.0,0.0,0.0,0.0,0.0,0.0,0.0,0.0,0.0,0.0,0.0,0.0,0.0,0.0,0.0,0.0,0.0,0.0,0.0,0.0,0.0,0.0,0.0,0.0,0.0,0.0,0.0,0.0,0.0,0.0,0.0,0.0,0.0,0.0,0.0,0.0,0.0,0.0,0.0,0.0,0.0,0.0,0.0,0.0,0.0,0.0,0.0,0.0,0.0,0.0,0.0,0.0,0.0,0.0,0.0,0.0,0.0,0.0,0.0,0.0,0.0,0.0,0.0,0.0,0.0,0.0,0.0,0.0,0.0,0.0,0.0,0.0,0.0,0.0,0.0,0.0,0.0,0.0,0.0,0.0,0.0,0.0,0.0,0.0,0.0,0.0,0.0,0.0,0.0,0.0,0.0,0.0,0.0,0.0,0.0,0.0,0.0,0.0,0.0,0.0,0.0,0.0,0.0,0.0,0.0,0.0,0.0,0.0,0.0,0.0,0.0,0.0,0.0,0.0,0.0,0.0,0.0,0.0,0.0,0.0,0.0,0.0,0.0,0.0,0.0,0.0,0.0,0.0,0.0,0.0,0.0,0.0,0.0,0.0,0.0,0.0,0.0,0.0,0.0,0.0,0.0,0.0,0.0,0.0,0.0,0.0,0.0,0.0,0.0,0.0,0.0,0.0,0.0,0.0,0.0,0.0,0.0,0.0,0.0,0.0,0.0,0.0,0.0,0.0,0.0,0.0,0.0,0.0,0.0,0.0,0.0,0.0,0.0,0.0,0.0,0.0,0.0,0.0,0.0,0.0,0.0,0.0,0.0,0.0,0.0,0.0,0.0,0.0,0.0,0.0,0.0,0.0,0.0,0.0,0.0,0.0,0.0,0.0]}]]]